<?xml version="1.0" encoding="UTF-8" standalone="no" ?>
<gpx xmlns="http://www.topografix.com/GPX/1/1" xmlns:xsi="http://www.w3.org/2001/XMLSchema-instance" xsi:schemaLocation="http://www.topografix.com/GPX/1/1 http://www.topografix.com/GPX/1/1/gpx.xsd" version="1.1" creator="VisuGPX - https://www.visugpx.com">
  <metadata>
    <name>Le Castellet Beausset Plan</name>
    <desc><![CDATA[Vous atteindrez en premier le village médiéval du Castellet. Après votre visite, en contournant le Brulât et le Beausset, vous passerez à proximité du sanctuaire de Notre Dame du Beausset Vieux, culminant à 364 mètres d'altitude. Vous pouvez y accéder en pédalant 2 kms supplémentaire, la vue et la tranquillité de l'endroit valent cet effort supplémentaire. Le retour sur la Cadière d'Azur vous fera passer par des petites routes offrant de jolis panoramas]]></desc>
  </metadata>
  <trk>
    <name><![CDATA[Le Castellet - Beausset vieux - Val d'Aran E-BIKE]]></name>
    <trkseg>
      <trkpt lat="43.19581" lon="5.75749">
        <ele>135.60000610352</ele>
        <time>2016-10-28T12:10:27.000Z</time>
      </trkpt>
      <trkpt lat="43.19574" lon="5.75747">
        <ele>134.60000610352</ele>
        <time>2016-10-28T12:14:36.000Z</time>
      </trkpt>
      <trkpt lat="43.19571" lon="5.7575">
        <ele>133.60000610352</ele>
        <time>2016-10-28T12:14:38.000Z</time>
      </trkpt>
      <trkpt lat="43.19557" lon="5.75762">
        <ele>129.80000305176</ele>
        <time>2016-10-28T12:14:43.000Z</time>
      </trkpt>
      <trkpt lat="43.19551" lon="5.75769">
        <ele>128.60000610352</ele>
        <time>2016-10-28T12:14:45.000Z</time>
      </trkpt>
      <trkpt lat="43.19548" lon="5.75772">
        <ele>128.39999389648</ele>
        <time>2016-10-28T12:14:46.000Z</time>
      </trkpt>
      <trkpt lat="43.19542" lon="5.75779">
        <ele>127.59999847412</ele>
        <time>2016-10-28T12:14:48.000Z</time>
      </trkpt>
      <trkpt lat="43.1954" lon="5.75782">
        <ele>127.40000152588</ele>
        <time>2016-10-28T12:14:49.000Z</time>
      </trkpt>
      <trkpt lat="43.19538" lon="5.75784">
        <ele>127</ele>
        <time>2016-10-28T12:14:50.000Z</time>
      </trkpt>
      <trkpt lat="43.19534" lon="5.75794">
        <ele>126.59999847412</ele>
        <time>2016-10-28T12:14:53.000Z</time>
      </trkpt>
      <trkpt lat="43.19534" lon="5.75799">
        <ele>126.40000152588</ele>
        <time>2016-10-28T12:14:54.000Z</time>
      </trkpt>
      <trkpt lat="43.19534" lon="5.75805">
        <ele>126.40000152588</ele>
        <time>2016-10-28T12:14:55.000Z</time>
      </trkpt>
      <trkpt lat="43.19535" lon="5.75812">
        <ele>126</ele>
        <time>2016-10-28T12:14:56.000Z</time>
      </trkpt>
      <trkpt lat="43.19533" lon="5.75825">
        <ele>125</ele>
        <time>2016-10-28T12:14:58.000Z</time>
      </trkpt>
      <trkpt lat="43.19529" lon="5.75831">
        <ele>124.19999694824</ele>
        <time>2016-10-28T12:14:59.000Z</time>
      </trkpt>
      <trkpt lat="43.19524" lon="5.75837">
        <ele>123.40000152588</ele>
        <time>2016-10-28T12:15:00.000Z</time>
      </trkpt>
      <trkpt lat="43.1952" lon="5.75843">
        <ele>122.59999847412</ele>
        <time>2016-10-28T12:15:01.000Z</time>
      </trkpt>
      <trkpt lat="43.19511" lon="5.75858">
        <ele>120.59999847412</ele>
        <time>2016-10-28T12:15:03.000Z</time>
      </trkpt>
      <trkpt lat="43.19502" lon="5.75874">
        <ele>118.40000152588</ele>
        <time>2016-10-28T12:15:05.000Z</time>
      </trkpt>
      <trkpt lat="43.19498" lon="5.75881">
        <ele>117.19999694824</ele>
        <time>2016-10-28T12:15:06.000Z</time>
      </trkpt>
      <trkpt lat="43.19494" lon="5.75889">
        <ele>115.80000305176</ele>
        <time>2016-10-28T12:15:07.000Z</time>
      </trkpt>
      <trkpt lat="43.1949" lon="5.75895">
        <ele>115</ele>
        <time>2016-10-28T12:15:08.000Z</time>
      </trkpt>
      <trkpt lat="43.19485" lon="5.759">
        <ele>114</ele>
        <time>2016-10-28T12:15:09.000Z</time>
      </trkpt>
      <trkpt lat="43.19479" lon="5.75902">
        <ele>113</ele>
        <time>2016-10-28T12:15:10.000Z</time>
      </trkpt>
      <trkpt lat="43.19473" lon="5.75902">
        <ele>112</ele>
        <time>2016-10-28T12:15:11.000Z</time>
      </trkpt>
      <trkpt lat="43.19462" lon="5.75894">
        <ele>110</ele>
        <time>2016-10-28T12:15:13.000Z</time>
      </trkpt>
      <trkpt lat="43.19458" lon="5.75889">
        <ele>109.19999694824</ele>
        <time>2016-10-28T12:15:14.000Z</time>
      </trkpt>
      <trkpt lat="43.19451" lon="5.75875">
        <ele>109.19999694824</ele>
        <time>2016-10-28T12:15:16.000Z</time>
      </trkpt>
      <trkpt lat="43.19448" lon="5.7587">
        <ele>109</ele>
        <time>2016-10-28T12:15:17.000Z</time>
      </trkpt>
      <trkpt lat="43.19432" lon="5.75855">
        <ele>107.40000152588</ele>
        <time>2016-10-28T12:15:20.000Z</time>
      </trkpt>
      <trkpt lat="43.1943" lon="5.75847">
        <ele>107.80000305176</ele>
        <time>2016-10-28T12:15:21.000Z</time>
      </trkpt>
      <trkpt lat="43.19428" lon="5.75828">
        <ele>109</ele>
        <time>2016-10-28T12:15:23.000Z</time>
      </trkpt>
      <trkpt lat="43.19427" lon="5.75808">
        <ele>110.40000152588</ele>
        <time>2016-10-28T12:15:25.000Z</time>
      </trkpt>
      <trkpt lat="43.19427" lon="5.75777">
        <ele>111</ele>
        <time>2016-10-28T12:15:28.000Z</time>
      </trkpt>
      <trkpt lat="43.19425" lon="5.75767">
        <ele>110.80000305176</ele>
        <time>2016-10-28T12:15:29.000Z</time>
      </trkpt>
      <trkpt lat="43.19422" lon="5.75758">
        <ele>110.19999694824</ele>
        <time>2016-10-28T12:15:30.000Z</time>
      </trkpt>
      <trkpt lat="43.19416" lon="5.75751">
        <ele>109.19999694824</ele>
        <time>2016-10-28T12:15:31.000Z</time>
      </trkpt>
      <trkpt lat="43.19409" lon="5.75746">
        <ele>107.80000305176</ele>
        <time>2016-10-28T12:15:32.000Z</time>
      </trkpt>
      <trkpt lat="43.19393" lon="5.75737">
        <ele>104.80000305176</ele>
        <time>2016-10-28T12:15:34.000Z</time>
      </trkpt>
      <trkpt lat="43.1938" lon="5.75723">
        <ele>102.19999694824</ele>
        <time>2016-10-28T12:15:36.000Z</time>
      </trkpt>
      <trkpt lat="43.19375" lon="5.75715">
        <ele>101.40000152588</ele>
        <time>2016-10-28T12:15:37.000Z</time>
      </trkpt>
      <trkpt lat="43.1937" lon="5.75704">
        <ele>100.80000305176</ele>
        <time>2016-10-28T12:15:38.000Z</time>
      </trkpt>
      <trkpt lat="43.19366" lon="5.75694">
        <ele>100.19999694824</ele>
        <time>2016-10-28T12:15:39.000Z</time>
      </trkpt>
      <trkpt lat="43.19361" lon="5.75683">
        <ele>99.800003051758</ele>
        <time>2016-10-28T12:15:40.000Z</time>
      </trkpt>
      <trkpt lat="43.19344" lon="5.75652">
        <ele>97.400001525879</ele>
        <time>2016-10-28T12:15:43.000Z</time>
      </trkpt>
      <trkpt lat="43.19338" lon="5.75643">
        <ele>97.400001525879</ele>
        <time>2016-10-28T12:15:44.000Z</time>
      </trkpt>
      <trkpt lat="43.19331" lon="5.75633">
        <ele>97.599998474121</ele>
        <time>2016-10-28T12:15:45.000Z</time>
      </trkpt>
      <trkpt lat="43.19318" lon="5.75614">
        <ele>97.599998474121</ele>
        <time>2016-10-28T12:15:47.000Z</time>
      </trkpt>
      <trkpt lat="43.19299" lon="5.75586">
        <ele>97.800003051758</ele>
        <time>2016-10-28T12:15:50.000Z</time>
      </trkpt>
      <trkpt lat="43.19292" lon="5.75578">
        <ele>97.800003051758</ele>
        <time>2016-10-28T12:15:51.000Z</time>
      </trkpt>
      <trkpt lat="43.19284" lon="5.75574">
        <ele>97.400001525879</ele>
        <time>2016-10-28T12:15:52.000Z</time>
      </trkpt>
      <trkpt lat="43.19276" lon="5.75572">
        <ele>97</ele>
        <time>2016-10-28T12:15:53.000Z</time>
      </trkpt>
      <trkpt lat="43.19262" lon="5.75576">
        <ele>96.199996948242</ele>
        <time>2016-10-28T12:15:55.000Z</time>
      </trkpt>
      <trkpt lat="43.19256" lon="5.75582">
        <ele>95.599998474121</ele>
        <time>2016-10-28T12:15:56.000Z</time>
      </trkpt>
      <trkpt lat="43.1925" lon="5.75601">
        <ele>94.599998474121</ele>
        <time>2016-10-28T12:15:58.000Z</time>
      </trkpt>
      <trkpt lat="43.19251" lon="5.75634">
        <ele>94</ele>
        <time>2016-10-28T12:16:01.000Z</time>
      </trkpt>
      <trkpt lat="43.19251" lon="5.75646">
        <ele>94</ele>
        <time>2016-10-28T12:16:02.000Z</time>
      </trkpt>
      <trkpt lat="43.19254" lon="5.75683">
        <ele>94</ele>
        <time>2016-10-28T12:16:05.000Z</time>
      </trkpt>
      <trkpt lat="43.19256" lon="5.75709">
        <ele>94</ele>
        <time>2016-10-28T12:16:07.000Z</time>
      </trkpt>
      <trkpt lat="43.19256" lon="5.75737">
        <ele>93.400001525879</ele>
        <time>2016-10-28T12:16:09.000Z</time>
      </trkpt>
      <trkpt lat="43.19256" lon="5.75765">
        <ele>92.400001525879</ele>
        <time>2016-10-28T12:16:11.000Z</time>
      </trkpt>
      <trkpt lat="43.19255" lon="5.75793">
        <ele>91.400001525879</ele>
        <time>2016-10-28T12:16:13.000Z</time>
      </trkpt>
      <trkpt lat="43.19253" lon="5.75822">
        <ele>90.199996948242</ele>
        <time>2016-10-28T12:16:15.000Z</time>
      </trkpt>
      <trkpt lat="43.19252" lon="5.75851">
        <ele>88.800003051758</ele>
        <time>2016-10-28T12:16:17.000Z</time>
      </trkpt>
      <trkpt lat="43.19251" lon="5.75881">
        <ele>87.599998474121</ele>
        <time>2016-10-28T12:16:19.000Z</time>
      </trkpt>
      <trkpt lat="43.1925" lon="5.7591">
        <ele>87</ele>
        <time>2016-10-28T12:16:21.000Z</time>
      </trkpt>
      <trkpt lat="43.19249" lon="5.75924">
        <ele>86.400001525879</ele>
        <time>2016-10-28T12:16:22.000Z</time>
      </trkpt>
      <trkpt lat="43.19247" lon="5.75953">
        <ele>85</ele>
        <time>2016-10-28T12:16:24.000Z</time>
      </trkpt>
      <trkpt lat="43.19246" lon="5.75982">
        <ele>84.400001525879</ele>
        <time>2016-10-28T12:16:26.000Z</time>
      </trkpt>
      <trkpt lat="43.19247" lon="5.76027">
        <ele>82.800003051758</ele>
        <time>2016-10-28T12:16:29.000Z</time>
      </trkpt>
      <trkpt lat="43.19249" lon="5.76042">
        <ele>82</ele>
        <time>2016-10-28T12:16:30.000Z</time>
      </trkpt>
      <trkpt lat="43.19254" lon="5.76086">
        <ele>78.599998474121</ele>
        <time>2016-10-28T12:16:33.000Z</time>
      </trkpt>
      <trkpt lat="43.19257" lon="5.76114">
        <ele>76.199996948242</ele>
        <time>2016-10-28T12:16:35.000Z</time>
      </trkpt>
      <trkpt lat="43.1926" lon="5.76156">
        <ele>73.400001525879</ele>
        <time>2016-10-28T12:16:38.000Z</time>
      </trkpt>
      <trkpt lat="43.19258" lon="5.7617">
        <ele>73</ele>
        <time>2016-10-28T12:16:39.000Z</time>
      </trkpt>
      <trkpt lat="43.19256" lon="5.76183">
        <ele>72.599998474121</ele>
        <time>2016-10-28T12:16:40.000Z</time>
      </trkpt>
      <trkpt lat="43.19252" lon="5.76195">
        <ele>72.599998474121</ele>
        <time>2016-10-28T12:16:41.000Z</time>
      </trkpt>
      <trkpt lat="43.19243" lon="5.76231">
        <ele>71.400001525879</ele>
        <time>2016-10-28T12:16:44.000Z</time>
      </trkpt>
      <trkpt lat="43.1924" lon="5.7624">
        <ele>71.800003051758</ele>
        <time>2016-10-28T12:16:45.000Z</time>
      </trkpt>
      <trkpt lat="43.19235" lon="5.76254">
        <ele>72.400001525879</ele>
        <time>2016-10-28T12:16:47.000Z</time>
      </trkpt>
      <trkpt lat="43.19233" lon="5.76259">
        <ele>72.400001525879</ele>
        <time>2016-10-28T12:16:48.000Z</time>
      </trkpt>
      <trkpt lat="43.19232" lon="5.76264">
        <ele>72.599998474121</ele>
        <time>2016-10-28T12:16:49.000Z</time>
      </trkpt>
      <trkpt lat="43.19231" lon="5.7627">
        <ele>72.800003051758</ele>
        <time>2016-10-28T12:16:50.000Z</time>
      </trkpt>
      <trkpt lat="43.19233" lon="5.76283">
        <ele>71.800003051758</ele>
        <time>2016-10-28T12:16:52.000Z</time>
      </trkpt>
      <trkpt lat="43.19238" lon="5.76294">
        <ele>70.800003051758</ele>
        <time>2016-10-28T12:16:54.000Z</time>
      </trkpt>
      <trkpt lat="43.19247" lon="5.76313">
        <ele>70.400001525879</ele>
        <time>2016-10-28T12:16:57.000Z</time>
      </trkpt>
      <trkpt lat="43.19251" lon="5.76325">
        <ele>71.199996948242</ele>
        <time>2016-10-28T12:16:59.000Z</time>
      </trkpt>
      <trkpt lat="43.19253" lon="5.76338">
        <ele>71.800003051758</ele>
        <time>2016-10-28T12:17:01.000Z</time>
      </trkpt>
      <trkpt lat="43.19254" lon="5.76345">
        <ele>72</ele>
        <time>2016-10-28T12:17:02.000Z</time>
      </trkpt>
      <trkpt lat="43.19255" lon="5.76351">
        <ele>72.199996948242</ele>
        <time>2016-10-28T12:17:03.000Z</time>
      </trkpt>
      <trkpt lat="43.19259" lon="5.76384">
        <ele>73.599998474121</ele>
        <time>2016-10-28T12:17:08.000Z</time>
      </trkpt>
      <trkpt lat="43.19261" lon="5.7641">
        <ele>74.599998474121</ele>
        <time>2016-10-28T12:17:12.000Z</time>
      </trkpt>
      <trkpt lat="43.19261" lon="5.76415">
        <ele>74.599998474121</ele>
        <time>2016-10-28T12:17:13.000Z</time>
      </trkpt>
      <trkpt lat="43.19253" lon="5.76437">
        <ele>74.400001525879</ele>
        <time>2016-10-28T12:17:17.000Z</time>
      </trkpt>
      <trkpt lat="43.19251" lon="5.76443">
        <ele>74.400001525879</ele>
        <time>2016-10-28T12:17:18.000Z</time>
      </trkpt>
      <trkpt lat="43.19249" lon="5.76464">
        <ele>74.800003051758</ele>
        <time>2016-10-28T12:17:21.000Z</time>
      </trkpt>
      <trkpt lat="43.19257" lon="5.76483">
        <ele>76</ele>
        <time>2016-10-28T12:17:24.000Z</time>
      </trkpt>
      <trkpt lat="43.19272" lon="5.76491">
        <ele>77</ele>
        <time>2016-10-28T12:17:27.000Z</time>
      </trkpt>
      <trkpt lat="43.1929" lon="5.7648">
        <ele>78.199996948242</ele>
        <time>2016-10-28T12:17:31.000Z</time>
      </trkpt>
      <trkpt lat="43.19298" lon="5.76462">
        <ele>78.400001525879</ele>
        <time>2016-10-28T12:17:34.000Z</time>
      </trkpt>
      <trkpt lat="43.193" lon="5.76456">
        <ele>78.400001525879</ele>
        <time>2016-10-28T12:17:35.000Z</time>
      </trkpt>
      <trkpt lat="43.19314" lon="5.76435">
        <ele>78.599998474121</ele>
        <time>2016-10-28T12:17:39.000Z</time>
      </trkpt>
      <trkpt lat="43.19334" lon="5.76396">
        <ele>77.199996948242</ele>
        <time>2016-10-28T12:17:46.000Z</time>
      </trkpt>
      <trkpt lat="43.19347" lon="5.76376">
        <ele>76.400001525879</ele>
        <time>2016-10-28T12:17:50.000Z</time>
      </trkpt>
      <trkpt lat="43.19357" lon="5.76363">
        <ele>76.400001525879</ele>
        <time>2016-10-28T12:17:53.000Z</time>
      </trkpt>
      <trkpt lat="43.19383" lon="5.76343">
        <ele>77</ele>
        <time>2016-10-28T12:17:59.000Z</time>
      </trkpt>
      <trkpt lat="43.1941" lon="5.76328">
        <ele>78.599998474121</ele>
        <time>2016-10-28T12:18:05.000Z</time>
      </trkpt>
      <trkpt lat="43.19422" lon="5.76321">
        <ele>79.400001525879</ele>
        <time>2016-10-28T12:18:08.000Z</time>
      </trkpt>
      <trkpt lat="43.19427" lon="5.7632">
        <ele>79.599998474121</ele>
        <time>2016-10-28T12:18:09.000Z</time>
      </trkpt>
      <trkpt lat="43.19447" lon="5.76313">
        <ele>82.199996948242</ele>
        <time>2016-10-28T12:18:14.000Z</time>
      </trkpt>
      <trkpt lat="43.19454" lon="5.76316">
        <ele>83.400001525879</ele>
        <time>2016-10-28T12:18:16.000Z</time>
      </trkpt>
      <trkpt lat="43.19459" lon="5.76328">
        <ele>84.599998474121</ele>
        <time>2016-10-28T12:18:19.000Z</time>
      </trkpt>
      <trkpt lat="43.19459" lon="5.76342">
        <ele>85.199996948242</ele>
        <time>2016-10-28T12:18:22.000Z</time>
      </trkpt>
      <trkpt lat="43.19459" lon="5.76352">
        <ele>85.599998474121</ele>
        <time>2016-10-28T12:18:24.000Z</time>
      </trkpt>
      <trkpt lat="43.19461" lon="5.76367">
        <ele>86.800003051758</ele>
        <time>2016-10-28T12:18:27.000Z</time>
      </trkpt>
      <trkpt lat="43.19463" lon="5.76377">
        <ele>87.599998474121</ele>
        <time>2016-10-28T12:18:29.000Z</time>
      </trkpt>
      <trkpt lat="43.19467" lon="5.76387">
        <ele>88.400001525879</ele>
        <time>2016-10-28T12:18:31.000Z</time>
      </trkpt>
      <trkpt lat="43.19472" lon="5.76402">
        <ele>89.400001525879</ele>
        <time>2016-10-28T12:18:34.000Z</time>
      </trkpt>
      <trkpt lat="43.19477" lon="5.76417">
        <ele>90.400001525879</ele>
        <time>2016-10-28T12:18:37.000Z</time>
      </trkpt>
      <trkpt lat="43.19484" lon="5.76437">
        <ele>91.599998474121</ele>
        <time>2016-10-28T12:18:41.000Z</time>
      </trkpt>
      <trkpt lat="43.19489" lon="5.76457">
        <ele>92.800003051758</ele>
        <time>2016-10-28T12:18:45.000Z</time>
      </trkpt>
      <trkpt lat="43.1949" lon="5.76478">
        <ele>93.599998474121</ele>
        <time>2016-10-28T12:18:49.000Z</time>
      </trkpt>
      <trkpt lat="43.19492" lon="5.76489">
        <ele>93.800003051758</ele>
        <time>2016-10-28T12:18:51.000Z</time>
      </trkpt>
      <trkpt lat="43.19493" lon="5.76494">
        <ele>94.199996948242</ele>
        <time>2016-10-28T12:18:52.000Z</time>
      </trkpt>
      <trkpt lat="43.19502" lon="5.76521">
        <ele>95.400001525879</ele>
        <time>2016-10-28T12:18:57.000Z</time>
      </trkpt>
      <trkpt lat="43.19506" lon="5.76537">
        <ele>96.199996948242</ele>
        <time>2016-10-28T12:19:00.000Z</time>
      </trkpt>
      <trkpt lat="43.19515" lon="5.76569">
        <ele>97.800003051758</ele>
        <time>2016-10-28T12:19:06.000Z</time>
      </trkpt>
      <trkpt lat="43.19519" lon="5.76588">
        <ele>99</ele>
        <time>2016-10-28T12:19:10.000Z</time>
      </trkpt>
      <trkpt lat="43.19522" lon="5.76599">
        <ele>99.400001525879</ele>
        <time>2016-10-28T12:19:12.000Z</time>
      </trkpt>
      <trkpt lat="43.19523" lon="5.76604">
        <ele>99.800003051758</ele>
        <time>2016-10-28T12:19:13.000Z</time>
      </trkpt>
      <trkpt lat="43.19528" lon="5.76643">
        <ele>101.19999694824</ele>
        <time>2016-10-28T12:19:20.000Z</time>
      </trkpt>
      <trkpt lat="43.19529" lon="5.76648">
        <ele>101.19999694824</ele>
        <time>2016-10-28T12:19:21.000Z</time>
      </trkpt>
      <trkpt lat="43.19533" lon="5.76681">
        <ele>101.59999847412</ele>
        <time>2016-10-28T12:19:27.000Z</time>
      </trkpt>
      <trkpt lat="43.19538" lon="5.76708">
        <ele>102.40000152588</ele>
        <time>2016-10-28T12:19:32.000Z</time>
      </trkpt>
      <trkpt lat="43.1954" lon="5.76719">
        <ele>102.59999847412</ele>
        <time>2016-10-28T12:19:34.000Z</time>
      </trkpt>
      <trkpt lat="43.19544" lon="5.76766">
        <ele>101.59999847412</ele>
        <time>2016-10-28T12:19:42.000Z</time>
      </trkpt>
      <trkpt lat="43.19551" lon="5.7682">
        <ele>101.40000152588</ele>
        <time>2016-10-28T12:19:51.000Z</time>
      </trkpt>
      <trkpt lat="43.19553" lon="5.76832">
        <ele>101.40000152588</ele>
        <time>2016-10-28T12:19:53.000Z</time>
      </trkpt>
      <trkpt lat="43.19563" lon="5.76858">
        <ele>102.19999694824</ele>
        <time>2016-10-28T12:19:58.000Z</time>
      </trkpt>
      <trkpt lat="43.1958" lon="5.76886">
        <ele>104.19999694824</ele>
        <time>2016-10-28T12:20:04.000Z</time>
      </trkpt>
      <trkpt lat="43.19583" lon="5.7689">
        <ele>104.59999847412</ele>
        <time>2016-10-28T12:20:05.000Z</time>
      </trkpt>
      <trkpt lat="43.19591" lon="5.76902">
        <ele>105.59999847412</ele>
        <time>2016-10-28T12:20:08.000Z</time>
      </trkpt>
      <trkpt lat="43.19599" lon="5.76913">
        <ele>107</ele>
        <time>2016-10-28T12:20:11.000Z</time>
      </trkpt>
      <trkpt lat="43.19602" lon="5.76918">
        <ele>107.59999847412</ele>
        <time>2016-10-28T12:20:12.000Z</time>
      </trkpt>
      <trkpt lat="43.19608" lon="5.76927">
        <ele>109.19999694824</ele>
        <time>2016-10-28T12:20:14.000Z</time>
      </trkpt>
      <trkpt lat="43.19617" lon="5.7694">
        <ele>111.40000152588</ele>
        <time>2016-10-28T12:20:17.000Z</time>
      </trkpt>
      <trkpt lat="43.19627" lon="5.76955">
        <ele>113.59999847412</ele>
        <time>2016-10-28T12:20:20.000Z</time>
      </trkpt>
      <trkpt lat="43.19635" lon="5.76969">
        <ele>115.80000305176</ele>
        <time>2016-10-28T12:20:23.000Z</time>
      </trkpt>
      <trkpt lat="43.19641" lon="5.76978">
        <ele>116.59999847412</ele>
        <time>2016-10-28T12:20:25.000Z</time>
      </trkpt>
      <trkpt lat="43.19647" lon="5.76986">
        <ele>117.40000152588</ele>
        <time>2016-10-28T12:20:27.000Z</time>
      </trkpt>
      <trkpt lat="43.19656" lon="5.76999">
        <ele>118.40000152588</ele>
        <time>2016-10-28T12:20:30.000Z</time>
      </trkpt>
      <trkpt lat="43.19662" lon="5.77007">
        <ele>119</ele>
        <time>2016-10-28T12:20:32.000Z</time>
      </trkpt>
      <trkpt lat="43.19671" lon="5.7702">
        <ele>120.19999694824</ele>
        <time>2016-10-28T12:20:35.000Z</time>
      </trkpt>
      <trkpt lat="43.1968" lon="5.77031">
        <ele>121.59999847412</ele>
        <time>2016-10-28T12:20:38.000Z</time>
      </trkpt>
      <trkpt lat="43.19683" lon="5.77034">
        <ele>122.19999694824</ele>
        <time>2016-10-28T12:20:39.000Z</time>
      </trkpt>
      <trkpt lat="43.19688" lon="5.77043">
        <ele>123.40000152588</ele>
        <time>2016-10-28T12:20:41.000Z</time>
      </trkpt>
      <trkpt lat="43.19695" lon="5.77057">
        <ele>124.80000305176</ele>
        <time>2016-10-28T12:20:44.000Z</time>
      </trkpt>
      <trkpt lat="43.197" lon="5.77066">
        <ele>125.59999847412</ele>
        <time>2016-10-28T12:20:46.000Z</time>
      </trkpt>
      <trkpt lat="43.19703" lon="5.7707">
        <ele>126</ele>
        <time>2016-10-28T12:20:47.000Z</time>
      </trkpt>
      <trkpt lat="43.1971" lon="5.77083">
        <ele>127.40000152588</ele>
        <time>2016-10-28T12:20:50.000Z</time>
      </trkpt>
      <trkpt lat="43.19717" lon="5.77095">
        <ele>128.60000610352</ele>
        <time>2016-10-28T12:20:53.000Z</time>
      </trkpt>
      <trkpt lat="43.19718" lon="5.77097">
        <ele>128.80000305176</ele>
        <time>2016-10-28T12:20:54.000Z</time>
      </trkpt>
      <trkpt lat="43.1972" lon="5.77102">
        <ele>129.19999694824</ele>
        <time>2016-10-28T12:20:56.000Z</time>
      </trkpt>
      <trkpt lat="43.19725" lon="5.77112">
        <ele>130.19999694824</ele>
        <time>2016-10-28T12:20:59.000Z</time>
      </trkpt>
      <trkpt lat="43.19732" lon="5.77128">
        <ele>131.39999389648</ele>
        <time>2016-10-28T12:21:03.000Z</time>
      </trkpt>
      <trkpt lat="43.19738" lon="5.7714">
        <ele>132.60000610352</ele>
        <time>2016-10-28T12:21:06.000Z</time>
      </trkpt>
      <trkpt lat="43.1974" lon="5.77143">
        <ele>133.19999694824</ele>
        <time>2016-10-28T12:21:07.000Z</time>
      </trkpt>
      <trkpt lat="43.19747" lon="5.77155">
        <ele>135.80000305176</ele>
        <time>2016-10-28T12:21:10.000Z</time>
      </trkpt>
      <trkpt lat="43.19753" lon="5.77169">
        <ele>138</ele>
        <time>2016-10-28T12:21:13.000Z</time>
      </trkpt>
      <trkpt lat="43.19754" lon="5.77174">
        <ele>138.39999389648</ele>
        <time>2016-10-28T12:21:14.000Z</time>
      </trkpt>
      <trkpt lat="43.19755" lon="5.77185">
        <ele>139</ele>
        <time>2016-10-28T12:21:16.000Z</time>
      </trkpt>
      <trkpt lat="43.19755" lon="5.77202">
        <ele>139.39999389648</ele>
        <time>2016-10-28T12:21:19.000Z</time>
      </trkpt>
      <trkpt lat="43.19755" lon="5.77224">
        <ele>140.19999694824</ele>
        <time>2016-10-28T12:21:23.000Z</time>
      </trkpt>
      <trkpt lat="43.19755" lon="5.77246">
        <ele>140.60000610352</ele>
        <time>2016-10-28T12:21:27.000Z</time>
      </trkpt>
      <trkpt lat="43.19754" lon="5.77262">
        <ele>141</ele>
        <time>2016-10-28T12:21:30.000Z</time>
      </trkpt>
      <trkpt lat="43.19755" lon="5.77271">
        <ele>141.39999389648</ele>
        <time>2016-10-28T12:21:32.000Z</time>
      </trkpt>
      <trkpt lat="43.19756" lon="5.77279">
        <ele>141.80000305176</ele>
        <time>2016-10-28T12:21:34.000Z</time>
      </trkpt>
      <trkpt lat="43.19758" lon="5.77295">
        <ele>142.80000305176</ele>
        <time>2016-10-28T12:21:38.000Z</time>
      </trkpt>
      <trkpt lat="43.19762" lon="5.77306">
        <ele>144</ele>
        <time>2016-10-28T12:21:41.000Z</time>
      </trkpt>
      <trkpt lat="43.19766" lon="5.77316">
        <ele>145.39999389648</ele>
        <time>2016-10-28T12:21:44.000Z</time>
      </trkpt>
      <trkpt lat="43.19767" lon="5.77319">
        <ele>145.80000305176</ele>
        <time>2016-10-28T12:21:45.000Z</time>
      </trkpt>
      <trkpt lat="43.19769" lon="5.77332">
        <ele>146.80000305176</ele>
        <time>2016-10-28T12:21:49.000Z</time>
      </trkpt>
      <trkpt lat="43.19769" lon="5.77339">
        <ele>147.39999389648</ele>
        <time>2016-10-28T12:21:51.000Z</time>
      </trkpt>
      <trkpt lat="43.19769" lon="5.77352">
        <ele>148.19999694824</ele>
        <time>2016-10-28T12:21:54.000Z</time>
      </trkpt>
      <trkpt lat="43.19768" lon="5.77373">
        <ele>149.19999694824</ele>
        <time>2016-10-28T12:21:58.000Z</time>
      </trkpt>
      <trkpt lat="43.19765" lon="5.77393">
        <ele>149.80000305176</ele>
        <time>2016-10-28T12:22:02.000Z</time>
      </trkpt>
      <trkpt lat="43.19763" lon="5.77404">
        <ele>150.39999389648</ele>
        <time>2016-10-28T12:22:05.000Z</time>
      </trkpt>
      <trkpt lat="43.19762" lon="5.77408">
        <ele>150.80000305176</ele>
        <time>2016-10-28T12:22:06.000Z</time>
      </trkpt>
      <trkpt lat="43.1976" lon="5.77422">
        <ele>151.60000610352</ele>
        <time>2016-10-28T12:22:09.000Z</time>
      </trkpt>
      <trkpt lat="43.19756" lon="5.77438">
        <ele>152.19999694824</ele>
        <time>2016-10-28T12:22:13.000Z</time>
      </trkpt>
      <trkpt lat="43.19751" lon="5.7746">
        <ele>153.19999694824</ele>
        <time>2016-10-28T12:22:18.000Z</time>
      </trkpt>
      <trkpt lat="43.19748" lon="5.77468">
        <ele>153.39999389648</ele>
        <time>2016-10-28T12:22:20.000Z</time>
      </trkpt>
      <trkpt lat="43.19741" lon="5.77479">
        <ele>154.19999694824</ele>
        <time>2016-10-28T12:22:23.000Z</time>
      </trkpt>
      <trkpt lat="43.19732" lon="5.77489">
        <ele>154.60000610352</ele>
        <time>2016-10-28T12:22:26.000Z</time>
      </trkpt>
      <trkpt lat="43.19729" lon="5.77492">
        <ele>154.60000610352</ele>
        <time>2016-10-28T12:22:27.000Z</time>
      </trkpt>
      <trkpt lat="43.1971" lon="5.77512">
        <ele>155</ele>
        <time>2016-10-28T12:22:33.000Z</time>
      </trkpt>
      <trkpt lat="43.19706" lon="5.77516">
        <ele>155</ele>
        <time>2016-10-28T12:22:34.000Z</time>
      </trkpt>
      <trkpt lat="43.19691" lon="5.77534">
        <ele>155</ele>
        <time>2016-10-28T12:22:39.000Z</time>
      </trkpt>
      <trkpt lat="43.19681" lon="5.77544">
        <ele>155</ele>
        <time>2016-10-28T12:22:42.000Z</time>
      </trkpt>
      <trkpt lat="43.19676" lon="5.77552">
        <ele>155.19999694824</ele>
        <time>2016-10-28T12:22:44.000Z</time>
      </trkpt>
      <trkpt lat="43.19674" lon="5.77562">
        <ele>156.19999694824</ele>
        <time>2016-10-28T12:22:46.000Z</time>
      </trkpt>
      <trkpt lat="43.19675" lon="5.77566">
        <ele>157</ele>
        <time>2016-10-28T12:22:47.000Z</time>
      </trkpt>
      <trkpt lat="43.19682" lon="5.77569">
        <ele>158.60000610352</ele>
        <time>2016-10-28T12:22:49.000Z</time>
      </trkpt>
      <trkpt lat="43.19685" lon="5.77567">
        <ele>159</ele>
        <time>2016-10-28T12:22:50.000Z</time>
      </trkpt>
      <trkpt lat="43.19692" lon="5.77563">
        <ele>159.60000610352</ele>
        <time>2016-10-28T12:22:52.000Z</time>
      </trkpt>
      <trkpt lat="43.19702" lon="5.77555">
        <ele>160.39999389648</ele>
        <time>2016-10-28T12:22:55.000Z</time>
      </trkpt>
      <trkpt lat="43.19717" lon="5.77548">
        <ele>162</ele>
        <time>2016-10-28T12:22:59.000Z</time>
      </trkpt>
      <trkpt lat="43.19721" lon="5.77548">
        <ele>162.60000610352</ele>
        <time>2016-10-28T12:23:00.000Z</time>
      </trkpt>
      <trkpt lat="43.19732" lon="5.77548">
        <ele>164.60000610352</ele>
        <time>2016-10-28T12:23:03.000Z</time>
      </trkpt>
      <trkpt lat="43.19744" lon="5.77547">
        <ele>166.60000610352</ele>
        <time>2016-10-28T12:23:06.000Z</time>
      </trkpt>
      <trkpt lat="43.19748" lon="5.77547">
        <ele>167.39999389648</ele>
        <time>2016-10-28T12:23:07.000Z</time>
      </trkpt>
      <trkpt lat="43.1976" lon="5.77546">
        <ele>169.19999694824</ele>
        <time>2016-10-28T12:23:10.000Z</time>
      </trkpt>
      <trkpt lat="43.19776" lon="5.77545">
        <ele>170.39999389648</ele>
        <time>2016-10-28T12:23:14.000Z</time>
      </trkpt>
      <trkpt lat="43.1978" lon="5.77545">
        <ele>170.80000305176</ele>
        <time>2016-10-28T12:23:15.000Z</time>
      </trkpt>
      <trkpt lat="43.19783" lon="5.77544">
        <ele>171</ele>
        <time>2016-10-28T12:23:16.000Z</time>
      </trkpt>
      <trkpt lat="43.19794" lon="5.77543">
        <ele>171.60000610352</ele>
        <time>2016-10-28T12:23:19.000Z</time>
      </trkpt>
      <trkpt lat="43.19808" lon="5.77541">
        <ele>172.39999389648</ele>
        <time>2016-10-28T12:23:23.000Z</time>
      </trkpt>
      <trkpt lat="43.19822" lon="5.77542">
        <ele>173.80000305176</ele>
        <time>2016-10-28T12:23:27.000Z</time>
      </trkpt>
      <trkpt lat="43.19835" lon="5.7754">
        <ele>174.60000610352</ele>
        <time>2016-10-28T12:23:30.000Z</time>
      </trkpt>
      <trkpt lat="43.1984" lon="5.7754">
        <ele>175</ele>
        <time>2016-10-28T12:23:31.000Z</time>
      </trkpt>
      <trkpt lat="43.19849" lon="5.7754">
        <ele>175.19999694824</ele>
        <time>2016-10-28T12:23:33.000Z</time>
      </trkpt>
      <trkpt lat="43.19858" lon="5.77544">
        <ele>175.39999389648</ele>
        <time>2016-10-28T12:23:35.000Z</time>
      </trkpt>
      <trkpt lat="43.19862" lon="5.77546">
        <ele>175.60000610352</ele>
        <time>2016-10-28T12:23:36.000Z</time>
      </trkpt>
      <trkpt lat="43.1987" lon="5.77557">
        <ele>177.19999694824</ele>
        <time>2016-10-28T12:23:39.000Z</time>
      </trkpt>
      <trkpt lat="43.19872" lon="5.77561">
        <ele>177.60000610352</ele>
        <time>2016-10-28T12:23:40.000Z</time>
      </trkpt>
      <trkpt lat="43.19877" lon="5.77569">
        <ele>178.39999389648</ele>
        <time>2016-10-28T12:23:42.000Z</time>
      </trkpt>
      <trkpt lat="43.19884" lon="5.77581">
        <ele>179.60000610352</ele>
        <time>2016-10-28T12:23:45.000Z</time>
      </trkpt>
      <trkpt lat="43.19891" lon="5.77591">
        <ele>180.60000610352</ele>
        <time>2016-10-28T12:23:48.000Z</time>
      </trkpt>
      <trkpt lat="43.19894" lon="5.77595">
        <ele>181</ele>
        <time>2016-10-28T12:23:49.000Z</time>
      </trkpt>
      <trkpt lat="43.19903" lon="5.7761">
        <ele>182.60000610352</ele>
        <time>2016-10-28T12:23:53.000Z</time>
      </trkpt>
      <trkpt lat="43.19908" lon="5.77619">
        <ele>183.39999389648</ele>
        <time>2016-10-28T12:23:55.000Z</time>
      </trkpt>
      <trkpt lat="43.19913" lon="5.77627">
        <ele>184.39999389648</ele>
        <time>2016-10-28T12:23:57.000Z</time>
      </trkpt>
      <trkpt lat="43.19923" lon="5.77643">
        <ele>186</ele>
        <time>2016-10-28T12:24:01.000Z</time>
      </trkpt>
      <trkpt lat="43.19925" lon="5.77647">
        <ele>186.60000610352</ele>
        <time>2016-10-28T12:24:02.000Z</time>
      </trkpt>
      <trkpt lat="43.19934" lon="5.7766">
        <ele>188.60000610352</ele>
        <time>2016-10-28T12:24:05.000Z</time>
      </trkpt>
      <trkpt lat="43.19944" lon="5.77677">
        <ele>191.80000305176</ele>
        <time>2016-10-28T12:24:09.000Z</time>
      </trkpt>
      <trkpt lat="43.19947" lon="5.7768">
        <ele>192.39999389648</ele>
        <time>2016-10-28T12:24:10.000Z</time>
      </trkpt>
      <trkpt lat="43.19957" lon="5.77686">
        <ele>193.80000305176</ele>
        <time>2016-10-28T12:24:13.000Z</time>
      </trkpt>
      <trkpt lat="43.19968" lon="5.77685">
        <ele>194.19999694824</ele>
        <time>2016-10-28T12:24:16.000Z</time>
      </trkpt>
      <trkpt lat="43.19972" lon="5.77684">
        <ele>194.19999694824</ele>
        <time>2016-10-28T12:24:17.000Z</time>
      </trkpt>
      <trkpt lat="43.19979" lon="5.7768">
        <ele>194</ele>
        <time>2016-10-28T12:24:19.000Z</time>
      </trkpt>
      <trkpt lat="43.19989" lon="5.77673">
        <ele>193.39999389648</ele>
        <time>2016-10-28T12:24:22.000Z</time>
      </trkpt>
      <trkpt lat="43.19999" lon="5.77668">
        <ele>193</ele>
        <time>2016-10-28T12:24:25.000Z</time>
      </trkpt>
      <trkpt lat="43.20009" lon="5.77664">
        <ele>193</ele>
        <time>2016-10-28T12:24:28.000Z</time>
      </trkpt>
      <trkpt lat="43.20023" lon="5.77659">
        <ele>193.19999694824</ele>
        <time>2016-10-28T12:24:32.000Z</time>
      </trkpt>
      <trkpt lat="43.20037" lon="5.77656">
        <ele>194</ele>
        <time>2016-10-28T12:24:36.000Z</time>
      </trkpt>
      <trkpt lat="43.20051" lon="5.77653">
        <ele>195.19999694824</ele>
        <time>2016-10-28T12:24:40.000Z</time>
      </trkpt>
      <trkpt lat="43.20054" lon="5.77652">
        <ele>195.39999389648</ele>
        <time>2016-10-28T12:24:41.000Z</time>
      </trkpt>
      <trkpt lat="43.20066" lon="5.7765">
        <ele>196.39999389648</ele>
        <time>2016-10-28T12:24:44.000Z</time>
      </trkpt>
      <trkpt lat="43.20086" lon="5.77649">
        <ele>198.39999389648</ele>
        <time>2016-10-28T12:24:49.000Z</time>
      </trkpt>
      <trkpt lat="43.20097" lon="5.77646">
        <ele>199.39999389648</ele>
        <time>2016-10-28T12:24:52.000Z</time>
      </trkpt>
      <trkpt lat="43.20113" lon="5.77639">
        <ele>201.80000305176</ele>
        <time>2016-10-28T12:24:56.000Z</time>
      </trkpt>
      <trkpt lat="43.20132" lon="5.77619">
        <ele>202.80000305176</ele>
        <time>2016-10-28T12:25:02.000Z</time>
      </trkpt>
      <trkpt lat="43.20141" lon="5.77601">
        <ele>201.60000610352</ele>
        <time>2016-10-28T12:25:06.000Z</time>
      </trkpt>
      <trkpt lat="43.20145" lon="5.77591">
        <ele>202.19999694824</ele>
        <time>2016-10-28T12:25:08.000Z</time>
      </trkpt>
      <trkpt lat="43.20146" lon="5.77586">
        <ele>202.19999694824</ele>
        <time>2016-10-28T12:25:09.000Z</time>
      </trkpt>
      <trkpt lat="43.20154" lon="5.77559">
        <ele>202.80000305176</ele>
        <time>2016-10-28T12:25:15.000Z</time>
      </trkpt>
      <trkpt lat="43.2016" lon="5.77547">
        <ele>203.19999694824</ele>
        <time>2016-10-28T12:25:18.000Z</time>
      </trkpt>
      <trkpt lat="43.20162" lon="5.77546">
        <ele>204</ele>
        <time>2016-10-28T12:25:19.000Z</time>
      </trkpt>
      <trkpt lat="43.20165" lon="5.77549">
        <ele>205.19999694824</ele>
        <time>2016-10-28T12:25:20.000Z</time>
      </trkpt>
      <trkpt lat="43.20166" lon="5.77559">
        <ele>206.39999389648</ele>
        <time>2016-10-28T12:25:22.000Z</time>
      </trkpt>
      <trkpt lat="43.20165" lon="5.77564">
        <ele>206.60000610352</ele>
        <time>2016-10-28T12:25:23.000Z</time>
      </trkpt>
      <trkpt lat="43.20164" lon="5.77576">
        <ele>207</ele>
        <time>2016-10-28T12:25:25.000Z</time>
      </trkpt>
      <trkpt lat="43.20163" lon="5.77594">
        <ele>208.19999694824</ele>
        <time>2016-10-28T12:25:28.000Z</time>
      </trkpt>
      <trkpt lat="43.20164" lon="5.776">
        <ele>208.60000610352</ele>
        <time>2016-10-28T12:25:29.000Z</time>
      </trkpt>
      <trkpt lat="43.20165" lon="5.77619">
        <ele>210.39999389648</ele>
        <time>2016-10-28T12:25:32.000Z</time>
      </trkpt>
      <trkpt lat="43.20167" lon="5.77636">
        <ele>213.19999694824</ele>
        <time>2016-10-28T12:25:35.000Z</time>
      </trkpt>
      <trkpt lat="43.20169" lon="5.77653">
        <ele>215</ele>
        <time>2016-10-28T12:25:38.000Z</time>
      </trkpt>
      <trkpt lat="43.20171" lon="5.7767">
        <ele>216.39999389648</ele>
        <time>2016-10-28T12:25:41.000Z</time>
      </trkpt>
      <trkpt lat="43.20172" lon="5.77686">
        <ele>217.60000610352</ele>
        <time>2016-10-28T12:25:44.000Z</time>
      </trkpt>
      <trkpt lat="43.20172" lon="5.77696">
        <ele>218</ele>
        <time>2016-10-28T12:25:46.000Z</time>
      </trkpt>
      <trkpt lat="43.20172" lon="5.777">
        <ele>218.19999694824</ele>
        <time>2016-10-28T12:25:47.000Z</time>
      </trkpt>
      <trkpt lat="43.20169" lon="5.77713">
        <ele>218.60000610352</ele>
        <time>2016-10-28T12:25:50.000Z</time>
      </trkpt>
      <trkpt lat="43.20165" lon="5.7772">
        <ele>219</ele>
        <time>2016-10-28T12:25:52.000Z</time>
      </trkpt>
      <trkpt lat="43.20163" lon="5.77723">
        <ele>219</ele>
        <time>2016-10-28T12:25:53.000Z</time>
      </trkpt>
      <trkpt lat="43.20156" lon="5.77732">
        <ele>218.80000305176</ele>
        <time>2016-10-28T12:25:56.000Z</time>
      </trkpt>
      <trkpt lat="43.20146" lon="5.77742">
        <ele>218.39999389648</ele>
        <time>2016-10-28T12:25:59.000Z</time>
      </trkpt>
      <trkpt lat="43.20137" lon="5.77764">
        <ele>219.19999694824</ele>
        <time>2016-10-28T12:26:04.000Z</time>
      </trkpt>
      <trkpt lat="43.20145" lon="5.77781">
        <ele>222.60000610352</ele>
        <time>2016-10-28T12:26:08.000Z</time>
      </trkpt>
      <trkpt lat="43.20155" lon="5.77785">
        <ele>224</ele>
        <time>2016-10-28T12:26:11.000Z</time>
      </trkpt>
      <trkpt lat="43.20159" lon="5.77784">
        <ele>224.19999694824</ele>
        <time>2016-10-28T12:26:12.000Z</time>
      </trkpt>
      <trkpt lat="43.2017" lon="5.7778">
        <ele>225.39999389648</ele>
        <time>2016-10-28T12:26:15.000Z</time>
      </trkpt>
      <trkpt lat="43.20179" lon="5.77773">
        <ele>226</ele>
        <time>2016-10-28T12:26:18.000Z</time>
      </trkpt>
      <trkpt lat="43.20182" lon="5.77771">
        <ele>226</ele>
        <time>2016-10-28T12:26:19.000Z</time>
      </trkpt>
      <trkpt lat="43.20193" lon="5.77763">
        <ele>226</ele>
        <time>2016-10-28T12:26:23.000Z</time>
      </trkpt>
      <trkpt lat="43.20198" lon="5.77762">
        <ele>226.39999389648</ele>
        <time>2016-10-28T12:26:25.000Z</time>
      </trkpt>
      <trkpt lat="43.20201" lon="5.77762">
        <ele>226.60000610352</ele>
        <time>2016-10-28T12:26:26.000Z</time>
      </trkpt>
      <trkpt lat="43.20203" lon="5.77765">
        <ele>227</ele>
        <time>2016-10-28T12:26:27.000Z</time>
      </trkpt>
      <trkpt lat="43.20205" lon="5.7777">
        <ele>227.60000610352</ele>
        <time>2016-10-28T12:26:29.000Z</time>
      </trkpt>
      <trkpt lat="43.20204" lon="5.77773">
        <ele>227.80000305176</ele>
        <time>2016-10-28T12:26:30.000Z</time>
      </trkpt>
      <trkpt lat="43.20202" lon="5.77779">
        <ele>228.19999694824</ele>
        <time>2016-10-28T12:26:32.000Z</time>
      </trkpt>
      <trkpt lat="43.20198" lon="5.77784">
        <ele>228.39999389648</ele>
        <time>2016-10-28T12:26:34.000Z</time>
      </trkpt>
      <trkpt lat="43.20195" lon="5.77791">
        <ele>228.80000305176</ele>
        <time>2016-10-28T12:26:36.000Z</time>
      </trkpt>
      <trkpt lat="43.20191" lon="5.77797">
        <ele>229.19999694824</ele>
        <time>2016-10-28T12:26:38.000Z</time>
      </trkpt>
      <trkpt lat="43.20189" lon="5.77805">
        <ele>229.80000305176</ele>
        <time>2016-10-28T12:26:40.000Z</time>
      </trkpt>
      <trkpt lat="43.20192" lon="5.77809">
        <ele>230.39999389648</ele>
        <time>2016-10-28T12:26:42.000Z</time>
      </trkpt>
      <trkpt lat="43.20194" lon="5.77808">
        <ele>230.39999389648</ele>
        <time>2016-10-28T12:26:43.000Z</time>
      </trkpt>
      <trkpt lat="43.20199" lon="5.77802">
        <ele>230.19999694824</ele>
        <time>2016-10-28T12:26:45.000Z</time>
      </trkpt>
      <trkpt lat="43.20202" lon="5.77799">
        <ele>230</ele>
        <time>2016-10-28T12:26:46.000Z</time>
      </trkpt>
      <trkpt lat="43.20207" lon="5.77792">
        <ele>229.80000305176</ele>
        <time>2016-10-28T12:26:48.000Z</time>
      </trkpt>
      <trkpt lat="43.2022" lon="5.77767">
        <ele>228.39999389648</ele>
        <time>2016-10-28T12:26:54.000Z</time>
      </trkpt>
      <trkpt lat="43.20227" lon="5.77753">
        <ele>229.80000305176</ele>
        <time>2016-10-28T12:26:58.000Z</time>
      </trkpt>
      <trkpt lat="43.20233" lon="5.77751">
        <ele>231</ele>
        <time>2016-10-28T12:27:00.000Z</time>
      </trkpt>
      <trkpt lat="43.2024" lon="5.77757">
        <ele>232.39999389648</ele>
        <time>2016-10-28T12:27:03.000Z</time>
      </trkpt>
      <trkpt lat="43.20242" lon="5.7776">
        <ele>232.60000610352</ele>
        <time>2016-10-28T12:27:04.000Z</time>
      </trkpt>
      <trkpt lat="43.20247" lon="5.77766">
        <ele>233.39999389648</ele>
        <time>2016-10-28T12:27:06.000Z</time>
      </trkpt>
      <trkpt lat="43.20251" lon="5.77767">
        <ele>234.19999694824</ele>
        <time>2016-10-28T12:27:07.000Z</time>
      </trkpt>
      <trkpt lat="43.20255" lon="5.77766">
        <ele>235</ele>
        <time>2016-10-28T12:27:08.000Z</time>
      </trkpt>
      <trkpt lat="43.20259" lon="5.77763">
        <ele>236</ele>
        <time>2016-10-28T12:27:09.000Z</time>
      </trkpt>
      <trkpt lat="43.2027" lon="5.77756">
        <ele>236.19999694824</ele>
        <time>2016-10-28T12:27:12.000Z</time>
      </trkpt>
      <trkpt lat="43.20274" lon="5.77755">
        <ele>236</ele>
        <time>2016-10-28T12:27:13.000Z</time>
      </trkpt>
      <trkpt lat="43.20281" lon="5.77752">
        <ele>235.60000610352</ele>
        <time>2016-10-28T12:27:15.000Z</time>
      </trkpt>
      <trkpt lat="43.20284" lon="5.77751">
        <ele>235.39999389648</ele>
        <time>2016-10-28T12:27:16.000Z</time>
      </trkpt>
      <trkpt lat="43.20293" lon="5.77746">
        <ele>235.39999389648</ele>
        <time>2016-10-28T12:27:19.000Z</time>
      </trkpt>
      <trkpt lat="43.20298" lon="5.77742">
        <ele>236.19999694824</ele>
        <time>2016-10-28T12:27:22.000Z</time>
      </trkpt>
      <trkpt lat="43.20297" lon="5.7774">
        <ele>236.39999389648</ele>
        <time>2016-10-28T12:27:23.000Z</time>
      </trkpt>
      <trkpt lat="43.20291" lon="5.7774">
        <ele>236.19999694824</ele>
        <time>2016-10-28T12:27:25.000Z</time>
      </trkpt>
      <trkpt lat="43.20288" lon="5.77741">
        <ele>236</ele>
        <time>2016-10-28T12:27:26.000Z</time>
      </trkpt>
      <trkpt lat="43.20277" lon="5.77745">
        <ele>236</ele>
        <time>2016-10-28T12:27:29.000Z</time>
      </trkpt>
      <trkpt lat="43.20267" lon="5.77745">
        <ele>236.80000305176</ele>
        <time>2016-10-28T12:27:32.000Z</time>
      </trkpt>
      <trkpt lat="43.20258" lon="5.77744">
        <ele>236.39999389648</ele>
        <time>2016-10-28T12:27:37.000Z</time>
      </trkpt>
      <trkpt lat="43.20254" lon="5.77743">
        <ele>235.60000610352</ele>
        <time>2016-10-28T12:27:40.000Z</time>
      </trkpt>
      <trkpt lat="43.20253" lon="5.77741">
        <ele>235.60000610352</ele>
        <time>2016-10-28T12:27:41.000Z</time>
      </trkpt>
      <trkpt lat="43.20253" lon="5.77739">
        <ele>235.39999389648</ele>
        <time>2016-10-28T12:27:42.000Z</time>
      </trkpt>
      <trkpt lat="43.20249" lon="5.77725">
        <ele>235.19999694824</ele>
        <time>2016-10-28T12:29:40.000Z</time>
      </trkpt>
      <trkpt lat="43.20246" lon="5.7771">
        <ele>234.19999694824</ele>
        <time>2016-10-28T12:29:44.000Z</time>
      </trkpt>
      <trkpt lat="43.20245" lon="5.777">
        <ele>233.80000305176</ele>
        <time>2016-10-28T12:29:46.000Z</time>
      </trkpt>
      <trkpt lat="43.20243" lon="5.77684">
        <ele>233.80000305176</ele>
        <time>2016-10-28T12:29:49.000Z</time>
      </trkpt>
      <trkpt lat="43.20242" lon="5.77678">
        <ele>233.80000305176</ele>
        <time>2016-10-28T12:29:50.000Z</time>
      </trkpt>
      <trkpt lat="43.20241" lon="5.77672">
        <ele>234</ele>
        <time>2016-10-28T12:29:51.000Z</time>
      </trkpt>
      <trkpt lat="43.20239" lon="5.77659">
        <ele>234</ele>
        <time>2016-10-28T12:29:53.000Z</time>
      </trkpt>
      <trkpt lat="43.20237" lon="5.77647">
        <ele>234</ele>
        <time>2016-10-28T12:29:55.000Z</time>
      </trkpt>
      <trkpt lat="43.20235" lon="5.77636">
        <ele>233.60000610352</ele>
        <time>2016-10-28T12:29:57.000Z</time>
      </trkpt>
      <trkpt lat="43.20234" lon="5.7763">
        <ele>233</ele>
        <time>2016-10-28T12:29:58.000Z</time>
      </trkpt>
      <trkpt lat="43.20233" lon="5.77617">
        <ele>231.39999389648</ele>
        <time>2016-10-28T12:30:01.000Z</time>
      </trkpt>
      <trkpt lat="43.20232" lon="5.77607">
        <ele>230.60000610352</ele>
        <time>2016-10-28T12:30:04.000Z</time>
      </trkpt>
      <trkpt lat="43.2023" lon="5.77606">
        <ele>229.80000305176</ele>
        <time>2016-10-28T12:30:05.000Z</time>
      </trkpt>
      <trkpt lat="43.20225" lon="5.77606">
        <ele>228.19999694824</ele>
        <time>2016-10-28T12:30:07.000Z</time>
      </trkpt>
      <trkpt lat="43.20224" lon="5.77614">
        <ele>228.60000610352</ele>
        <time>2016-10-28T12:30:10.000Z</time>
      </trkpt>
      <trkpt lat="43.20227" lon="5.77635">
        <ele>231</ele>
        <time>2016-10-28T12:30:15.000Z</time>
      </trkpt>
      <trkpt lat="43.20227" lon="5.77642">
        <ele>231.19999694824</ele>
        <time>2016-10-28T12:30:16.000Z</time>
      </trkpt>
      <trkpt lat="43.2023" lon="5.77669">
        <ele>230.60000610352</ele>
        <time>2016-10-28T12:30:20.000Z</time>
      </trkpt>
      <trkpt lat="43.20229" lon="5.77682">
        <ele>229.60000610352</ele>
        <time>2016-10-28T12:30:22.000Z</time>
      </trkpt>
      <trkpt lat="43.20227" lon="5.77697">
        <ele>229.39999389648</ele>
        <time>2016-10-28T12:30:24.000Z</time>
      </trkpt>
      <trkpt lat="43.20224" lon="5.77717">
        <ele>230.19999694824</ele>
        <time>2016-10-28T12:30:27.000Z</time>
      </trkpt>
      <trkpt lat="43.20222" lon="5.7773">
        <ele>229.60000610352</ele>
        <time>2016-10-28T12:30:29.000Z</time>
      </trkpt>
      <trkpt lat="43.20221" lon="5.77736">
        <ele>229.19999694824</ele>
        <time>2016-10-28T12:30:30.000Z</time>
      </trkpt>
      <trkpt lat="43.20217" lon="5.77751">
        <ele>227.80000305176</ele>
        <time>2016-10-28T12:30:33.000Z</time>
      </trkpt>
      <trkpt lat="43.20215" lon="5.77755">
        <ele>227.19999694824</ele>
        <time>2016-10-28T12:30:34.000Z</time>
      </trkpt>
      <trkpt lat="43.20211" lon="5.77757">
        <ele>226.80000305176</ele>
        <time>2016-10-28T12:30:35.000Z</time>
      </trkpt>
      <trkpt lat="43.20197" lon="5.77763">
        <ele>226.39999389648</ele>
        <time>2016-10-28T12:30:38.000Z</time>
      </trkpt>
      <trkpt lat="43.20187" lon="5.77766">
        <ele>226</ele>
        <time>2016-10-28T12:30:40.000Z</time>
      </trkpt>
      <trkpt lat="43.20182" lon="5.7777">
        <ele>225.80000305176</ele>
        <time>2016-10-28T12:30:41.000Z</time>
      </trkpt>
      <trkpt lat="43.20177" lon="5.77774">
        <ele>225.80000305176</ele>
        <time>2016-10-28T12:30:42.000Z</time>
      </trkpt>
      <trkpt lat="43.20171" lon="5.77778">
        <ele>225.39999389648</ele>
        <time>2016-10-28T12:30:43.000Z</time>
      </trkpt>
      <trkpt lat="43.20166" lon="5.77781">
        <ele>225</ele>
        <time>2016-10-28T12:30:44.000Z</time>
      </trkpt>
      <trkpt lat="43.2016" lon="5.77783">
        <ele>224.39999389648</ele>
        <time>2016-10-28T12:30:45.000Z</time>
      </trkpt>
      <trkpt lat="43.20154" lon="5.77783">
        <ele>223.60000610352</ele>
        <time>2016-10-28T12:30:46.000Z</time>
      </trkpt>
      <trkpt lat="43.20148" lon="5.77783">
        <ele>223.19999694824</ele>
        <time>2016-10-28T12:30:47.000Z</time>
      </trkpt>
      <trkpt lat="43.20144" lon="5.7778">
        <ele>222.39999389648</ele>
        <time>2016-10-28T12:30:48.000Z</time>
      </trkpt>
      <trkpt lat="43.20142" lon="5.77764">
        <ele>220</ele>
        <time>2016-10-28T12:30:50.000Z</time>
      </trkpt>
      <trkpt lat="43.20143" lon="5.77757">
        <ele>219.39999389648</ele>
        <time>2016-10-28T12:30:51.000Z</time>
      </trkpt>
      <trkpt lat="43.2015" lon="5.77743">
        <ele>219</ele>
        <time>2016-10-28T12:30:53.000Z</time>
      </trkpt>
      <trkpt lat="43.20161" lon="5.7773">
        <ele>219.39999389648</ele>
        <time>2016-10-28T12:30:55.000Z</time>
      </trkpt>
      <trkpt lat="43.20166" lon="5.77722">
        <ele>219.19999694824</ele>
        <time>2016-10-28T12:30:56.000Z</time>
      </trkpt>
      <trkpt lat="43.2017" lon="5.77713">
        <ele>218.60000610352</ele>
        <time>2016-10-28T12:30:57.000Z</time>
      </trkpt>
      <trkpt lat="43.20174" lon="5.77692">
        <ele>218.19999694824</ele>
        <time>2016-10-28T12:30:59.000Z</time>
      </trkpt>
      <trkpt lat="43.20173" lon="5.7767">
        <ele>216.80000305176</ele>
        <time>2016-10-28T12:31:01.000Z</time>
      </trkpt>
      <trkpt lat="43.20171" lon="5.77647">
        <ele>215</ele>
        <time>2016-10-28T12:31:03.000Z</time>
      </trkpt>
      <trkpt lat="43.20169" lon="5.77625">
        <ele>212</ele>
        <time>2016-10-28T12:31:05.000Z</time>
      </trkpt>
      <trkpt lat="43.20167" lon="5.77603">
        <ele>210</ele>
        <time>2016-10-28T12:31:07.000Z</time>
      </trkpt>
      <trkpt lat="43.20168" lon="5.77583">
        <ele>208.80000305176</ele>
        <time>2016-10-28T12:31:09.000Z</time>
      </trkpt>
      <trkpt lat="43.20169" lon="5.77563">
        <ele>207.80000305176</ele>
        <time>2016-10-28T12:31:11.000Z</time>
      </trkpt>
      <trkpt lat="43.20169" lon="5.77552">
        <ele>206.80000305176</ele>
        <time>2016-10-28T12:31:12.000Z</time>
      </trkpt>
      <trkpt lat="43.20167" lon="5.77532">
        <ele>203.60000610352</ele>
        <time>2016-10-28T12:31:14.000Z</time>
      </trkpt>
      <trkpt lat="43.20167" lon="5.77522">
        <ele>202.19999694824</ele>
        <time>2016-10-28T12:31:15.000Z</time>
      </trkpt>
      <trkpt lat="43.20168" lon="5.77503">
        <ele>200.19999694824</ele>
        <time>2016-10-28T12:31:17.000Z</time>
      </trkpt>
      <trkpt lat="43.20171" lon="5.77495">
        <ele>199.80000305176</ele>
        <time>2016-10-28T12:31:18.000Z</time>
      </trkpt>
      <trkpt lat="43.20174" lon="5.77488">
        <ele>199.80000305176</ele>
        <time>2016-10-28T12:31:19.000Z</time>
      </trkpt>
      <trkpt lat="43.20188" lon="5.77469">
        <ele>201.19999694824</ele>
        <time>2016-10-28T12:31:22.000Z</time>
      </trkpt>
      <trkpt lat="43.20194" lon="5.77463">
        <ele>201.60000610352</ele>
        <time>2016-10-28T12:31:23.000Z</time>
      </trkpt>
      <trkpt lat="43.20211" lon="5.77445">
        <ele>202.39999389648</ele>
        <time>2016-10-28T12:31:26.000Z</time>
      </trkpt>
      <trkpt lat="43.2023" lon="5.77426">
        <ele>203</ele>
        <time>2016-10-28T12:31:29.000Z</time>
      </trkpt>
      <trkpt lat="43.20248" lon="5.77407">
        <ele>202.19999694824</ele>
        <time>2016-10-28T12:31:32.000Z</time>
      </trkpt>
      <trkpt lat="43.2026" lon="5.77395">
        <ele>201.60000610352</ele>
        <time>2016-10-28T12:31:34.000Z</time>
      </trkpt>
      <trkpt lat="43.20271" lon="5.77384">
        <ele>198.60000610352</ele>
        <time>2016-10-28T12:31:36.000Z</time>
      </trkpt>
      <trkpt lat="43.20276" lon="5.7738">
        <ele>197.39999389648</ele>
        <time>2016-10-28T12:31:37.000Z</time>
      </trkpt>
      <trkpt lat="43.2029" lon="5.77378">
        <ele>196.19999694824</ele>
        <time>2016-10-28T12:31:39.000Z</time>
      </trkpt>
      <trkpt lat="43.20297" lon="5.7738">
        <ele>196.60000610352</ele>
        <time>2016-10-28T12:31:40.000Z</time>
      </trkpt>
      <trkpt lat="43.20311" lon="5.77388">
        <ele>198.39999389648</ele>
        <time>2016-10-28T12:31:42.000Z</time>
      </trkpt>
      <trkpt lat="43.20318" lon="5.77393">
        <ele>199.80000305176</ele>
        <time>2016-10-28T12:31:43.000Z</time>
      </trkpt>
      <trkpt lat="43.20325" lon="5.77399">
        <ele>201.39999389648</ele>
        <time>2016-10-28T12:31:44.000Z</time>
      </trkpt>
      <trkpt lat="43.20331" lon="5.77405">
        <ele>203.19999694824</ele>
        <time>2016-10-28T12:31:45.000Z</time>
      </trkpt>
      <trkpt lat="43.20353" lon="5.77425">
        <ele>207</ele>
        <time>2016-10-28T12:31:48.000Z</time>
      </trkpt>
      <trkpt lat="43.20369" lon="5.7744">
        <ele>206.60000610352</ele>
        <time>2016-10-28T12:31:50.000Z</time>
      </trkpt>
      <trkpt lat="43.20386" lon="5.77455">
        <ele>206.19999694824</ele>
        <time>2016-10-28T12:31:52.000Z</time>
      </trkpt>
      <trkpt lat="43.20402" lon="5.77471">
        <ele>205.80000305176</ele>
        <time>2016-10-28T12:31:54.000Z</time>
      </trkpt>
      <trkpt lat="43.20419" lon="5.77486">
        <ele>204.80000305176</ele>
        <time>2016-10-28T12:31:56.000Z</time>
      </trkpt>
      <trkpt lat="43.20437" lon="5.77503">
        <ele>202.39999389648</ele>
        <time>2016-10-28T12:31:58.000Z</time>
      </trkpt>
      <trkpt lat="43.20455" lon="5.77519">
        <ele>198.80000305176</ele>
        <time>2016-10-28T12:32:00.000Z</time>
      </trkpt>
      <trkpt lat="43.20471" lon="5.77535">
        <ele>195.39999389648</ele>
        <time>2016-10-28T12:32:02.000Z</time>
      </trkpt>
      <trkpt lat="43.20486" lon="5.77555">
        <ele>193.80000305176</ele>
        <time>2016-10-28T12:32:04.000Z</time>
      </trkpt>
      <trkpt lat="43.20493" lon="5.77566">
        <ele>192.19999694824</ele>
        <time>2016-10-28T12:32:05.000Z</time>
      </trkpt>
      <trkpt lat="43.20502" lon="5.7759">
        <ele>190.39999389648</ele>
        <time>2016-10-28T12:32:07.000Z</time>
      </trkpt>
      <trkpt lat="43.20511" lon="5.77613">
        <ele>189</ele>
        <time>2016-10-28T12:32:09.000Z</time>
      </trkpt>
      <trkpt lat="43.20523" lon="5.77644">
        <ele>190</ele>
        <time>2016-10-28T12:32:12.000Z</time>
      </trkpt>
      <trkpt lat="43.20526" lon="5.77654">
        <ele>191.80000305176</ele>
        <time>2016-10-28T12:32:13.000Z</time>
      </trkpt>
      <trkpt lat="43.20529" lon="5.77675">
        <ele>193.60000610352</ele>
        <time>2016-10-28T12:32:15.000Z</time>
      </trkpt>
      <trkpt lat="43.20528" lon="5.77695">
        <ele>196.19999694824</ele>
        <time>2016-10-28T12:32:17.000Z</time>
      </trkpt>
      <trkpt lat="43.20534" lon="5.77726">
        <ele>199.60000610352</ele>
        <time>2016-10-28T12:32:21.000Z</time>
      </trkpt>
      <trkpt lat="43.2054" lon="5.77726">
        <ele>198.80000305176</ele>
        <time>2016-10-28T12:32:22.000Z</time>
      </trkpt>
      <trkpt lat="43.20545" lon="5.77724">
        <ele>197.39999389648</ele>
        <time>2016-10-28T12:32:23.000Z</time>
      </trkpt>
      <trkpt lat="43.20557" lon="5.77717">
        <ele>194.39999389648</ele>
        <time>2016-10-28T12:32:25.000Z</time>
      </trkpt>
      <trkpt lat="43.20569" lon="5.77708">
        <ele>191.39999389648</ele>
        <time>2016-10-28T12:32:27.000Z</time>
      </trkpt>
      <trkpt lat="43.20582" lon="5.777">
        <ele>187</ele>
        <time>2016-10-28T12:32:29.000Z</time>
      </trkpt>
      <trkpt lat="43.20602" lon="5.77689">
        <ele>179.19999694824</ele>
        <time>2016-10-28T12:32:32.000Z</time>
      </trkpt>
      <trkpt lat="43.20616" lon="5.77684">
        <ele>177</ele>
        <time>2016-10-28T12:32:34.000Z</time>
      </trkpt>
      <trkpt lat="43.20631" lon="5.77683">
        <ele>176.19999694824</ele>
        <time>2016-10-28T12:32:36.000Z</time>
      </trkpt>
      <trkpt lat="43.20648" lon="5.77685">
        <ele>175.80000305176</ele>
        <time>2016-10-28T12:32:38.000Z</time>
      </trkpt>
      <trkpt lat="43.20665" lon="5.77689">
        <ele>175.60000610352</ele>
        <time>2016-10-28T12:32:40.000Z</time>
      </trkpt>
      <trkpt lat="43.20682" lon="5.77695">
        <ele>175</ele>
        <time>2016-10-28T12:32:42.000Z</time>
      </trkpt>
      <trkpt lat="43.20691" lon="5.77699">
        <ele>173.39999389648</ele>
        <time>2016-10-28T12:32:43.000Z</time>
      </trkpt>
      <trkpt lat="43.2071" lon="5.77713">
        <ele>171.60000610352</ele>
        <time>2016-10-28T12:32:45.000Z</time>
      </trkpt>
      <trkpt lat="43.20726" lon="5.77729">
        <ele>169.80000305176</ele>
        <time>2016-10-28T12:32:47.000Z</time>
      </trkpt>
      <trkpt lat="43.20733" lon="5.77739">
        <ele>168.39999389648</ele>
        <time>2016-10-28T12:32:48.000Z</time>
      </trkpt>
      <trkpt lat="43.20745" lon="5.77761">
        <ele>167</ele>
        <time>2016-10-28T12:32:50.000Z</time>
      </trkpt>
      <trkpt lat="43.20749" lon="5.77773">
        <ele>166.60000610352</ele>
        <time>2016-10-28T12:32:51.000Z</time>
      </trkpt>
      <trkpt lat="43.20754" lon="5.77785">
        <ele>166.39999389648</ele>
        <time>2016-10-28T12:32:52.000Z</time>
      </trkpt>
      <trkpt lat="43.20758" lon="5.77797">
        <ele>166.19999694824</ele>
        <time>2016-10-28T12:32:53.000Z</time>
      </trkpt>
      <trkpt lat="43.20768" lon="5.7782">
        <ele>164.39999389648</ele>
        <time>2016-10-28T12:32:55.000Z</time>
      </trkpt>
      <trkpt lat="43.20778" lon="5.77843">
        <ele>161.80000305176</ele>
        <time>2016-10-28T12:32:57.000Z</time>
      </trkpt>
      <trkpt lat="43.20789" lon="5.77867">
        <ele>159.39999389648</ele>
        <time>2016-10-28T12:32:59.000Z</time>
      </trkpt>
      <trkpt lat="43.20798" lon="5.7789">
        <ele>156.80000305176</ele>
        <time>2016-10-28T12:33:01.000Z</time>
      </trkpt>
      <trkpt lat="43.20809" lon="5.77913">
        <ele>152.80000305176</ele>
        <time>2016-10-28T12:33:03.000Z</time>
      </trkpt>
      <trkpt lat="43.20823" lon="5.77948">
        <ele>147.19999694824</ele>
        <time>2016-10-28T12:33:06.000Z</time>
      </trkpt>
      <trkpt lat="43.20828" lon="5.77959">
        <ele>145.19999694824</ele>
        <time>2016-10-28T12:33:07.000Z</time>
      </trkpt>
      <trkpt lat="43.20833" lon="5.7797">
        <ele>143.60000610352</ele>
        <time>2016-10-28T12:33:08.000Z</time>
      </trkpt>
      <trkpt lat="43.20842" lon="5.77994">
        <ele>142.19999694824</ele>
        <time>2016-10-28T12:33:10.000Z</time>
      </trkpt>
      <trkpt lat="43.20848" lon="5.78017">
        <ele>142.19999694824</ele>
        <time>2016-10-28T12:33:12.000Z</time>
      </trkpt>
      <trkpt lat="43.20854" lon="5.78039">
        <ele>143.19999694824</ele>
        <time>2016-10-28T12:33:14.000Z</time>
      </trkpt>
      <trkpt lat="43.20862" lon="5.7806">
        <ele>143.19999694824</ele>
        <time>2016-10-28T12:33:16.000Z</time>
      </trkpt>
      <trkpt lat="43.20867" lon="5.78068">
        <ele>142.39999389648</ele>
        <time>2016-10-28T12:33:17.000Z</time>
      </trkpt>
      <trkpt lat="43.20891" lon="5.78095">
        <ele>137.80000305176</ele>
        <time>2016-10-28T12:33:21.000Z</time>
      </trkpt>
      <trkpt lat="43.20902" lon="5.7811">
        <ele>136</ele>
        <time>2016-10-28T12:33:23.000Z</time>
      </trkpt>
      <trkpt lat="43.20905" lon="5.7812">
        <ele>135.80000305176</ele>
        <time>2016-10-28T12:33:24.000Z</time>
      </trkpt>
      <trkpt lat="43.2091" lon="5.78152">
        <ele>135.39999389648</ele>
        <time>2016-10-28T12:33:27.000Z</time>
      </trkpt>
      <trkpt lat="43.2091" lon="5.78164">
        <ele>135</ele>
        <time>2016-10-28T12:33:28.000Z</time>
      </trkpt>
      <trkpt lat="43.2091" lon="5.78186">
        <ele>134.39999389648</ele>
        <time>2016-10-28T12:33:30.000Z</time>
      </trkpt>
      <trkpt lat="43.20912" lon="5.78208">
        <ele>133.39999389648</ele>
        <time>2016-10-28T12:33:32.000Z</time>
      </trkpt>
      <trkpt lat="43.20914" lon="5.78218">
        <ele>132.39999389648</ele>
        <time>2016-10-28T12:33:33.000Z</time>
      </trkpt>
      <trkpt lat="43.20915" lon="5.78228">
        <ele>131.19999694824</ele>
        <time>2016-10-28T12:33:34.000Z</time>
      </trkpt>
      <trkpt lat="43.20919" lon="5.78248">
        <ele>128.80000305176</ele>
        <time>2016-10-28T12:33:36.000Z</time>
      </trkpt>
      <trkpt lat="43.20923" lon="5.78268">
        <ele>126.40000152588</ele>
        <time>2016-10-28T12:33:38.000Z</time>
      </trkpt>
      <trkpt lat="43.20928" lon="5.78295">
        <ele>123</ele>
        <time>2016-10-28T12:33:41.000Z</time>
      </trkpt>
      <trkpt lat="43.20934" lon="5.78321">
        <ele>121.80000305176</ele>
        <time>2016-10-28T12:33:44.000Z</time>
      </trkpt>
      <trkpt lat="43.20938" lon="5.78336">
        <ele>121.59999847412</ele>
        <time>2016-10-28T12:33:46.000Z</time>
      </trkpt>
      <trkpt lat="43.20941" lon="5.78342">
        <ele>121.59999847412</ele>
        <time>2016-10-28T12:33:47.000Z</time>
      </trkpt>
      <trkpt lat="43.20946" lon="5.78352">
        <ele>121.19999694824</ele>
        <time>2016-10-28T12:33:49.000Z</time>
      </trkpt>
      <trkpt lat="43.20957" lon="5.78365">
        <ele>120.40000152588</ele>
        <time>2016-10-28T12:33:53.000Z</time>
      </trkpt>
      <trkpt lat="43.20973" lon="5.78358">
        <ele>118.40000152588</ele>
        <time>2016-10-28T12:33:56.000Z</time>
      </trkpt>
      <trkpt lat="43.20979" lon="5.78354">
        <ele>117.80000305176</ele>
        <time>2016-10-28T12:33:57.000Z</time>
      </trkpt>
      <trkpt lat="43.20985" lon="5.7835">
        <ele>116.80000305176</ele>
        <time>2016-10-28T12:33:58.000Z</time>
      </trkpt>
      <trkpt lat="43.21" lon="5.78341">
        <ele>114.80000305176</ele>
        <time>2016-10-28T12:34:00.000Z</time>
      </trkpt>
      <trkpt lat="43.21008" lon="5.78336">
        <ele>113.59999847412</ele>
        <time>2016-10-28T12:34:01.000Z</time>
      </trkpt>
      <trkpt lat="43.21015" lon="5.78331">
        <ele>113</ele>
        <time>2016-10-28T12:34:02.000Z</time>
      </trkpt>
      <trkpt lat="43.2103" lon="5.78321">
        <ele>112.40000152588</ele>
        <time>2016-10-28T12:34:04.000Z</time>
      </trkpt>
      <trkpt lat="43.21036" lon="5.78315">
        <ele>112.19999694824</ele>
        <time>2016-10-28T12:34:05.000Z</time>
      </trkpt>
      <trkpt lat="43.21049" lon="5.78303">
        <ele>112</ele>
        <time>2016-10-28T12:34:07.000Z</time>
      </trkpt>
      <trkpt lat="43.21067" lon="5.78281">
        <ele>110.80000305176</ele>
        <time>2016-10-28T12:34:11.000Z</time>
      </trkpt>
      <trkpt lat="43.21074" lon="5.78273">
        <ele>111</ele>
        <time>2016-10-28T12:34:14.000Z</time>
      </trkpt>
      <trkpt lat="43.21076" lon="5.78274">
        <ele>111</ele>
        <time>2016-10-28T12:34:15.000Z</time>
      </trkpt>
      <trkpt lat="43.21077" lon="5.7828">
        <ele>111.19999694824</ele>
        <time>2016-10-28T12:34:17.000Z</time>
      </trkpt>
      <trkpt lat="43.21077" lon="5.78282">
        <ele>111.19999694824</ele>
        <time>2016-10-28T12:34:18.000Z</time>
      </trkpt>
      <trkpt lat="43.21076" lon="5.78286">
        <ele>111.19999694824</ele>
        <time>2016-10-28T12:34:37.000Z</time>
      </trkpt>
      <trkpt lat="43.21075" lon="5.7829">
        <ele>111.19999694824</ele>
        <time>2016-10-28T12:34:38.000Z</time>
      </trkpt>
      <trkpt lat="43.21064" lon="5.78309">
        <ele>112</ele>
        <time>2016-10-28T12:34:43.000Z</time>
      </trkpt>
      <trkpt lat="43.21044" lon="5.78342">
        <ele>113</ele>
        <time>2016-10-28T12:34:50.000Z</time>
      </trkpt>
      <trkpt lat="43.21032" lon="5.78366">
        <ele>114</ele>
        <time>2016-10-28T12:34:54.000Z</time>
      </trkpt>
      <trkpt lat="43.21026" lon="5.78378">
        <ele>114.40000152588</ele>
        <time>2016-10-28T12:34:56.000Z</time>
      </trkpt>
      <trkpt lat="43.21004" lon="5.78425">
        <ele>119</ele>
        <time>2016-10-28T12:35:03.000Z</time>
      </trkpt>
      <trkpt lat="43.21004" lon="5.78447">
        <ele>120.80000305176</ele>
        <time>2016-10-28T12:35:06.000Z</time>
      </trkpt>
      <trkpt lat="43.21017" lon="5.78473">
        <ele>121.80000305176</ele>
        <time>2016-10-28T12:35:10.000Z</time>
      </trkpt>
      <trkpt lat="43.2102" lon="5.78479">
        <ele>121.80000305176</ele>
        <time>2016-10-28T12:35:11.000Z</time>
      </trkpt>
      <trkpt lat="43.21041" lon="5.7851">
        <ele>122.19999694824</ele>
        <time>2016-10-28T12:35:17.000Z</time>
      </trkpt>
      <trkpt lat="43.21062" lon="5.78547">
        <ele>123</ele>
        <time>2016-10-28T12:35:24.000Z</time>
      </trkpt>
      <trkpt lat="43.21065" lon="5.78553">
        <ele>123</ele>
        <time>2016-10-28T12:35:25.000Z</time>
      </trkpt>
      <trkpt lat="43.21085" lon="5.78575">
        <ele>125.19999694824</ele>
        <time>2016-10-28T12:35:30.000Z</time>
      </trkpt>
      <trkpt lat="43.21123" lon="5.78611">
        <ele>126.40000152588</ele>
        <time>2016-10-28T12:35:39.000Z</time>
      </trkpt>
      <trkpt lat="43.21131" lon="5.78619">
        <ele>126.80000305176</ele>
        <time>2016-10-28T12:35:41.000Z</time>
      </trkpt>
      <trkpt lat="43.21155" lon="5.78651">
        <ele>128.39999389648</ele>
        <time>2016-10-28T12:35:48.000Z</time>
      </trkpt>
      <trkpt lat="43.21158" lon="5.78657">
        <ele>129</ele>
        <time>2016-10-28T12:35:49.000Z</time>
      </trkpt>
      <trkpt lat="43.21173" lon="5.78702">
        <ele>133.80000305176</ele>
        <time>2016-10-28T12:35:56.000Z</time>
      </trkpt>
      <trkpt lat="43.21182" lon="5.78743">
        <ele>137.80000305176</ele>
        <time>2016-10-28T12:36:02.000Z</time>
      </trkpt>
      <trkpt lat="43.21183" lon="5.7875">
        <ele>138.19999694824</ele>
        <time>2016-10-28T12:36:03.000Z</time>
      </trkpt>
      <trkpt lat="43.21185" lon="5.78756">
        <ele>138.60000610352</ele>
        <time>2016-10-28T12:36:04.000Z</time>
      </trkpt>
      <trkpt lat="43.21196" lon="5.78796">
        <ele>140.19999694824</ele>
        <time>2016-10-28T12:36:10.000Z</time>
      </trkpt>
      <trkpt lat="43.21203" lon="5.78821">
        <ele>140.39999389648</ele>
        <time>2016-10-28T12:36:14.000Z</time>
      </trkpt>
      <trkpt lat="43.21208" lon="5.78842">
        <ele>141.19999694824</ele>
        <time>2016-10-28T12:36:17.000Z</time>
      </trkpt>
      <trkpt lat="43.21214" lon="5.78878">
        <ele>146</ele>
        <time>2016-10-28T12:36:22.000Z</time>
      </trkpt>
      <trkpt lat="43.21217" lon="5.78892">
        <ele>147</ele>
        <time>2016-10-28T12:36:24.000Z</time>
      </trkpt>
      <trkpt lat="43.21227" lon="5.78908">
        <ele>145</ele>
        <time>2016-10-28T12:36:27.000Z</time>
      </trkpt>
      <trkpt lat="43.21231" lon="5.78912">
        <ele>143.39999389648</ele>
        <time>2016-10-28T12:36:28.000Z</time>
      </trkpt>
      <trkpt lat="43.21252" lon="5.78922">
        <ele>134.39999389648</ele>
        <time>2016-10-28T12:36:32.000Z</time>
      </trkpt>
      <trkpt lat="43.21264" lon="5.78924">
        <ele>129.60000610352</ele>
        <time>2016-10-28T12:36:34.000Z</time>
      </trkpt>
      <trkpt lat="43.21292" lon="5.78927">
        <ele>124.40000152588</ele>
        <time>2016-10-28T12:36:39.000Z</time>
      </trkpt>
      <trkpt lat="43.21323" lon="5.78937">
        <ele>122</ele>
        <time>2016-10-28T12:36:45.000Z</time>
      </trkpt>
      <trkpt lat="43.21336" lon="5.78959">
        <ele>121.40000152588</ele>
        <time>2016-10-28T12:36:49.000Z</time>
      </trkpt>
      <trkpt lat="43.21337" lon="5.78965">
        <ele>121.59999847412</ele>
        <time>2016-10-28T12:36:50.000Z</time>
      </trkpt>
      <trkpt lat="43.21339" lon="5.78985">
        <ele>122.40000152588</ele>
        <time>2016-10-28T12:36:53.000Z</time>
      </trkpt>
      <trkpt lat="43.21339" lon="5.78992">
        <ele>122.40000152588</ele>
        <time>2016-10-28T12:36:54.000Z</time>
      </trkpt>
      <trkpt lat="43.21341" lon="5.79023">
        <ele>122.59999847412</ele>
        <time>2016-10-28T12:36:59.000Z</time>
      </trkpt>
      <trkpt lat="43.21339" lon="5.79036">
        <ele>123.19999694824</ele>
        <time>2016-10-28T12:37:01.000Z</time>
      </trkpt>
      <trkpt lat="43.21328" lon="5.79057">
        <ele>125.80000305176</ele>
        <time>2016-10-28T12:37:05.000Z</time>
      </trkpt>
      <trkpt lat="43.2132" lon="5.79065">
        <ele>127.80000305176</ele>
        <time>2016-10-28T12:37:07.000Z</time>
      </trkpt>
      <trkpt lat="43.21313" lon="5.79072">
        <ele>129.80000305176</ele>
        <time>2016-10-28T12:37:09.000Z</time>
      </trkpt>
      <trkpt lat="43.21301" lon="5.79089">
        <ele>133.19999694824</ele>
        <time>2016-10-28T12:37:13.000Z</time>
      </trkpt>
      <trkpt lat="43.21284" lon="5.79129">
        <ele>134.39999389648</ele>
        <time>2016-10-28T12:37:20.000Z</time>
      </trkpt>
      <trkpt lat="43.21277" lon="5.79154">
        <ele>135.19999694824</ele>
        <time>2016-10-28T12:37:24.000Z</time>
      </trkpt>
      <trkpt lat="43.21277" lon="5.79167">
        <ele>136.39999389648</ele>
        <time>2016-10-28T12:37:26.000Z</time>
      </trkpt>
      <trkpt lat="43.21284" lon="5.79197">
        <ele>137.60000610352</ele>
        <time>2016-10-28T12:37:31.000Z</time>
      </trkpt>
      <trkpt lat="43.21294" lon="5.79219">
        <ele>137.19999694824</ele>
        <time>2016-10-28T12:37:35.000Z</time>
      </trkpt>
      <trkpt lat="43.21304" lon="5.79233">
        <ele>135.39999389648</ele>
        <time>2016-10-28T12:37:38.000Z</time>
      </trkpt>
      <trkpt lat="43.21313" lon="5.79249">
        <ele>133.39999389648</ele>
        <time>2016-10-28T12:37:41.000Z</time>
      </trkpt>
      <trkpt lat="43.21322" lon="5.79268">
        <ele>131.80000305176</ele>
        <time>2016-10-28T12:37:44.000Z</time>
      </trkpt>
      <trkpt lat="43.21345" lon="5.79299">
        <ele>127</ele>
        <time>2016-10-28T12:37:50.000Z</time>
      </trkpt>
      <trkpt lat="43.21363" lon="5.7931">
        <ele>128.19999694824</ele>
        <time>2016-10-28T12:37:54.000Z</time>
      </trkpt>
      <trkpt lat="43.21371" lon="5.79314">
        <ele>128.60000610352</ele>
        <time>2016-10-28T12:37:56.000Z</time>
      </trkpt>
      <trkpt lat="43.21379" lon="5.79319">
        <ele>129</ele>
        <time>2016-10-28T12:37:58.000Z</time>
      </trkpt>
      <trkpt lat="43.21381" lon="5.79329">
        <ele>129</ele>
        <time>2016-10-28T12:38:00.000Z</time>
      </trkpt>
      <trkpt lat="43.21379" lon="5.79339">
        <ele>128.80000305176</ele>
        <time>2016-10-28T12:38:02.000Z</time>
      </trkpt>
      <trkpt lat="43.21376" lon="5.79348">
        <ele>129.80000305176</ele>
        <time>2016-10-28T12:38:04.000Z</time>
      </trkpt>
      <trkpt lat="43.21367" lon="5.79359">
        <ele>131.60000610352</ele>
        <time>2016-10-28T12:38:08.000Z</time>
      </trkpt>
      <trkpt lat="43.21365" lon="5.79362">
        <ele>132</ele>
        <time>2016-10-28T12:38:09.000Z</time>
      </trkpt>
      <trkpt lat="43.21357" lon="5.79372">
        <ele>133.60000610352</ele>
        <time>2016-10-28T12:38:12.000Z</time>
      </trkpt>
      <trkpt lat="43.21348" lon="5.79383">
        <ele>135.19999694824</ele>
        <time>2016-10-28T12:38:15.000Z</time>
      </trkpt>
      <trkpt lat="43.21341" lon="5.7939">
        <ele>136.39999389648</ele>
        <time>2016-10-28T12:38:17.000Z</time>
      </trkpt>
      <trkpt lat="43.2132" lon="5.7941">
        <ele>141</ele>
        <time>2016-10-28T12:38:23.000Z</time>
      </trkpt>
      <trkpt lat="43.21306" lon="5.79423">
        <ele>144.19999694824</ele>
        <time>2016-10-28T12:38:27.000Z</time>
      </trkpt>
      <trkpt lat="43.21292" lon="5.79435">
        <ele>144.19999694824</ele>
        <time>2016-10-28T12:38:31.000Z</time>
      </trkpt>
      <trkpt lat="43.21275" lon="5.79452">
        <ele>142.39999389648</ele>
        <time>2016-10-28T12:38:36.000Z</time>
      </trkpt>
      <trkpt lat="43.21272" lon="5.79456">
        <ele>142</ele>
        <time>2016-10-28T12:38:37.000Z</time>
      </trkpt>
      <trkpt lat="43.21269" lon="5.79461">
        <ele>141.60000610352</ele>
        <time>2016-10-28T12:38:38.000Z</time>
      </trkpt>
      <trkpt lat="43.21266" lon="5.79466">
        <ele>141.39999389648</ele>
        <time>2016-10-28T12:38:39.000Z</time>
      </trkpt>
      <trkpt lat="43.21252" lon="5.79487">
        <ele>144.19999694824</ele>
        <time>2016-10-28T12:38:43.000Z</time>
      </trkpt>
      <trkpt lat="43.21228" lon="5.79515">
        <ele>150.19999694824</ele>
        <time>2016-10-28T12:38:49.000Z</time>
      </trkpt>
      <trkpt lat="43.21197" lon="5.79544">
        <ele>148.60000610352</ele>
        <time>2016-10-28T12:38:56.000Z</time>
      </trkpt>
      <trkpt lat="43.21187" lon="5.79553">
        <ele>147.60000610352</ele>
        <time>2016-10-28T12:38:58.000Z</time>
      </trkpt>
      <trkpt lat="43.21159" lon="5.7957">
        <ele>149.19999694824</ele>
        <time>2016-10-28T12:39:03.000Z</time>
      </trkpt>
      <trkpt lat="43.21145" lon="5.79576">
        <ele>149.60000610352</ele>
        <time>2016-10-28T12:39:06.000Z</time>
      </trkpt>
      <trkpt lat="43.21135" lon="5.79578">
        <ele>149.39999389648</ele>
        <time>2016-10-28T12:39:08.000Z</time>
      </trkpt>
      <trkpt lat="43.21118" lon="5.79583">
        <ele>149</ele>
        <time>2016-10-28T12:39:12.000Z</time>
      </trkpt>
      <trkpt lat="43.21105" lon="5.79587">
        <ele>147.39999389648</ele>
        <time>2016-10-28T12:39:15.000Z</time>
      </trkpt>
      <trkpt lat="43.21091" lon="5.79592">
        <ele>146.80000305176</ele>
        <time>2016-10-28T12:39:18.000Z</time>
      </trkpt>
      <trkpt lat="43.21067" lon="5.79601">
        <ele>149.60000610352</ele>
        <time>2016-10-28T12:39:23.000Z</time>
      </trkpt>
      <trkpt lat="43.21048" lon="5.79609">
        <ele>149.19999694824</ele>
        <time>2016-10-28T12:39:27.000Z</time>
      </trkpt>
      <trkpt lat="43.21036" lon="5.79617">
        <ele>148.19999694824</ele>
        <time>2016-10-28T12:39:30.000Z</time>
      </trkpt>
      <trkpt lat="43.21025" lon="5.79627">
        <ele>147.19999694824</ele>
        <time>2016-10-28T12:39:33.000Z</time>
      </trkpt>
      <trkpt lat="43.21015" lon="5.79639">
        <ele>146.39999389648</ele>
        <time>2016-10-28T12:39:36.000Z</time>
      </trkpt>
      <trkpt lat="43.21001" lon="5.79653">
        <ele>149.80000305176</ele>
        <time>2016-10-28T12:39:40.000Z</time>
      </trkpt>
      <trkpt lat="43.20997" lon="5.79656">
        <ele>150.80000305176</ele>
        <time>2016-10-28T12:39:41.000Z</time>
      </trkpt>
      <trkpt lat="43.2099" lon="5.79664">
        <ele>152.80000305176</ele>
        <time>2016-10-28T12:39:43.000Z</time>
      </trkpt>
      <trkpt lat="43.20974" lon="5.79685">
        <ele>158.60000610352</ele>
        <time>2016-10-28T12:39:48.000Z</time>
      </trkpt>
      <trkpt lat="43.20971" lon="5.79689">
        <ele>159</ele>
        <time>2016-10-28T12:39:49.000Z</time>
      </trkpt>
      <trkpt lat="43.20957" lon="5.79693">
        <ele>159.19999694824</ele>
        <time>2016-10-28T12:39:52.000Z</time>
      </trkpt>
      <trkpt lat="43.20943" lon="5.79691">
        <ele>158.39999389648</ele>
        <time>2016-10-28T12:39:55.000Z</time>
      </trkpt>
      <trkpt lat="43.20934" lon="5.79688">
        <ele>157.60000610352</ele>
        <time>2016-10-28T12:39:57.000Z</time>
      </trkpt>
      <trkpt lat="43.20929" lon="5.79686">
        <ele>157</ele>
        <time>2016-10-28T12:39:58.000Z</time>
      </trkpt>
      <trkpt lat="43.20923" lon="5.79684">
        <ele>156.19999694824</ele>
        <time>2016-10-28T12:39:59.000Z</time>
      </trkpt>
      <trkpt lat="43.20909" lon="5.79674">
        <ele>153.60000610352</ele>
        <time>2016-10-28T12:40:02.000Z</time>
      </trkpt>
      <trkpt lat="43.20893" lon="5.79652">
        <ele>148.80000305176</ele>
        <time>2016-10-28T12:40:07.000Z</time>
      </trkpt>
      <trkpt lat="43.20889" lon="5.79643">
        <ele>146.80000305176</ele>
        <time>2016-10-28T12:40:09.000Z</time>
      </trkpt>
      <trkpt lat="43.20882" lon="5.79631">
        <ele>145</ele>
        <time>2016-10-28T12:40:12.000Z</time>
      </trkpt>
      <trkpt lat="43.20879" lon="5.79628">
        <ele>144.39999389648</ele>
        <time>2016-10-28T12:40:13.000Z</time>
      </trkpt>
      <trkpt lat="43.20866" lon="5.79625">
        <ele>143.19999694824</ele>
        <time>2016-10-28T12:40:16.000Z</time>
      </trkpt>
      <trkpt lat="43.20861" lon="5.79627">
        <ele>143</ele>
        <time>2016-10-28T12:40:17.000Z</time>
      </trkpt>
      <trkpt lat="43.20847" lon="5.79636">
        <ele>143</ele>
        <time>2016-10-28T12:40:20.000Z</time>
      </trkpt>
      <trkpt lat="43.20811" lon="5.79667">
        <ele>145.39999389648</ele>
        <time>2016-10-28T12:40:29.000Z</time>
      </trkpt>
      <trkpt lat="43.20772" lon="5.797">
        <ele>142</ele>
        <time>2016-10-28T12:40:38.000Z</time>
      </trkpt>
      <trkpt lat="43.20746" lon="5.79726">
        <ele>141.39999389648</ele>
        <time>2016-10-28T12:40:45.000Z</time>
      </trkpt>
      <trkpt lat="43.20724" lon="5.79761">
        <ele>146.19999694824</ele>
        <time>2016-10-28T12:40:52.000Z</time>
      </trkpt>
      <trkpt lat="43.20688" lon="5.79817">
        <ele>142.80000305176</ele>
        <time>2016-10-28T12:41:03.000Z</time>
      </trkpt>
      <trkpt lat="43.20653" lon="5.79871">
        <ele>146</ele>
        <time>2016-10-28T12:41:14.000Z</time>
      </trkpt>
      <trkpt lat="43.2065" lon="5.79876">
        <ele>145.80000305176</ele>
        <time>2016-10-28T12:41:15.000Z</time>
      </trkpt>
      <trkpt lat="43.20643" lon="5.79897">
        <ele>145.60000610352</ele>
        <time>2016-10-28T12:41:19.000Z</time>
      </trkpt>
      <trkpt lat="43.20635" lon="5.79929">
        <ele>147.19999694824</ele>
        <time>2016-10-28T12:41:24.000Z</time>
      </trkpt>
      <trkpt lat="43.20628" lon="5.79967">
        <ele>146.80000305176</ele>
        <time>2016-10-28T12:41:30.000Z</time>
      </trkpt>
      <trkpt lat="43.20624" lon="5.79984">
        <ele>147</ele>
        <time>2016-10-28T12:41:33.000Z</time>
      </trkpt>
      <trkpt lat="43.20619" lon="5.79996">
        <ele>147.19999694824</ele>
        <time>2016-10-28T12:41:35.000Z</time>
      </trkpt>
      <trkpt lat="43.20611" lon="5.80011">
        <ele>146</ele>
        <time>2016-10-28T12:41:38.000Z</time>
      </trkpt>
      <trkpt lat="43.20607" lon="5.80015">
        <ele>145.39999389648</ele>
        <time>2016-10-28T12:41:39.000Z</time>
      </trkpt>
      <trkpt lat="43.20603" lon="5.80018">
        <ele>144.60000610352</ele>
        <time>2016-10-28T12:41:40.000Z</time>
      </trkpt>
      <trkpt lat="43.2059" lon="5.80023">
        <ele>143.60000610352</ele>
        <time>2016-10-28T12:41:43.000Z</time>
      </trkpt>
      <trkpt lat="43.20586" lon="5.80024">
        <ele>144</ele>
        <time>2016-10-28T12:41:44.000Z</time>
      </trkpt>
      <trkpt lat="43.20574" lon="5.8003">
        <ele>145.19999694824</ele>
        <time>2016-10-28T12:41:47.000Z</time>
      </trkpt>
      <trkpt lat="43.20569" lon="5.8004">
        <ele>145.19999694824</ele>
        <time>2016-10-28T12:41:49.000Z</time>
      </trkpt>
      <trkpt lat="43.20567" lon="5.80045">
        <ele>145</ele>
        <time>2016-10-28T12:41:50.000Z</time>
      </trkpt>
      <trkpt lat="43.20567" lon="5.80066">
        <ele>145.39999389648</ele>
        <time>2016-10-28T12:41:53.000Z</time>
      </trkpt>
      <trkpt lat="43.20567" lon="5.80073">
        <ele>145.80000305176</ele>
        <time>2016-10-28T12:41:54.000Z</time>
      </trkpt>
      <trkpt lat="43.20565" lon="5.80093">
        <ele>147</ele>
        <time>2016-10-28T12:41:57.000Z</time>
      </trkpt>
      <trkpt lat="43.20562" lon="5.80105">
        <ele>147.80000305176</ele>
        <time>2016-10-28T12:41:59.000Z</time>
      </trkpt>
      <trkpt lat="43.20559" lon="5.80111">
        <ele>147.80000305176</ele>
        <time>2016-10-28T12:42:00.000Z</time>
      </trkpt>
      <trkpt lat="43.20543" lon="5.80126">
        <ele>147.60000610352</ele>
        <time>2016-10-28T12:42:04.000Z</time>
      </trkpt>
      <trkpt lat="43.20524" lon="5.80144">
        <ele>147.80000305176</ele>
        <time>2016-10-28T12:42:09.000Z</time>
      </trkpt>
      <trkpt lat="43.20518" lon="5.80151">
        <ele>147.60000610352</ele>
        <time>2016-10-28T12:42:11.000Z</time>
      </trkpt>
      <trkpt lat="43.20496" lon="5.80169">
        <ele>147.80000305176</ele>
        <time>2016-10-28T12:42:17.000Z</time>
      </trkpt>
      <trkpt lat="43.20477" lon="5.80188">
        <ele>148.39999389648</ele>
        <time>2016-10-28T12:42:23.000Z</time>
      </trkpt>
      <trkpt lat="43.20467" lon="5.80209">
        <ele>149.60000610352</ele>
        <time>2016-10-28T12:42:27.000Z</time>
      </trkpt>
      <trkpt lat="43.20464" lon="5.80222">
        <ele>150.39999389648</ele>
        <time>2016-10-28T12:42:29.000Z</time>
      </trkpt>
      <trkpt lat="43.20461" lon="5.80241">
        <ele>151.80000305176</ele>
        <time>2016-10-28T12:42:32.000Z</time>
      </trkpt>
      <trkpt lat="43.20455" lon="5.8025">
        <ele>152.80000305176</ele>
        <time>2016-10-28T12:42:34.000Z</time>
      </trkpt>
      <trkpt lat="43.20451" lon="5.80252">
        <ele>154</ele>
        <time>2016-10-28T12:42:35.000Z</time>
      </trkpt>
      <trkpt lat="43.20443" lon="5.80253">
        <ele>155.80000305176</ele>
        <time>2016-10-28T12:42:37.000Z</time>
      </trkpt>
      <trkpt lat="43.20435" lon="5.80253">
        <ele>157.19999694824</ele>
        <time>2016-10-28T12:42:39.000Z</time>
      </trkpt>
      <trkpt lat="43.20418" lon="5.80253">
        <ele>158.39999389648</ele>
        <time>2016-10-28T12:42:43.000Z</time>
      </trkpt>
      <trkpt lat="43.20405" lon="5.80254">
        <ele>158.60000610352</ele>
        <time>2016-10-28T12:42:46.000Z</time>
      </trkpt>
      <trkpt lat="43.20374" lon="5.80255">
        <ele>158.39999389648</ele>
        <time>2016-10-28T12:42:53.000Z</time>
      </trkpt>
      <trkpt lat="43.20366" lon="5.80254">
        <ele>157.60000610352</ele>
        <time>2016-10-28T12:42:55.000Z</time>
      </trkpt>
      <trkpt lat="43.2035" lon="5.80255">
        <ele>156.39999389648</ele>
        <time>2016-10-28T12:42:59.000Z</time>
      </trkpt>
      <trkpt lat="43.20346" lon="5.80256">
        <ele>156.19999694824</ele>
        <time>2016-10-28T12:43:00.000Z</time>
      </trkpt>
      <trkpt lat="43.20331" lon="5.80265">
        <ele>157.19999694824</ele>
        <time>2016-10-28T12:43:04.000Z</time>
      </trkpt>
      <trkpt lat="43.20309" lon="5.80292">
        <ele>157.60000610352</ele>
        <time>2016-10-28T12:43:11.000Z</time>
      </trkpt>
      <trkpt lat="43.20307" lon="5.80296">
        <ele>157.39999389648</ele>
        <time>2016-10-28T12:43:12.000Z</time>
      </trkpt>
      <trkpt lat="43.20302" lon="5.80315">
        <ele>157</ele>
        <time>2016-10-28T12:43:16.000Z</time>
      </trkpt>
      <trkpt lat="43.20298" lon="5.80337">
        <ele>156.80000305176</ele>
        <time>2016-10-28T12:43:20.000Z</time>
      </trkpt>
      <trkpt lat="43.20298" lon="5.80343">
        <ele>156.80000305176</ele>
        <time>2016-10-28T12:43:21.000Z</time>
      </trkpt>
      <trkpt lat="43.20296" lon="5.80355">
        <ele>156.60000610352</ele>
        <time>2016-10-28T12:43:23.000Z</time>
      </trkpt>
      <trkpt lat="43.2029" lon="5.80391">
        <ele>155.80000305176</ele>
        <time>2016-10-28T12:43:30.000Z</time>
      </trkpt>
      <trkpt lat="43.20289" lon="5.80399">
        <ele>155.80000305176</ele>
        <time>2016-10-28T12:43:32.000Z</time>
      </trkpt>
      <trkpt lat="43.2029" lon="5.80413">
        <ele>156.19999694824</ele>
        <time>2016-10-28T12:43:35.000Z</time>
      </trkpt>
      <trkpt lat="43.2029" lon="5.80418">
        <ele>156.60000610352</ele>
        <time>2016-10-28T12:43:36.000Z</time>
      </trkpt>
      <trkpt lat="43.20294" lon="5.80429">
        <ele>157.60000610352</ele>
        <time>2016-10-28T12:43:38.000Z</time>
      </trkpt>
      <trkpt lat="43.20301" lon="5.80444">
        <ele>159.19999694824</ele>
        <time>2016-10-28T12:43:41.000Z</time>
      </trkpt>
      <trkpt lat="43.20305" lon="5.80456">
        <ele>160.60000610352</ele>
        <time>2016-10-28T12:43:44.000Z</time>
      </trkpt>
      <trkpt lat="43.20305" lon="5.80463">
        <ele>161</ele>
        <time>2016-10-28T12:43:46.000Z</time>
      </trkpt>
      <trkpt lat="43.20302" lon="5.80474">
        <ele>161.39999389648</ele>
        <time>2016-10-28T12:43:49.000Z</time>
      </trkpt>
      <trkpt lat="43.20299" lon="5.80481">
        <ele>161.19999694824</ele>
        <time>2016-10-28T12:43:51.000Z</time>
      </trkpt>
      <trkpt lat="43.20294" lon="5.8049">
        <ele>161</ele>
        <time>2016-10-28T12:43:54.000Z</time>
      </trkpt>
      <trkpt lat="43.20284" lon="5.80506">
        <ele>160.39999389648</ele>
        <time>2016-10-28T12:43:59.000Z</time>
      </trkpt>
      <trkpt lat="43.2027" lon="5.80528">
        <ele>160</ele>
        <time>2016-10-28T12:44:06.000Z</time>
      </trkpt>
      <trkpt lat="43.20269" lon="5.80537">
        <ele>160</ele>
        <time>2016-10-28T12:44:57.000Z</time>
      </trkpt>
      <trkpt lat="43.20259" lon="5.80553">
        <ele>159.80000305176</ele>
        <time>2016-10-28T12:45:03.000Z</time>
      </trkpt>
      <trkpt lat="43.20245" lon="5.80582">
        <ele>160.19999694824</ele>
        <time>2016-10-28T12:45:10.000Z</time>
      </trkpt>
      <trkpt lat="43.20231" lon="5.80614">
        <ele>160.60000610352</ele>
        <time>2016-10-28T12:45:17.000Z</time>
      </trkpt>
      <trkpt lat="43.20229" lon="5.80617">
        <ele>160.39999389648</ele>
        <time>2016-10-28T12:45:18.000Z</time>
      </trkpt>
      <trkpt lat="43.20221" lon="5.80632">
        <ele>159.60000610352</ele>
        <time>2016-10-28T12:45:22.000Z</time>
      </trkpt>
      <trkpt lat="43.20206" lon="5.80656">
        <ele>157.80000305176</ele>
        <time>2016-10-28T12:45:28.000Z</time>
      </trkpt>
      <trkpt lat="43.20201" lon="5.80668">
        <ele>157.39999389648</ele>
        <time>2016-10-28T12:45:33.000Z</time>
      </trkpt>
      <trkpt lat="43.20202" lon="5.80672">
        <ele>157.60000610352</ele>
        <time>2016-10-28T12:45:34.000Z</time>
      </trkpt>
      <trkpt lat="43.20207" lon="5.8068">
        <ele>158.39999389648</ele>
        <time>2016-10-28T12:45:36.000Z</time>
      </trkpt>
      <trkpt lat="43.2021" lon="5.80683">
        <ele>159</ele>
        <time>2016-10-28T12:45:37.000Z</time>
      </trkpt>
      <trkpt lat="43.20214" lon="5.80686">
        <ele>159.39999389648</ele>
        <time>2016-10-28T12:45:38.000Z</time>
      </trkpt>
      <trkpt lat="43.20229" lon="5.80697">
        <ele>161.39999389648</ele>
        <time>2016-10-28T12:45:42.000Z</time>
      </trkpt>
      <trkpt lat="43.20242" lon="5.8071">
        <ele>163.39999389648</ele>
        <time>2016-10-28T12:45:46.000Z</time>
      </trkpt>
      <trkpt lat="43.20257" lon="5.80721">
        <ele>165.39999389648</ele>
        <time>2016-10-28T12:45:50.000Z</time>
      </trkpt>
      <trkpt lat="43.20261" lon="5.80724">
        <ele>165.80000305176</ele>
        <time>2016-10-28T12:45:51.000Z</time>
      </trkpt>
      <trkpt lat="43.20272" lon="5.80732">
        <ele>166.60000610352</ele>
        <time>2016-10-28T12:45:54.000Z</time>
      </trkpt>
      <trkpt lat="43.20285" lon="5.80744">
        <ele>167.39999389648</ele>
        <time>2016-10-28T12:45:58.000Z</time>
      </trkpt>
      <trkpt lat="43.20294" lon="5.80752">
        <ele>168</ele>
        <time>2016-10-28T12:46:01.000Z</time>
      </trkpt>
      <trkpt lat="43.20297" lon="5.80755">
        <ele>168.19999694824</ele>
        <time>2016-10-28T12:46:02.000Z</time>
      </trkpt>
      <trkpt lat="43.20303" lon="5.80767">
        <ele>168.60000610352</ele>
        <time>2016-10-28T12:46:06.000Z</time>
      </trkpt>
      <trkpt lat="43.20307" lon="5.8078">
        <ele>168.80000305176</ele>
        <time>2016-10-28T12:46:10.000Z</time>
      </trkpt>
      <trkpt lat="43.20309" lon="5.80784">
        <ele>169</ele>
        <time>2016-10-28T12:46:11.000Z</time>
      </trkpt>
      <trkpt lat="43.20312" lon="5.80787">
        <ele>169.19999694824</ele>
        <time>2016-10-28T12:46:12.000Z</time>
      </trkpt>
      <trkpt lat="43.2032" lon="5.80788">
        <ele>169.60000610352</ele>
        <time>2016-10-28T12:46:14.000Z</time>
      </trkpt>
      <trkpt lat="43.20328" lon="5.80788">
        <ele>170</ele>
        <time>2016-10-28T12:46:16.000Z</time>
      </trkpt>
      <trkpt lat="43.20348" lon="5.80792">
        <ele>171</ele>
        <time>2016-10-28T12:46:21.000Z</time>
      </trkpt>
      <trkpt lat="43.20351" lon="5.80793">
        <ele>171.19999694824</ele>
        <time>2016-10-28T12:46:22.000Z</time>
      </trkpt>
      <trkpt lat="43.2037" lon="5.80801">
        <ele>171.80000305176</ele>
        <time>2016-10-28T12:46:27.000Z</time>
      </trkpt>
      <trkpt lat="43.20374" lon="5.80802">
        <ele>172</ele>
        <time>2016-10-28T12:46:28.000Z</time>
      </trkpt>
      <trkpt lat="43.20394" lon="5.80811">
        <ele>173</ele>
        <time>2016-10-28T12:46:33.000Z</time>
      </trkpt>
      <trkpt lat="43.20405" lon="5.8082">
        <ele>173.80000305176</ele>
        <time>2016-10-28T12:46:36.000Z</time>
      </trkpt>
      <trkpt lat="43.20416" lon="5.80829">
        <ele>174.60000610352</ele>
        <time>2016-10-28T12:46:39.000Z</time>
      </trkpt>
      <trkpt lat="43.20431" lon="5.80842">
        <ele>175.80000305176</ele>
        <time>2016-10-28T12:46:43.000Z</time>
      </trkpt>
      <trkpt lat="43.20442" lon="5.80852">
        <ele>176.60000610352</ele>
        <time>2016-10-28T12:46:46.000Z</time>
      </trkpt>
      <trkpt lat="43.20453" lon="5.8086">
        <ele>177.19999694824</ele>
        <time>2016-10-28T12:46:49.000Z</time>
      </trkpt>
      <trkpt lat="43.20477" lon="5.80883">
        <ele>178.80000305176</ele>
        <time>2016-10-28T12:46:56.000Z</time>
      </trkpt>
      <trkpt lat="43.20481" lon="5.80886">
        <ele>179.19999694824</ele>
        <time>2016-10-28T12:46:57.000Z</time>
      </trkpt>
      <trkpt lat="43.20503" lon="5.80906">
        <ele>180.39999389648</ele>
        <time>2016-10-28T12:47:03.000Z</time>
      </trkpt>
      <trkpt lat="43.2051" lon="5.80913">
        <ele>180.80000305176</ele>
        <time>2016-10-28T12:47:05.000Z</time>
      </trkpt>
      <trkpt lat="43.20546" lon="5.80945">
        <ele>180.39999389648</ele>
        <time>2016-10-28T12:47:15.000Z</time>
      </trkpt>
      <trkpt lat="43.2055" lon="5.80948">
        <ele>180.39999389648</ele>
        <time>2016-10-28T12:47:16.000Z</time>
      </trkpt>
      <trkpt lat="43.20559" lon="5.8096">
        <ele>180.19999694824</ele>
        <time>2016-10-28T12:47:19.000Z</time>
      </trkpt>
      <trkpt lat="43.2056" lon="5.8097">
        <ele>180.60000610352</ele>
        <time>2016-10-28T12:47:21.000Z</time>
      </trkpt>
      <trkpt lat="43.20562" lon="5.80985">
        <ele>181.19999694824</ele>
        <time>2016-10-28T12:47:24.000Z</time>
      </trkpt>
      <trkpt lat="43.20562" lon="5.81011">
        <ele>182.39999389648</ele>
        <time>2016-10-28T12:47:29.000Z</time>
      </trkpt>
      <trkpt lat="43.20563" lon="5.81015">
        <ele>182.60000610352</ele>
        <time>2016-10-28T12:47:30.000Z</time>
      </trkpt>
      <trkpt lat="43.20564" lon="5.81029">
        <ele>183.19999694824</ele>
        <time>2016-10-28T12:47:33.000Z</time>
      </trkpt>
      <trkpt lat="43.2057" lon="5.81051">
        <ele>183.80000305176</ele>
        <time>2016-10-28T12:47:38.000Z</time>
      </trkpt>
      <trkpt lat="43.20581" lon="5.81095">
        <ele>185.39999389648</ele>
        <time>2016-10-28T12:47:46.000Z</time>
      </trkpt>
      <trkpt lat="43.20596" lon="5.81138">
        <ele>186.80000305176</ele>
        <time>2016-10-28T12:47:54.000Z</time>
      </trkpt>
      <trkpt lat="43.20614" lon="5.81168">
        <ele>185.80000305176</ele>
        <time>2016-10-28T12:48:01.000Z</time>
      </trkpt>
      <trkpt lat="43.20617" lon="5.81172">
        <ele>185.60000610352</ele>
        <time>2016-10-28T12:48:02.000Z</time>
      </trkpt>
      <trkpt lat="43.20629" lon="5.81196">
        <ele>185.19999694824</ele>
        <time>2016-10-28T12:48:07.000Z</time>
      </trkpt>
      <trkpt lat="43.20633" lon="5.81205">
        <ele>185.19999694824</ele>
        <time>2016-10-28T12:48:09.000Z</time>
      </trkpt>
      <trkpt lat="43.20638" lon="5.81216">
        <ele>185</ele>
        <time>2016-10-28T12:48:12.000Z</time>
      </trkpt>
      <trkpt lat="43.20648" lon="5.81237">
        <ele>183.80000305176</ele>
        <time>2016-10-28T12:48:17.000Z</time>
      </trkpt>
      <trkpt lat="43.20664" lon="5.81267">
        <ele>181.80000305176</ele>
        <time>2016-10-28T12:48:22.000Z</time>
      </trkpt>
      <trkpt lat="43.20667" lon="5.81273">
        <ele>181.39999389648</ele>
        <time>2016-10-28T12:48:23.000Z</time>
      </trkpt>
      <trkpt lat="43.20673" lon="5.81286">
        <ele>180.60000610352</ele>
        <time>2016-10-28T12:48:25.000Z</time>
      </trkpt>
      <trkpt lat="43.20694" lon="5.81328">
        <ele>180.80000305176</ele>
        <time>2016-10-28T12:48:32.000Z</time>
      </trkpt>
      <trkpt lat="43.20697" lon="5.81334">
        <ele>181</ele>
        <time>2016-10-28T12:48:33.000Z</time>
      </trkpt>
      <trkpt lat="43.2071" lon="5.81353">
        <ele>181.80000305176</ele>
        <time>2016-10-28T12:48:37.000Z</time>
      </trkpt>
      <trkpt lat="43.20722" lon="5.81369">
        <ele>182.39999389648</ele>
        <time>2016-10-28T12:48:41.000Z</time>
      </trkpt>
      <trkpt lat="43.20733" lon="5.8138">
        <ele>182.80000305176</ele>
        <time>2016-10-28T12:48:44.000Z</time>
      </trkpt>
      <trkpt lat="43.20737" lon="5.81383">
        <ele>183</ele>
        <time>2016-10-28T12:48:45.000Z</time>
      </trkpt>
      <trkpt lat="43.20766" lon="5.81406">
        <ele>184.19999694824</ele>
        <time>2016-10-28T12:48:53.000Z</time>
      </trkpt>
      <trkpt lat="43.2077" lon="5.8141">
        <ele>184</ele>
        <time>2016-10-28T12:48:54.000Z</time>
      </trkpt>
      <trkpt lat="43.20781" lon="5.81424">
        <ele>184</ele>
        <time>2016-10-28T12:48:58.000Z</time>
      </trkpt>
      <trkpt lat="43.20791" lon="5.81452">
        <ele>184</ele>
        <time>2016-10-28T12:49:03.000Z</time>
      </trkpt>
      <trkpt lat="43.20794" lon="5.81458">
        <ele>184</ele>
        <time>2016-10-28T12:49:04.000Z</time>
      </trkpt>
      <trkpt lat="43.20806" lon="5.81476">
        <ele>183.80000305176</ele>
        <time>2016-10-28T12:49:07.000Z</time>
      </trkpt>
      <trkpt lat="43.20814" lon="5.8149">
        <ele>183.60000610352</ele>
        <time>2016-10-28T12:49:09.000Z</time>
      </trkpt>
      <trkpt lat="43.20817" lon="5.81498">
        <ele>183.39999389648</ele>
        <time>2016-10-28T12:49:10.000Z</time>
      </trkpt>
      <trkpt lat="43.2082" lon="5.81513">
        <ele>183.19999694824</ele>
        <time>2016-10-28T12:49:12.000Z</time>
      </trkpt>
      <trkpt lat="43.20818" lon="5.81549">
        <ele>182</ele>
        <time>2016-10-28T12:49:17.000Z</time>
      </trkpt>
      <trkpt lat="43.20816" lon="5.8157">
        <ele>182.60000610352</ele>
        <time>2016-10-28T12:49:21.000Z</time>
      </trkpt>
      <trkpt lat="43.20816" lon="5.81589">
        <ele>183.60000610352</ele>
        <time>2016-10-28T12:49:25.000Z</time>
      </trkpt>
      <trkpt lat="43.20816" lon="5.81599">
        <ele>184.19999694824</ele>
        <time>2016-10-28T12:49:27.000Z</time>
      </trkpt>
      <trkpt lat="43.20815" lon="5.81605">
        <ele>184.60000610352</ele>
        <time>2016-10-28T12:49:28.000Z</time>
      </trkpt>
      <trkpt lat="43.20815" lon="5.81611">
        <ele>185</ele>
        <time>2016-10-28T12:49:29.000Z</time>
      </trkpt>
      <trkpt lat="43.20819" lon="5.81627">
        <ele>185.80000305176</ele>
        <time>2016-10-28T12:49:32.000Z</time>
      </trkpt>
      <trkpt lat="43.20825" lon="5.8164">
        <ele>186.60000610352</ele>
        <time>2016-10-28T12:49:35.000Z</time>
      </trkpt>
      <trkpt lat="43.20827" lon="5.81644">
        <ele>186.80000305176</ele>
        <time>2016-10-28T12:49:36.000Z</time>
      </trkpt>
      <trkpt lat="43.20831" lon="5.81652">
        <ele>187.39999389648</ele>
        <time>2016-10-28T12:49:38.000Z</time>
      </trkpt>
      <trkpt lat="43.20832" lon="5.81656">
        <ele>187.60000610352</ele>
        <time>2016-10-28T12:49:39.000Z</time>
      </trkpt>
      <trkpt lat="43.20837" lon="5.81666">
        <ele>188.19999694824</ele>
        <time>2016-10-28T12:49:42.000Z</time>
      </trkpt>
      <trkpt lat="43.2084" lon="5.81672">
        <ele>188.39999389648</ele>
        <time>2016-10-28T12:49:44.000Z</time>
      </trkpt>
      <trkpt lat="43.20841" lon="5.81676">
        <ele>188.60000610352</ele>
        <time>2016-10-28T12:49:45.000Z</time>
      </trkpt>
      <trkpt lat="43.20843" lon="5.8168">
        <ele>189</ele>
        <time>2016-10-28T12:49:46.000Z</time>
      </trkpt>
      <trkpt lat="43.20845" lon="5.81687">
        <ele>189.39999389648</ele>
        <time>2016-10-28T12:49:48.000Z</time>
      </trkpt>
      <trkpt lat="43.20851" lon="5.817">
        <ele>190.39999389648</ele>
        <time>2016-10-28T12:49:51.000Z</time>
      </trkpt>
      <trkpt lat="43.20853" lon="5.81703">
        <ele>190.80000305176</ele>
        <time>2016-10-28T12:49:52.000Z</time>
      </trkpt>
      <trkpt lat="43.20856" lon="5.81711">
        <ele>191.60000610352</ele>
        <time>2016-10-28T12:49:54.000Z</time>
      </trkpt>
      <trkpt lat="43.20859" lon="5.81722">
        <ele>192.39999389648</ele>
        <time>2016-10-28T12:49:57.000Z</time>
      </trkpt>
      <trkpt lat="43.20863" lon="5.81728">
        <ele>193</ele>
        <time>2016-10-28T12:49:59.000Z</time>
      </trkpt>
      <trkpt lat="43.20864" lon="5.81732">
        <ele>193.19999694824</ele>
        <time>2016-10-28T12:50:00.000Z</time>
      </trkpt>
      <trkpt lat="43.2087" lon="5.81747">
        <ele>194.60000610352</ele>
        <time>2016-10-28T12:50:03.000Z</time>
      </trkpt>
      <trkpt lat="43.20872" lon="5.81753">
        <ele>195.19999694824</ele>
        <time>2016-10-28T12:50:04.000Z</time>
      </trkpt>
      <trkpt lat="43.20876" lon="5.81765">
        <ele>196.19999694824</ele>
        <time>2016-10-28T12:50:06.000Z</time>
      </trkpt>
      <trkpt lat="43.20881" lon="5.81782">
        <ele>197.80000305176</ele>
        <time>2016-10-28T12:50:09.000Z</time>
      </trkpt>
      <trkpt lat="43.20883" lon="5.81787">
        <ele>198.39999389648</ele>
        <time>2016-10-28T12:50:10.000Z</time>
      </trkpt>
      <trkpt lat="43.20886" lon="5.81792">
        <ele>199</ele>
        <time>2016-10-28T12:50:11.000Z</time>
      </trkpt>
      <trkpt lat="43.20887" lon="5.81797">
        <ele>199.39999389648</ele>
        <time>2016-10-28T12:50:12.000Z</time>
      </trkpt>
      <trkpt lat="43.20889" lon="5.81803">
        <ele>200</ele>
        <time>2016-10-28T12:50:13.000Z</time>
      </trkpt>
      <trkpt lat="43.20894" lon="5.81818">
        <ele>201.19999694824</ele>
        <time>2016-10-28T12:50:16.000Z</time>
      </trkpt>
      <trkpt lat="43.209" lon="5.81833">
        <ele>202.60000610352</ele>
        <time>2016-10-28T12:50:19.000Z</time>
      </trkpt>
      <trkpt lat="43.20903" lon="5.81837">
        <ele>203</ele>
        <time>2016-10-28T12:50:20.000Z</time>
      </trkpt>
      <trkpt lat="43.20909" lon="5.8185">
        <ele>204.19999694824</ele>
        <time>2016-10-28T12:50:23.000Z</time>
      </trkpt>
      <trkpt lat="43.20913" lon="5.81859">
        <ele>205.19999694824</ele>
        <time>2016-10-28T12:50:25.000Z</time>
      </trkpt>
      <trkpt lat="43.20921" lon="5.81875">
        <ele>206.60000610352</ele>
        <time>2016-10-28T12:50:29.000Z</time>
      </trkpt>
      <trkpt lat="43.20929" lon="5.81887">
        <ele>208</ele>
        <time>2016-10-28T12:50:32.000Z</time>
      </trkpt>
      <trkpt lat="43.20933" lon="5.81896">
        <ele>208.19999694824</ele>
        <time>2016-10-28T12:50:34.000Z</time>
      </trkpt>
      <trkpt lat="43.20943" lon="5.81912">
        <ele>209</ele>
        <time>2016-10-28T12:50:38.000Z</time>
      </trkpt>
      <trkpt lat="43.20947" lon="5.8192">
        <ele>209.19999694824</ele>
        <time>2016-10-28T12:50:40.000Z</time>
      </trkpt>
      <trkpt lat="43.20955" lon="5.81935">
        <ele>210</ele>
        <time>2016-10-28T12:50:44.000Z</time>
      </trkpt>
      <trkpt lat="43.20961" lon="5.81947">
        <ele>210.39999389648</ele>
        <time>2016-10-28T12:50:47.000Z</time>
      </trkpt>
      <trkpt lat="43.20967" lon="5.81957">
        <ele>210.80000305176</ele>
        <time>2016-10-28T12:50:50.000Z</time>
      </trkpt>
      <trkpt lat="43.20973" lon="5.81967">
        <ele>211.19999694824</ele>
        <time>2016-10-28T12:50:53.000Z</time>
      </trkpt>
      <trkpt lat="43.20975" lon="5.8197">
        <ele>211.39999389648</ele>
        <time>2016-10-28T12:50:54.000Z</time>
      </trkpt>
      <trkpt lat="43.20978" lon="5.81973">
        <ele>211.39999389648</ele>
        <time>2016-10-28T12:50:55.000Z</time>
      </trkpt>
      <trkpt lat="43.2099" lon="5.81981">
        <ele>211.19999694824</ele>
        <time>2016-10-28T12:50:59.000Z</time>
      </trkpt>
      <trkpt lat="43.20993" lon="5.81982">
        <ele>211.19999694824</ele>
        <time>2016-10-28T12:51:00.000Z</time>
      </trkpt>
      <trkpt lat="43.21013" lon="5.81998">
        <ele>211</ele>
        <time>2016-10-28T12:51:07.000Z</time>
      </trkpt>
      <trkpt lat="43.21039" lon="5.82022">
        <ele>212.19999694824</ele>
        <time>2016-10-28T12:51:16.000Z</time>
      </trkpt>
      <trkpt lat="43.21052" lon="5.82036">
        <ele>213</ele>
        <time>2016-10-28T12:51:21.000Z</time>
      </trkpt>
      <trkpt lat="43.21054" lon="5.82039">
        <ele>213</ele>
        <time>2016-10-28T12:51:22.000Z</time>
      </trkpt>
      <trkpt lat="43.21071" lon="5.82057">
        <ele>214</ele>
        <time>2016-10-28T12:51:28.000Z</time>
      </trkpt>
      <trkpt lat="43.21077" lon="5.82062">
        <ele>214.60000610352</ele>
        <time>2016-10-28T12:51:30.000Z</time>
      </trkpt>
      <trkpt lat="43.2109" lon="5.82076">
        <ele>216.60000610352</ele>
        <time>2016-10-28T12:51:35.000Z</time>
      </trkpt>
      <trkpt lat="43.21093" lon="5.82079">
        <ele>216.80000305176</ele>
        <time>2016-10-28T12:51:36.000Z</time>
      </trkpt>
      <trkpt lat="43.21113" lon="5.82097">
        <ele>221.19999694824</ele>
        <time>2016-10-28T12:51:42.000Z</time>
      </trkpt>
      <trkpt lat="43.21122" lon="5.82107">
        <ele>223.60000610352</ele>
        <time>2016-10-28T12:51:45.000Z</time>
      </trkpt>
      <trkpt lat="43.21128" lon="5.82113">
        <ele>225</ele>
        <time>2016-10-28T12:51:47.000Z</time>
      </trkpt>
      <trkpt lat="43.21132" lon="5.82116">
        <ele>225.80000305176</ele>
        <time>2016-10-28T12:51:48.000Z</time>
      </trkpt>
      <trkpt lat="43.21135" lon="5.8212">
        <ele>226.60000610352</ele>
        <time>2016-10-28T12:51:49.000Z</time>
      </trkpt>
      <trkpt lat="43.21141" lon="5.82126">
        <ele>228</ele>
        <time>2016-10-28T12:51:51.000Z</time>
      </trkpt>
      <trkpt lat="43.21147" lon="5.82132">
        <ele>229.39999389648</ele>
        <time>2016-10-28T12:51:53.000Z</time>
      </trkpt>
      <trkpt lat="43.21152" lon="5.82137">
        <ele>230.80000305176</ele>
        <time>2016-10-28T12:51:55.000Z</time>
      </trkpt>
      <trkpt lat="43.21158" lon="5.82144">
        <ele>232.19999694824</ele>
        <time>2016-10-28T12:51:57.000Z</time>
      </trkpt>
      <trkpt lat="43.21163" lon="5.82149">
        <ele>233.39999389648</ele>
        <time>2016-10-28T12:51:59.000Z</time>
      </trkpt>
      <trkpt lat="43.2117" lon="5.82155">
        <ele>235</ele>
        <time>2016-10-28T12:52:01.000Z</time>
      </trkpt>
      <trkpt lat="43.21176" lon="5.82162">
        <ele>236.60000610352</ele>
        <time>2016-10-28T12:52:03.000Z</time>
      </trkpt>
      <trkpt lat="43.21179" lon="5.82165">
        <ele>237.19999694824</ele>
        <time>2016-10-28T12:52:04.000Z</time>
      </trkpt>
      <trkpt lat="43.21181" lon="5.82168">
        <ele>237.19999694824</ele>
        <time>2016-10-28T12:52:05.000Z</time>
      </trkpt>
      <trkpt lat="43.21186" lon="5.82173">
        <ele>237.39999389648</ele>
        <time>2016-10-28T12:52:07.000Z</time>
      </trkpt>
      <trkpt lat="43.2119" lon="5.82182">
        <ele>237.80000305176</ele>
        <time>2016-10-28T12:52:10.000Z</time>
      </trkpt>
      <trkpt lat="43.21195" lon="5.82196">
        <ele>238.60000610352</ele>
        <time>2016-10-28T12:52:14.000Z</time>
      </trkpt>
      <trkpt lat="43.21197" lon="5.82208">
        <ele>239.39999389648</ele>
        <time>2016-10-28T12:52:17.000Z</time>
      </trkpt>
      <trkpt lat="43.21202" lon="5.82231">
        <ele>241.39999389648</ele>
        <time>2016-10-28T12:52:22.000Z</time>
      </trkpt>
      <trkpt lat="43.21203" lon="5.82235">
        <ele>242</ele>
        <time>2016-10-28T12:52:23.000Z</time>
      </trkpt>
      <trkpt lat="43.2121" lon="5.82261">
        <ele>244.39999389648</ele>
        <time>2016-10-28T12:52:29.000Z</time>
      </trkpt>
      <trkpt lat="43.21212" lon="5.82266">
        <ele>244.80000305176</ele>
        <time>2016-10-28T12:52:30.000Z</time>
      </trkpt>
      <trkpt lat="43.21215" lon="5.82274">
        <ele>245.39999389648</ele>
        <time>2016-10-28T12:52:32.000Z</time>
      </trkpt>
      <trkpt lat="43.21221" lon="5.8229">
        <ele>246.39999389648</ele>
        <time>2016-10-28T12:52:36.000Z</time>
      </trkpt>
      <trkpt lat="43.21224" lon="5.82297">
        <ele>246.80000305176</ele>
        <time>2016-10-28T12:52:38.000Z</time>
      </trkpt>
      <trkpt lat="43.21228" lon="5.82304">
        <ele>247.39999389648</ele>
        <time>2016-10-28T12:52:40.000Z</time>
      </trkpt>
      <trkpt lat="43.21236" lon="5.82317">
        <ele>248.80000305176</ele>
        <time>2016-10-28T12:52:44.000Z</time>
      </trkpt>
      <trkpt lat="43.21245" lon="5.82327">
        <ele>250</ele>
        <time>2016-10-28T12:52:48.000Z</time>
      </trkpt>
      <trkpt lat="43.21249" lon="5.82333">
        <ele>250.80000305176</ele>
        <time>2016-10-28T12:52:50.000Z</time>
      </trkpt>
      <trkpt lat="43.21253" lon="5.82338">
        <ele>251.39999389648</ele>
        <time>2016-10-28T12:52:52.000Z</time>
      </trkpt>
      <trkpt lat="43.21258" lon="5.82347">
        <ele>252.60000610352</ele>
        <time>2016-10-28T12:52:55.000Z</time>
      </trkpt>
      <trkpt lat="43.2126" lon="5.8235">
        <ele>253</ele>
        <time>2016-10-28T12:52:56.000Z</time>
      </trkpt>
      <trkpt lat="43.21263" lon="5.82356">
        <ele>253.60000610352</ele>
        <time>2016-10-28T12:52:58.000Z</time>
      </trkpt>
      <trkpt lat="43.21269" lon="5.82365">
        <ele>254.80000305176</ele>
        <time>2016-10-28T12:53:01.000Z</time>
      </trkpt>
      <trkpt lat="43.21274" lon="5.82376">
        <ele>256</ele>
        <time>2016-10-28T12:53:04.000Z</time>
      </trkpt>
      <trkpt lat="43.21275" lon="5.82379">
        <ele>256.39999389648</ele>
        <time>2016-10-28T12:53:05.000Z</time>
      </trkpt>
      <trkpt lat="43.21277" lon="5.82386">
        <ele>257.20001220703</ele>
        <time>2016-10-28T12:53:07.000Z</time>
      </trkpt>
      <trkpt lat="43.21281" lon="5.82396">
        <ele>258.39999389648</ele>
        <time>2016-10-28T12:53:10.000Z</time>
      </trkpt>
      <trkpt lat="43.21286" lon="5.82406">
        <ele>259.39999389648</ele>
        <time>2016-10-28T12:53:13.000Z</time>
      </trkpt>
      <trkpt lat="43.21288" lon="5.82409">
        <ele>259.79998779297</ele>
        <time>2016-10-28T12:53:14.000Z</time>
      </trkpt>
      <trkpt lat="43.21297" lon="5.82419">
        <ele>260.79998779297</ele>
        <time>2016-10-28T12:53:18.000Z</time>
      </trkpt>
      <trkpt lat="43.213" lon="5.8242">
        <ele>260.79998779297</ele>
        <time>2016-10-28T12:53:19.000Z</time>
      </trkpt>
      <trkpt lat="43.21302" lon="5.82421">
        <ele>261</ele>
        <time>2016-10-28T12:53:20.000Z</time>
      </trkpt>
      <trkpt lat="43.21326" lon="5.82429">
        <ele>261.20001220703</ele>
        <time>2016-10-28T12:53:28.000Z</time>
      </trkpt>
      <trkpt lat="43.21336" lon="5.82433">
        <ele>261.39999389648</ele>
        <time>2016-10-28T12:53:32.000Z</time>
      </trkpt>
      <trkpt lat="43.21351" lon="5.82437">
        <ele>262</ele>
        <time>2016-10-28T12:53:37.000Z</time>
      </trkpt>
      <trkpt lat="43.21353" lon="5.82437">
        <ele>262.20001220703</ele>
        <time>2016-10-28T12:53:38.000Z</time>
      </trkpt>
      <trkpt lat="43.2136" lon="5.82437">
        <ele>262.60000610352</ele>
        <time>2016-10-28T12:53:40.000Z</time>
      </trkpt>
      <trkpt lat="43.21369" lon="5.82437">
        <ele>263</ele>
        <time>2016-10-28T12:53:43.000Z</time>
      </trkpt>
      <trkpt lat="43.21377" lon="5.82437">
        <ele>263.39999389648</ele>
        <time>2016-10-28T12:53:46.000Z</time>
      </trkpt>
      <trkpt lat="43.2138" lon="5.82438">
        <ele>263.60000610352</ele>
        <time>2016-10-28T12:53:47.000Z</time>
      </trkpt>
      <trkpt lat="43.21392" lon="5.8244">
        <ele>264.39999389648</ele>
        <time>2016-10-28T12:53:51.000Z</time>
      </trkpt>
      <trkpt lat="43.21398" lon="5.82442">
        <ele>265</ele>
        <time>2016-10-28T12:53:53.000Z</time>
      </trkpt>
      <trkpt lat="43.21409" lon="5.8245">
        <ele>266.39999389648</ele>
        <time>2016-10-28T12:53:57.000Z</time>
      </trkpt>
      <trkpt lat="43.21413" lon="5.82457">
        <ele>267.39999389648</ele>
        <time>2016-10-28T12:53:59.000Z</time>
      </trkpt>
      <trkpt lat="43.21416" lon="5.82464">
        <ele>268.39999389648</ele>
        <time>2016-10-28T12:54:01.000Z</time>
      </trkpt>
      <trkpt lat="43.21418" lon="5.82477">
        <ele>270</ele>
        <time>2016-10-28T12:54:04.000Z</time>
      </trkpt>
      <trkpt lat="43.2142" lon="5.82489">
        <ele>271.60000610352</ele>
        <time>2016-10-28T12:54:07.000Z</time>
      </trkpt>
      <trkpt lat="43.21422" lon="5.82502">
        <ele>273.20001220703</ele>
        <time>2016-10-28T12:54:10.000Z</time>
      </trkpt>
      <trkpt lat="43.21425" lon="5.82515">
        <ele>275</ele>
        <time>2016-10-28T12:54:13.000Z</time>
      </trkpt>
      <trkpt lat="43.21426" lon="5.82523">
        <ele>276</ele>
        <time>2016-10-28T12:54:15.000Z</time>
      </trkpt>
      <trkpt lat="43.21426" lon="5.82527">
        <ele>276.39999389648</ele>
        <time>2016-10-28T12:54:16.000Z</time>
      </trkpt>
      <trkpt lat="43.21423" lon="5.82544">
        <ele>278.39999389648</ele>
        <time>2016-10-28T12:54:20.000Z</time>
      </trkpt>
      <trkpt lat="43.21422" lon="5.82552">
        <ele>279</ele>
        <time>2016-10-28T12:54:22.000Z</time>
      </trkpt>
      <trkpt lat="43.2142" lon="5.82555">
        <ele>279.20001220703</ele>
        <time>2016-10-28T12:54:23.000Z</time>
      </trkpt>
      <trkpt lat="43.21417" lon="5.82567">
        <ele>279.39999389648</ele>
        <time>2016-10-28T12:54:26.000Z</time>
      </trkpt>
      <trkpt lat="43.21415" lon="5.82574">
        <ele>279.60000610352</ele>
        <time>2016-10-28T12:54:28.000Z</time>
      </trkpt>
      <trkpt lat="43.21415" lon="5.82582">
        <ele>280.20001220703</ele>
        <time>2016-10-28T12:54:30.000Z</time>
      </trkpt>
      <trkpt lat="43.21415" lon="5.82587">
        <ele>280.39999389648</ele>
        <time>2016-10-28T12:54:31.000Z</time>
      </trkpt>
      <trkpt lat="43.2142" lon="5.82598">
        <ele>281.60000610352</ele>
        <time>2016-10-28T12:54:34.000Z</time>
      </trkpt>
      <trkpt lat="43.21423" lon="5.82601">
        <ele>282</ele>
        <time>2016-10-28T12:54:35.000Z</time>
      </trkpt>
      <trkpt lat="43.21432" lon="5.82604">
        <ele>283.39999389648</ele>
        <time>2016-10-28T12:54:38.000Z</time>
      </trkpt>
      <trkpt lat="43.21435" lon="5.82605">
        <ele>283.79998779297</ele>
        <time>2016-10-28T12:54:39.000Z</time>
      </trkpt>
      <trkpt lat="43.21444" lon="5.82606">
        <ele>285.20001220703</ele>
        <time>2016-10-28T12:54:42.000Z</time>
      </trkpt>
      <trkpt lat="43.21454" lon="5.82608">
        <ele>286.60000610352</ele>
        <time>2016-10-28T12:54:45.000Z</time>
      </trkpt>
      <trkpt lat="43.21457" lon="5.82609">
        <ele>287</ele>
        <time>2016-10-28T12:54:46.000Z</time>
      </trkpt>
      <trkpt lat="43.21464" lon="5.82608">
        <ele>287.79998779297</ele>
        <time>2016-10-28T12:54:48.000Z</time>
      </trkpt>
      <trkpt lat="43.21476" lon="5.82605">
        <ele>289.20001220703</ele>
        <time>2016-10-28T12:54:52.000Z</time>
      </trkpt>
      <trkpt lat="43.21482" lon="5.82603">
        <ele>289.60000610352</ele>
        <time>2016-10-28T12:54:54.000Z</time>
      </trkpt>
      <trkpt lat="43.21485" lon="5.82602">
        <ele>289.79998779297</ele>
        <time>2016-10-28T12:54:55.000Z</time>
      </trkpt>
      <trkpt lat="43.21497" lon="5.82596">
        <ele>290.20001220703</ele>
        <time>2016-10-28T12:54:59.000Z</time>
      </trkpt>
      <trkpt lat="43.21508" lon="5.82589">
        <ele>290.39999389648</ele>
        <time>2016-10-28T12:55:03.000Z</time>
      </trkpt>
      <trkpt lat="43.21518" lon="5.82581">
        <ele>290.39999389648</ele>
        <time>2016-10-28T12:55:07.000Z</time>
      </trkpt>
      <trkpt lat="43.21526" lon="5.82575">
        <ele>290.39999389648</ele>
        <time>2016-10-28T12:55:10.000Z</time>
      </trkpt>
      <trkpt lat="43.21528" lon="5.82574">
        <ele>290.39999389648</ele>
        <time>2016-10-28T12:55:11.000Z</time>
      </trkpt>
      <trkpt lat="43.21536" lon="5.82568">
        <ele>290.79998779297</ele>
        <time>2016-10-28T12:55:14.000Z</time>
      </trkpt>
      <trkpt lat="43.21544" lon="5.82565">
        <ele>291.79998779297</ele>
        <time>2016-10-28T12:55:17.000Z</time>
      </trkpt>
      <trkpt lat="43.21547" lon="5.82566">
        <ele>292.20001220703</ele>
        <time>2016-10-28T12:55:18.000Z</time>
      </trkpt>
      <trkpt lat="43.2155" lon="5.82569">
        <ele>292.79998779297</ele>
        <time>2016-10-28T12:55:19.000Z</time>
      </trkpt>
      <trkpt lat="43.2155" lon="5.82574">
        <ele>293.20001220703</ele>
        <time>2016-10-28T12:55:20.000Z</time>
      </trkpt>
      <trkpt lat="43.2155" lon="5.82578">
        <ele>293.39999389648</ele>
        <time>2016-10-28T12:55:21.000Z</time>
      </trkpt>
      <trkpt lat="43.21549" lon="5.82586">
        <ele>293.60000610352</ele>
        <time>2016-10-28T12:55:23.000Z</time>
      </trkpt>
      <trkpt lat="43.21548" lon="5.82589">
        <ele>293.79998779297</ele>
        <time>2016-10-28T12:55:24.000Z</time>
      </trkpt>
      <trkpt lat="43.21547" lon="5.82593">
        <ele>294</ele>
        <time>2016-10-28T12:55:25.000Z</time>
      </trkpt>
      <trkpt lat="43.21546" lon="5.826">
        <ele>294.60000610352</ele>
        <time>2016-10-28T12:55:27.000Z</time>
      </trkpt>
      <trkpt lat="43.21545" lon="5.82612">
        <ele>295.79998779297</ele>
        <time>2016-10-28T12:55:30.000Z</time>
      </trkpt>
      <trkpt lat="43.21547" lon="5.82619">
        <ele>296.79998779297</ele>
        <time>2016-10-28T12:55:32.000Z</time>
      </trkpt>
      <trkpt lat="43.2155" lon="5.82627">
        <ele>298</ele>
        <time>2016-10-28T12:55:34.000Z</time>
      </trkpt>
      <trkpt lat="43.21557" lon="5.82642">
        <ele>299.79998779297</ele>
        <time>2016-10-28T12:55:38.000Z</time>
      </trkpt>
      <trkpt lat="43.21562" lon="5.82649">
        <ele>300.20001220703</ele>
        <time>2016-10-28T12:55:40.000Z</time>
      </trkpt>
      <trkpt lat="43.21572" lon="5.82665">
        <ele>301</ele>
        <time>2016-10-28T12:55:45.000Z</time>
      </trkpt>
      <trkpt lat="43.21586" lon="5.82685">
        <ele>302.20001220703</ele>
        <time>2016-10-28T12:55:49.000Z</time>
      </trkpt>
      <trkpt lat="43.21606" lon="5.82708">
        <ele>303</ele>
        <time>2016-10-28T12:55:54.000Z</time>
      </trkpt>
      <trkpt lat="43.21619" lon="5.82719">
        <ele>303</ele>
        <time>2016-10-28T12:55:57.000Z</time>
      </trkpt>
      <trkpt lat="43.21648" lon="5.8275">
        <ele>302.39999389648</ele>
        <time>2016-10-28T12:56:05.000Z</time>
      </trkpt>
      <trkpt lat="43.2166" lon="5.82772">
        <ele>301.79998779297</ele>
        <time>2016-10-28T12:56:10.000Z</time>
      </trkpt>
      <trkpt lat="43.21661" lon="5.82776">
        <ele>301.60000610352</ele>
        <time>2016-10-28T12:56:11.000Z</time>
      </trkpt>
      <trkpt lat="43.21663" lon="5.82788">
        <ele>301.39999389648</ele>
        <time>2016-10-28T12:56:14.000Z</time>
      </trkpt>
      <trkpt lat="43.21665" lon="5.82798">
        <ele>301</ele>
        <time>2016-10-28T12:56:18.000Z</time>
      </trkpt>
      <trkpt lat="43.21667" lon="5.82805">
        <ele>300.79998779297</ele>
        <time>2016-10-28T12:56:21.000Z</time>
      </trkpt>
      <trkpt lat="43.21665" lon="5.82809">
        <ele>300.60000610352</ele>
        <time>2016-10-28T12:56:23.000Z</time>
      </trkpt>
      <trkpt lat="43.21663" lon="5.82811">
        <ele>300.39999389648</ele>
        <time>2016-10-28T12:56:24.000Z</time>
      </trkpt>
      <trkpt lat="43.21648" lon="5.82814">
        <ele>299.79998779297</ele>
        <time>2016-10-28T12:56:28.000Z</time>
      </trkpt>
      <trkpt lat="43.2163" lon="5.82816">
        <ele>299.39999389648</ele>
        <time>2016-10-28T12:56:32.000Z</time>
      </trkpt>
      <trkpt lat="43.21625" lon="5.82816">
        <ele>299.20001220703</ele>
        <time>2016-10-28T12:56:33.000Z</time>
      </trkpt>
      <trkpt lat="43.21615" lon="5.82811">
        <ele>299.20001220703</ele>
        <time>2016-10-28T12:56:35.000Z</time>
      </trkpt>
      <trkpt lat="43.21603" lon="5.82795">
        <ele>299.60000610352</ele>
        <time>2016-10-28T12:56:38.000Z</time>
      </trkpt>
      <trkpt lat="43.21598" lon="5.8279">
        <ele>299.79998779297</ele>
        <time>2016-10-28T12:56:39.000Z</time>
      </trkpt>
      <trkpt lat="43.2159" lon="5.82779">
        <ele>300.20001220703</ele>
        <time>2016-10-28T12:56:41.000Z</time>
      </trkpt>
      <trkpt lat="43.2158" lon="5.82772">
        <ele>300.20001220703</ele>
        <time>2016-10-28T12:56:43.000Z</time>
      </trkpt>
      <trkpt lat="43.21575" lon="5.8277">
        <ele>300.20001220703</ele>
        <time>2016-10-28T12:56:44.000Z</time>
      </trkpt>
      <trkpt lat="43.2157" lon="5.82774">
        <ele>300</ele>
        <time>2016-10-28T12:56:45.000Z</time>
      </trkpt>
      <trkpt lat="43.21565" lon="5.82777">
        <ele>299.60000610352</ele>
        <time>2016-10-28T12:56:46.000Z</time>
      </trkpt>
      <trkpt lat="43.21537" lon="5.82806">
        <ele>299</ele>
        <time>2016-10-28T12:56:53.000Z</time>
      </trkpt>
      <trkpt lat="43.21517" lon="5.82824">
        <ele>298.39999389648</ele>
        <time>2016-10-28T12:56:59.000Z</time>
      </trkpt>
      <trkpt lat="43.21499" lon="5.8284">
        <ele>298.60000610352</ele>
        <time>2016-10-28T12:57:05.000Z</time>
      </trkpt>
      <trkpt lat="43.21474" lon="5.82869">
        <ele>299.20001220703</ele>
        <time>2016-10-28T12:57:13.000Z</time>
      </trkpt>
      <trkpt lat="43.21455" lon="5.82897">
        <ele>299.79998779297</ele>
        <time>2016-10-28T12:57:20.000Z</time>
      </trkpt>
      <trkpt lat="43.21448" lon="5.82903">
        <ele>300</ele>
        <time>2016-10-28T12:57:22.000Z</time>
      </trkpt>
      <trkpt lat="43.21434" lon="5.82915">
        <ele>299.79998779297</ele>
        <time>2016-10-28T12:57:26.000Z</time>
      </trkpt>
      <trkpt lat="43.21424" lon="5.82924">
        <ele>299.79998779297</ele>
        <time>2016-10-28T12:57:29.000Z</time>
      </trkpt>
      <trkpt lat="43.21412" lon="5.82933">
        <ele>300</ele>
        <time>2016-10-28T12:57:32.000Z</time>
      </trkpt>
      <trkpt lat="43.21379" lon="5.82958">
        <ele>299</ele>
        <time>2016-10-28T12:57:40.000Z</time>
      </trkpt>
      <trkpt lat="43.21344" lon="5.82982">
        <ele>297.60000610352</ele>
        <time>2016-10-28T12:57:48.000Z</time>
      </trkpt>
      <trkpt lat="43.21303" lon="5.83006">
        <ele>296.79998779297</ele>
        <time>2016-10-28T12:57:56.000Z</time>
      </trkpt>
      <trkpt lat="43.21268" lon="5.83023">
        <ele>297.60000610352</ele>
        <time>2016-10-28T12:58:03.000Z</time>
      </trkpt>
      <trkpt lat="43.21246" lon="5.8303">
        <ele>296.79998779297</ele>
        <time>2016-10-28T12:58:07.000Z</time>
      </trkpt>
      <trkpt lat="43.21235" lon="5.83033">
        <ele>296.39999389648</ele>
        <time>2016-10-28T12:58:09.000Z</time>
      </trkpt>
      <trkpt lat="43.21223" lon="5.83035">
        <ele>296</ele>
        <time>2016-10-28T12:58:11.000Z</time>
      </trkpt>
      <trkpt lat="43.21192" lon="5.8304">
        <ele>295.39999389648</ele>
        <time>2016-10-28T12:58:16.000Z</time>
      </trkpt>
      <trkpt lat="43.21166" lon="5.83039">
        <ele>294.20001220703</ele>
        <time>2016-10-28T12:58:20.000Z</time>
      </trkpt>
      <trkpt lat="43.21153" lon="5.83037">
        <ele>293.39999389648</ele>
        <time>2016-10-28T12:58:22.000Z</time>
      </trkpt>
      <trkpt lat="43.21127" lon="5.83034">
        <ele>292</ele>
        <time>2016-10-28T12:58:26.000Z</time>
      </trkpt>
      <trkpt lat="43.21106" lon="5.83032">
        <ele>291</ele>
        <time>2016-10-28T12:58:29.000Z</time>
      </trkpt>
      <trkpt lat="43.21098" lon="5.83032">
        <ele>290.60000610352</ele>
        <time>2016-10-28T12:58:30.000Z</time>
      </trkpt>
      <trkpt lat="43.21061" lon="5.83028">
        <ele>287.39999389648</ele>
        <time>2016-10-28T12:58:35.000Z</time>
      </trkpt>
      <trkpt lat="43.21046" lon="5.83022">
        <ele>286</ele>
        <time>2016-10-28T12:58:37.000Z</time>
      </trkpt>
      <trkpt lat="43.21032" lon="5.83016">
        <ele>284.60000610352</ele>
        <time>2016-10-28T12:58:39.000Z</time>
      </trkpt>
      <trkpt lat="43.21012" lon="5.83006">
        <ele>282.39999389648</ele>
        <time>2016-10-28T12:58:42.000Z</time>
      </trkpt>
      <trkpt lat="43.20994" lon="5.82996">
        <ele>280.79998779297</ele>
        <time>2016-10-28T12:58:45.000Z</time>
      </trkpt>
      <trkpt lat="43.20977" lon="5.82983">
        <ele>279.20001220703</ele>
        <time>2016-10-28T12:58:48.000Z</time>
      </trkpt>
      <trkpt lat="43.20965" lon="5.82971">
        <ele>278</ele>
        <time>2016-10-28T12:58:50.000Z</time>
      </trkpt>
      <trkpt lat="43.20952" lon="5.82958">
        <ele>276.60000610352</ele>
        <time>2016-10-28T12:58:52.000Z</time>
      </trkpt>
      <trkpt lat="43.20945" lon="5.82951">
        <ele>276</ele>
        <time>2016-10-28T12:58:53.000Z</time>
      </trkpt>
      <trkpt lat="43.20938" lon="5.82945">
        <ele>275.20001220703</ele>
        <time>2016-10-28T12:58:54.000Z</time>
      </trkpt>
      <trkpt lat="43.20931" lon="5.82939">
        <ele>274.39999389648</ele>
        <time>2016-10-28T12:58:55.000Z</time>
      </trkpt>
      <trkpt lat="43.20924" lon="5.82933">
        <ele>273.60000610352</ele>
        <time>2016-10-28T12:58:56.000Z</time>
      </trkpt>
      <trkpt lat="43.20917" lon="5.82927">
        <ele>272.60000610352</ele>
        <time>2016-10-28T12:58:57.000Z</time>
      </trkpt>
      <trkpt lat="43.2091" lon="5.8292">
        <ele>271.60000610352</ele>
        <time>2016-10-28T12:58:58.000Z</time>
      </trkpt>
      <trkpt lat="43.20903" lon="5.82914">
        <ele>270.60000610352</ele>
        <time>2016-10-28T12:58:59.000Z</time>
      </trkpt>
      <trkpt lat="43.20896" lon="5.82907">
        <ele>269.39999389648</ele>
        <time>2016-10-28T12:59:00.000Z</time>
      </trkpt>
      <trkpt lat="43.20889" lon="5.82901">
        <ele>268.39999389648</ele>
        <time>2016-10-28T12:59:01.000Z</time>
      </trkpt>
      <trkpt lat="43.20881" lon="5.82894">
        <ele>267.39999389648</ele>
        <time>2016-10-28T12:59:02.000Z</time>
      </trkpt>
      <trkpt lat="43.20873" lon="5.82888">
        <ele>266.20001220703</ele>
        <time>2016-10-28T12:59:03.000Z</time>
      </trkpt>
      <trkpt lat="43.20866" lon="5.82881">
        <ele>264.79998779297</ele>
        <time>2016-10-28T12:59:04.000Z</time>
      </trkpt>
      <trkpt lat="43.20858" lon="5.82874">
        <ele>263.39999389648</ele>
        <time>2016-10-28T12:59:05.000Z</time>
      </trkpt>
      <trkpt lat="43.2085" lon="5.82868">
        <ele>262</ele>
        <time>2016-10-28T12:59:06.000Z</time>
      </trkpt>
      <trkpt lat="43.20842" lon="5.82862">
        <ele>260.79998779297</ele>
        <time>2016-10-28T12:59:07.000Z</time>
      </trkpt>
      <trkpt lat="43.20834" lon="5.82856">
        <ele>260</ele>
        <time>2016-10-28T12:59:08.000Z</time>
      </trkpt>
      <trkpt lat="43.20826" lon="5.82851">
        <ele>259</ele>
        <time>2016-10-28T12:59:09.000Z</time>
      </trkpt>
      <trkpt lat="43.20818" lon="5.82845">
        <ele>258.20001220703</ele>
        <time>2016-10-28T12:59:10.000Z</time>
      </trkpt>
      <trkpt lat="43.20811" lon="5.82839">
        <ele>257.39999389648</ele>
        <time>2016-10-28T12:59:11.000Z</time>
      </trkpt>
      <trkpt lat="43.20804" lon="5.82831">
        <ele>256.39999389648</ele>
        <time>2016-10-28T12:59:12.000Z</time>
      </trkpt>
      <trkpt lat="43.20799" lon="5.82821">
        <ele>255.39999389648</ele>
        <time>2016-10-28T12:59:13.000Z</time>
      </trkpt>
      <trkpt lat="43.20795" lon="5.82809">
        <ele>254.19999694824</ele>
        <time>2016-10-28T12:59:14.000Z</time>
      </trkpt>
      <trkpt lat="43.20791" lon="5.82797">
        <ele>253.19999694824</ele>
        <time>2016-10-28T12:59:15.000Z</time>
      </trkpt>
      <trkpt lat="43.20783" lon="5.82775">
        <ele>251</ele>
        <time>2016-10-28T12:59:17.000Z</time>
      </trkpt>
      <trkpt lat="43.20774" lon="5.82756">
        <ele>249.19999694824</ele>
        <time>2016-10-28T12:59:19.000Z</time>
      </trkpt>
      <trkpt lat="43.20769" lon="5.82748">
        <ele>248.19999694824</ele>
        <time>2016-10-28T12:59:20.000Z</time>
      </trkpt>
      <trkpt lat="43.20764" lon="5.82741">
        <ele>247.39999389648</ele>
        <time>2016-10-28T12:59:21.000Z</time>
      </trkpt>
      <trkpt lat="43.2075" lon="5.82732">
        <ele>246.39999389648</ele>
        <time>2016-10-28T12:59:23.000Z</time>
      </trkpt>
      <trkpt lat="43.20735" lon="5.82728">
        <ele>245.80000305176</ele>
        <time>2016-10-28T12:59:25.000Z</time>
      </trkpt>
      <trkpt lat="43.20727" lon="5.82726">
        <ele>245.39999389648</ele>
        <time>2016-10-28T12:59:26.000Z</time>
      </trkpt>
      <trkpt lat="43.20713" lon="5.8272">
        <ele>244.80000305176</ele>
        <time>2016-10-28T12:59:28.000Z</time>
      </trkpt>
      <trkpt lat="43.20706" lon="5.82717">
        <ele>244.80000305176</ele>
        <time>2016-10-28T12:59:29.000Z</time>
      </trkpt>
      <trkpt lat="43.20688" lon="5.82706">
        <ele>244.60000610352</ele>
        <time>2016-10-28T12:59:32.000Z</time>
      </trkpt>
      <trkpt lat="43.20683" lon="5.82701">
        <ele>244.60000610352</ele>
        <time>2016-10-28T12:59:33.000Z</time>
      </trkpt>
      <trkpt lat="43.20668" lon="5.8268">
        <ele>245.39999389648</ele>
        <time>2016-10-28T12:59:37.000Z</time>
      </trkpt>
      <trkpt lat="43.20653" lon="5.82659">
        <ele>246.39999389648</ele>
        <time>2016-10-28T12:59:42.000Z</time>
      </trkpt>
      <trkpt lat="43.20638" lon="5.82646">
        <ele>247.19999694824</ele>
        <time>2016-10-28T12:59:47.000Z</time>
      </trkpt>
      <trkpt lat="43.20632" lon="5.8264">
        <ele>247.60000610352</ele>
        <time>2016-10-28T12:59:49.000Z</time>
      </trkpt>
      <trkpt lat="43.20618" lon="5.82627">
        <ele>247.80000305176</ele>
        <time>2016-10-28T12:59:54.000Z</time>
      </trkpt>
      <trkpt lat="43.20601" lon="5.82612">
        <ele>247.80000305176</ele>
        <time>2016-10-28T12:59:59.000Z</time>
      </trkpt>
      <trkpt lat="43.20593" lon="5.82604">
        <ele>247.60000610352</ele>
        <time>2016-10-28T13:00:01.000Z</time>
      </trkpt>
      <trkpt lat="43.20585" lon="5.82594">
        <ele>246.60000610352</ele>
        <time>2016-10-28T13:00:03.000Z</time>
      </trkpt>
      <trkpt lat="43.20581" lon="5.8259">
        <ele>246</ele>
        <time>2016-10-28T13:00:04.000Z</time>
      </trkpt>
      <trkpt lat="43.20575" lon="5.82578">
        <ele>245.19999694824</ele>
        <time>2016-10-28T13:00:06.000Z</time>
      </trkpt>
      <trkpt lat="43.20565" lon="5.8256">
        <ele>243.60000610352</ele>
        <time>2016-10-28T13:00:09.000Z</time>
      </trkpt>
      <trkpt lat="43.20556" lon="5.82542">
        <ele>241.80000305176</ele>
        <time>2016-10-28T13:00:12.000Z</time>
      </trkpt>
      <trkpt lat="43.20552" lon="5.82537">
        <ele>241.19999694824</ele>
        <time>2016-10-28T13:00:13.000Z</time>
      </trkpt>
      <trkpt lat="43.20548" lon="5.82531">
        <ele>240.60000610352</ele>
        <time>2016-10-28T13:00:14.000Z</time>
      </trkpt>
      <trkpt lat="43.20537" lon="5.82519">
        <ele>239</ele>
        <time>2016-10-28T13:00:17.000Z</time>
      </trkpt>
      <trkpt lat="43.20518" lon="5.82486">
        <ele>235.39999389648</ele>
        <time>2016-10-28T13:00:22.000Z</time>
      </trkpt>
      <trkpt lat="43.20511" lon="5.82473">
        <ele>234</ele>
        <time>2016-10-28T13:00:24.000Z</time>
      </trkpt>
      <trkpt lat="43.20504" lon="5.8246">
        <ele>232.39999389648</ele>
        <time>2016-10-28T13:00:26.000Z</time>
      </trkpt>
      <trkpt lat="43.20498" lon="5.82448">
        <ele>230.80000305176</ele>
        <time>2016-10-28T13:00:28.000Z</time>
      </trkpt>
      <trkpt lat="43.20494" lon="5.82443">
        <ele>230.19999694824</ele>
        <time>2016-10-28T13:00:29.000Z</time>
      </trkpt>
      <trkpt lat="43.20491" lon="5.82437">
        <ele>229.39999389648</ele>
        <time>2016-10-28T13:00:30.000Z</time>
      </trkpt>
      <trkpt lat="43.20485" lon="5.82425">
        <ele>228</ele>
        <time>2016-10-28T13:00:32.000Z</time>
      </trkpt>
      <trkpt lat="43.2048" lon="5.82411">
        <ele>226.60000610352</ele>
        <time>2016-10-28T13:00:34.000Z</time>
      </trkpt>
      <trkpt lat="43.20478" lon="5.82404">
        <ele>226</ele>
        <time>2016-10-28T13:00:35.000Z</time>
      </trkpt>
      <trkpt lat="43.20476" lon="5.82397">
        <ele>225.19999694824</ele>
        <time>2016-10-28T13:00:36.000Z</time>
      </trkpt>
      <trkpt lat="43.20473" lon="5.82382">
        <ele>224.19999694824</ele>
        <time>2016-10-28T13:00:38.000Z</time>
      </trkpt>
      <trkpt lat="43.2047" lon="5.82376">
        <ele>224</ele>
        <time>2016-10-28T13:00:39.000Z</time>
      </trkpt>
      <trkpt lat="43.20467" lon="5.82369">
        <ele>223.60000610352</ele>
        <time>2016-10-28T13:00:40.000Z</time>
      </trkpt>
      <trkpt lat="43.20464" lon="5.82363">
        <ele>223.19999694824</ele>
        <time>2016-10-28T13:00:41.000Z</time>
      </trkpt>
      <trkpt lat="43.2046" lon="5.82357">
        <ele>222.80000305176</ele>
        <time>2016-10-28T13:00:42.000Z</time>
      </trkpt>
      <trkpt lat="43.2045" lon="5.82345">
        <ele>221.60000610352</ele>
        <time>2016-10-28T13:00:44.000Z</time>
      </trkpt>
      <trkpt lat="43.2044" lon="5.82331">
        <ele>220.39999389648</ele>
        <time>2016-10-28T13:00:46.000Z</time>
      </trkpt>
      <trkpt lat="43.20431" lon="5.82317">
        <ele>219.19999694824</ele>
        <time>2016-10-28T13:00:48.000Z</time>
      </trkpt>
      <trkpt lat="43.20422" lon="5.82303">
        <ele>218.39999389648</ele>
        <time>2016-10-28T13:00:50.000Z</time>
      </trkpt>
      <trkpt lat="43.20413" lon="5.82291">
        <ele>218.39999389648</ele>
        <time>2016-10-28T13:00:52.000Z</time>
      </trkpt>
      <trkpt lat="43.20405" lon="5.82279">
        <ele>218</ele>
        <time>2016-10-28T13:00:54.000Z</time>
      </trkpt>
      <trkpt lat="43.20381" lon="5.82245">
        <ele>217</ele>
        <time>2016-10-28T13:01:00.000Z</time>
      </trkpt>
      <trkpt lat="43.20369" lon="5.8223">
        <ele>216.39999389648</ele>
        <time>2016-10-28T13:01:03.000Z</time>
      </trkpt>
      <trkpt lat="43.20361" lon="5.8222">
        <ele>216.19999694824</ele>
        <time>2016-10-28T13:01:05.000Z</time>
      </trkpt>
      <trkpt lat="43.20356" lon="5.82216">
        <ele>216</ele>
        <time>2016-10-28T13:01:06.000Z</time>
      </trkpt>
      <trkpt lat="43.20351" lon="5.82212">
        <ele>216</ele>
        <time>2016-10-28T13:01:07.000Z</time>
      </trkpt>
      <trkpt lat="43.20331" lon="5.82194">
        <ele>214.60000610352</ele>
        <time>2016-10-28T13:01:11.000Z</time>
      </trkpt>
      <trkpt lat="43.20322" lon="5.82184">
        <ele>213.60000610352</ele>
        <time>2016-10-28T13:01:13.000Z</time>
      </trkpt>
      <trkpt lat="43.20317" lon="5.82178">
        <ele>213.19999694824</ele>
        <time>2016-10-28T13:01:14.000Z</time>
      </trkpt>
      <trkpt lat="43.20308" lon="5.82168">
        <ele>212.19999694824</ele>
        <time>2016-10-28T13:01:16.000Z</time>
      </trkpt>
      <trkpt lat="43.20299" lon="5.82157">
        <ele>211.39999389648</ele>
        <time>2016-10-28T13:01:18.000Z</time>
      </trkpt>
      <trkpt lat="43.20295" lon="5.82152">
        <ele>211</ele>
        <time>2016-10-28T13:01:19.000Z</time>
      </trkpt>
      <trkpt lat="43.20291" lon="5.82146">
        <ele>210.60000610352</ele>
        <time>2016-10-28T13:01:20.000Z</time>
      </trkpt>
      <trkpt lat="43.20278" lon="5.82128">
        <ele>208.80000305176</ele>
        <time>2016-10-28T13:01:23.000Z</time>
      </trkpt>
      <trkpt lat="43.2027" lon="5.82115">
        <ele>207.60000610352</ele>
        <time>2016-10-28T13:01:25.000Z</time>
      </trkpt>
      <trkpt lat="43.20263" lon="5.82102">
        <ele>206.39999389648</ele>
        <time>2016-10-28T13:01:27.000Z</time>
      </trkpt>
      <trkpt lat="43.20248" lon="5.8208">
        <ele>204.60000610352</ele>
        <time>2016-10-28T13:01:31.000Z</time>
      </trkpt>
      <trkpt lat="43.20242" lon="5.82072">
        <ele>203.80000305176</ele>
        <time>2016-10-28T13:01:33.000Z</time>
      </trkpt>
      <trkpt lat="43.20232" lon="5.82061">
        <ele>202.80000305176</ele>
        <time>2016-10-28T13:01:36.000Z</time>
      </trkpt>
      <trkpt lat="43.20212" lon="5.82038">
        <ele>200.60000610352</ele>
        <time>2016-10-28T13:01:41.000Z</time>
      </trkpt>
      <trkpt lat="43.20204" lon="5.82028">
        <ele>199.60000610352</ele>
        <time>2016-10-28T13:01:43.000Z</time>
      </trkpt>
      <trkpt lat="43.202" lon="5.82023">
        <ele>199</ele>
        <time>2016-10-28T13:01:44.000Z</time>
      </trkpt>
      <trkpt lat="43.20183" lon="5.82003">
        <ele>197.19999694824</ele>
        <time>2016-10-28T13:01:48.000Z</time>
      </trkpt>
      <trkpt lat="43.20172" lon="5.81988">
        <ele>195.80000305176</ele>
        <time>2016-10-28T13:01:51.000Z</time>
      </trkpt>
      <trkpt lat="43.20168" lon="5.81982">
        <ele>195.39999389648</ele>
        <time>2016-10-28T13:01:52.000Z</time>
      </trkpt>
      <trkpt lat="43.20161" lon="5.81973">
        <ele>194.60000610352</ele>
        <time>2016-10-28T13:01:54.000Z</time>
      </trkpt>
      <trkpt lat="43.20153" lon="5.81961">
        <ele>194</ele>
        <time>2016-10-28T13:01:57.000Z</time>
      </trkpt>
      <trkpt lat="43.20143" lon="5.81943">
        <ele>193.19999694824</ele>
        <time>2016-10-28T13:02:02.000Z</time>
      </trkpt>
      <trkpt lat="43.2013" lon="5.81931">
        <ele>192.39999389648</ele>
        <time>2016-10-28T13:02:06.000Z</time>
      </trkpt>
      <trkpt lat="43.20122" lon="5.81922">
        <ele>191.80000305176</ele>
        <time>2016-10-28T13:02:08.000Z</time>
      </trkpt>
      <trkpt lat="43.20103" lon="5.81907">
        <ele>190.80000305176</ele>
        <time>2016-10-28T13:02:12.000Z</time>
      </trkpt>
      <trkpt lat="43.20093" lon="5.81899">
        <ele>190.19999694824</ele>
        <time>2016-10-28T13:02:14.000Z</time>
      </trkpt>
      <trkpt lat="43.20083" lon="5.81891">
        <ele>189.39999389648</ele>
        <time>2016-10-28T13:02:16.000Z</time>
      </trkpt>
      <trkpt lat="43.20072" lon="5.81882">
        <ele>188.39999389648</ele>
        <time>2016-10-28T13:02:18.000Z</time>
      </trkpt>
      <trkpt lat="43.20062" lon="5.81874">
        <ele>187.60000610352</ele>
        <time>2016-10-28T13:02:20.000Z</time>
      </trkpt>
      <trkpt lat="43.20057" lon="5.8187">
        <ele>187.19999694824</ele>
        <time>2016-10-28T13:02:21.000Z</time>
      </trkpt>
      <trkpt lat="43.20047" lon="5.81862">
        <ele>186.39999389648</ele>
        <time>2016-10-28T13:02:23.000Z</time>
      </trkpt>
      <trkpt lat="43.20032" lon="5.8185">
        <ele>185.19999694824</ele>
        <time>2016-10-28T13:02:26.000Z</time>
      </trkpt>
      <trkpt lat="43.20023" lon="5.81841">
        <ele>184.60000610352</ele>
        <time>2016-10-28T13:02:28.000Z</time>
      </trkpt>
      <trkpt lat="43.20014" lon="5.81834">
        <ele>183.80000305176</ele>
        <time>2016-10-28T13:02:30.000Z</time>
      </trkpt>
      <trkpt lat="43.20007" lon="5.81826">
        <ele>183.39999389648</ele>
        <time>2016-10-28T13:02:32.000Z</time>
      </trkpt>
      <trkpt lat="43.20005" lon="5.81821">
        <ele>183.19999694824</ele>
        <time>2016-10-28T13:02:33.000Z</time>
      </trkpt>
      <trkpt lat="43.19999" lon="5.81805">
        <ele>182.60000610352</ele>
        <time>2016-10-28T13:02:36.000Z</time>
      </trkpt>
      <trkpt lat="43.19994" lon="5.81787">
        <ele>181.39999389648</ele>
        <time>2016-10-28T13:02:39.000Z</time>
      </trkpt>
      <trkpt lat="43.19992" lon="5.81781">
        <ele>181.19999694824</ele>
        <time>2016-10-28T13:02:40.000Z</time>
      </trkpt>
      <trkpt lat="43.1999" lon="5.81776">
        <ele>181</ele>
        <time>2016-10-28T13:02:41.000Z</time>
      </trkpt>
      <trkpt lat="43.19982" lon="5.81756">
        <ele>180</ele>
        <time>2016-10-28T13:02:45.000Z</time>
      </trkpt>
      <trkpt lat="43.19968" lon="5.81719">
        <ele>178.19999694824</ele>
        <time>2016-10-28T13:02:51.000Z</time>
      </trkpt>
      <trkpt lat="43.19965" lon="5.81713">
        <ele>177.80000305176</ele>
        <time>2016-10-28T13:02:52.000Z</time>
      </trkpt>
      <trkpt lat="43.19961" lon="5.81708">
        <ele>177.39999389648</ele>
        <time>2016-10-28T13:02:53.000Z</time>
      </trkpt>
      <trkpt lat="43.19952" lon="5.81699">
        <ele>176.60000610352</ele>
        <time>2016-10-28T13:02:55.000Z</time>
      </trkpt>
      <trkpt lat="43.19947" lon="5.81694">
        <ele>176.19999694824</ele>
        <time>2016-10-28T13:02:56.000Z</time>
      </trkpt>
      <trkpt lat="43.19937" lon="5.81684">
        <ele>175.19999694824</ele>
        <time>2016-10-28T13:02:58.000Z</time>
      </trkpt>
      <trkpt lat="43.1993" lon="5.81672">
        <ele>174.19999694824</ele>
        <time>2016-10-28T13:03:00.000Z</time>
      </trkpt>
      <trkpt lat="43.19922" lon="5.81659">
        <ele>173.60000610352</ele>
        <time>2016-10-28T13:03:02.000Z</time>
      </trkpt>
      <trkpt lat="43.19919" lon="5.81653">
        <ele>173.19999694824</ele>
        <time>2016-10-28T13:03:03.000Z</time>
      </trkpt>
      <trkpt lat="43.19917" lon="5.81645">
        <ele>172.80000305176</ele>
        <time>2016-10-28T13:03:04.000Z</time>
      </trkpt>
      <trkpt lat="43.19911" lon="5.81629">
        <ele>171.60000610352</ele>
        <time>2016-10-28T13:03:06.000Z</time>
      </trkpt>
      <trkpt lat="43.19908" lon="5.8162">
        <ele>171</ele>
        <time>2016-10-28T13:03:07.000Z</time>
      </trkpt>
      <trkpt lat="43.19905" lon="5.81612">
        <ele>170.39999389648</ele>
        <time>2016-10-28T13:03:08.000Z</time>
      </trkpt>
      <trkpt lat="43.19899" lon="5.81595">
        <ele>169.39999389648</ele>
        <time>2016-10-28T13:03:10.000Z</time>
      </trkpt>
      <trkpt lat="43.19893" lon="5.8158">
        <ele>168.39999389648</ele>
        <time>2016-10-28T13:03:12.000Z</time>
      </trkpt>
      <trkpt lat="43.19888" lon="5.81566">
        <ele>167.39999389648</ele>
        <time>2016-10-28T13:03:14.000Z</time>
      </trkpt>
      <trkpt lat="43.19882" lon="5.81553">
        <ele>166.60000610352</ele>
        <time>2016-10-28T13:03:16.000Z</time>
      </trkpt>
      <trkpt lat="43.19873" lon="5.81542">
        <ele>165.80000305176</ele>
        <time>2016-10-28T13:03:18.000Z</time>
      </trkpt>
      <trkpt lat="43.19869" lon="5.81536">
        <ele>165.19999694824</ele>
        <time>2016-10-28T13:03:19.000Z</time>
      </trkpt>
      <trkpt lat="43.19839" lon="5.81499">
        <ele>162.60000610352</ele>
        <time>2016-10-28T13:03:26.000Z</time>
      </trkpt>
      <trkpt lat="43.19836" lon="5.81495">
        <ele>162.39999389648</ele>
        <time>2016-10-28T13:03:27.000Z</time>
      </trkpt>
      <trkpt lat="43.19829" lon="5.81487">
        <ele>162</ele>
        <time>2016-10-28T13:03:29.000Z</time>
      </trkpt>
      <trkpt lat="43.1982" lon="5.81473">
        <ele>161.39999389648</ele>
        <time>2016-10-28T13:03:32.000Z</time>
      </trkpt>
      <trkpt lat="43.19796" lon="5.8144">
        <ele>161.19999694824</ele>
        <time>2016-10-28T13:03:39.000Z</time>
      </trkpt>
      <trkpt lat="43.19768" lon="5.81411">
        <ele>160.80000305176</ele>
        <time>2016-10-28T13:03:46.000Z</time>
      </trkpt>
      <trkpt lat="43.19743" lon="5.8139">
        <ele>160.39999389648</ele>
        <time>2016-10-28T13:03:53.000Z</time>
      </trkpt>
      <trkpt lat="43.19727" lon="5.81372">
        <ele>159.60000610352</ele>
        <time>2016-10-28T13:03:58.000Z</time>
      </trkpt>
      <trkpt lat="43.19714" lon="5.81357">
        <ele>158.80000305176</ele>
        <time>2016-10-28T13:04:02.000Z</time>
      </trkpt>
      <trkpt lat="43.19687" lon="5.81322">
        <ele>157.60000610352</ele>
        <time>2016-10-28T13:04:10.000Z</time>
      </trkpt>
      <trkpt lat="43.19684" lon="5.81318">
        <ele>157.39999389648</ele>
        <time>2016-10-28T13:04:11.000Z</time>
      </trkpt>
      <trkpt lat="43.19674" lon="5.81307">
        <ele>157.19999694824</ele>
        <time>2016-10-28T13:04:14.000Z</time>
      </trkpt>
      <trkpt lat="43.19663" lon="5.81302">
        <ele>157.39999389648</ele>
        <time>2016-10-28T13:04:17.000Z</time>
      </trkpt>
      <trkpt lat="43.19645" lon="5.81309">
        <ele>157.80000305176</ele>
        <time>2016-10-28T13:04:22.000Z</time>
      </trkpt>
      <trkpt lat="43.19642" lon="5.81311">
        <ele>158</ele>
        <time>2016-10-28T13:04:23.000Z</time>
      </trkpt>
      <trkpt lat="43.1962" lon="5.8133">
        <ele>158.60000610352</ele>
        <time>2016-10-28T13:04:30.000Z</time>
      </trkpt>
      <trkpt lat="43.19594" lon="5.8135">
        <ele>159</ele>
        <time>2016-10-28T13:04:38.000Z</time>
      </trkpt>
      <trkpt lat="43.19571" lon="5.81366">
        <ele>159.60000610352</ele>
        <time>2016-10-28T13:04:45.000Z</time>
      </trkpt>
      <trkpt lat="43.19547" lon="5.81386">
        <ele>160.19999694824</ele>
        <time>2016-10-28T13:04:53.000Z</time>
      </trkpt>
      <trkpt lat="43.19544" lon="5.81388">
        <ele>160.19999694824</ele>
        <time>2016-10-28T13:04:54.000Z</time>
      </trkpt>
      <trkpt lat="43.19516" lon="5.81401">
        <ele>160.80000305176</ele>
        <time>2016-10-28T13:05:03.000Z</time>
      </trkpt>
      <trkpt lat="43.19497" lon="5.81421">
        <ele>160.60000610352</ele>
        <time>2016-10-28T13:05:10.000Z</time>
      </trkpt>
      <trkpt lat="43.19487" lon="5.81446">
        <ele>160.39999389648</ele>
        <time>2016-10-28T13:05:16.000Z</time>
      </trkpt>
      <trkpt lat="43.19486" lon="5.8145">
        <ele>160.39999389648</ele>
        <time>2016-10-28T13:05:17.000Z</time>
      </trkpt>
      <trkpt lat="43.19479" lon="5.81496">
        <ele>160.39999389648</ele>
        <time>2016-10-28T13:05:27.000Z</time>
      </trkpt>
      <trkpt lat="43.19474" lon="5.81549">
        <ele>159.39999389648</ele>
        <time>2016-10-28T13:05:38.000Z</time>
      </trkpt>
      <trkpt lat="43.19468" lon="5.81574">
        <ele>159</ele>
        <time>2016-10-28T13:05:44.000Z</time>
      </trkpt>
      <trkpt lat="43.19464" lon="5.81581">
        <ele>158.80000305176</ele>
        <time>2016-10-28T13:05:47.000Z</time>
      </trkpt>
      <trkpt lat="43.19458" lon="5.8159">
        <ele>158.80000305176</ele>
        <time>2016-10-28T13:05:51.000Z</time>
      </trkpt>
      <trkpt lat="43.19439" lon="5.81613">
        <ele>158.80000305176</ele>
        <time>2016-10-28T13:06:01.000Z</time>
      </trkpt>
      <trkpt lat="43.19419" lon="5.8164">
        <ele>159.19999694824</ele>
        <time>2016-10-28T13:06:12.000Z</time>
      </trkpt>
      <trkpt lat="43.19401" lon="5.81665">
        <ele>160.60000610352</ele>
        <time>2016-10-28T13:06:20.000Z</time>
      </trkpt>
      <trkpt lat="43.19386" lon="5.81692">
        <ele>161.60000610352</ele>
        <time>2016-10-28T13:06:27.000Z</time>
      </trkpt>
      <trkpt lat="43.19368" lon="5.81703">
        <ele>161.80000305176</ele>
        <time>2016-10-28T13:06:33.000Z</time>
      </trkpt>
      <trkpt lat="43.19357" lon="5.81715">
        <ele>162</ele>
        <time>2016-10-28T13:06:38.000Z</time>
      </trkpt>
      <trkpt lat="43.1935" lon="5.81744">
        <ele>162</ele>
        <time>2016-10-28T13:06:45.000Z</time>
      </trkpt>
      <trkpt lat="43.19337" lon="5.81782">
        <ele>161.39999389648</ele>
        <time>2016-10-28T13:06:54.000Z</time>
      </trkpt>
      <trkpt lat="43.19334" lon="5.8179">
        <ele>161.39999389648</ele>
        <time>2016-10-28T13:06:56.000Z</time>
      </trkpt>
      <trkpt lat="43.19326" lon="5.81815">
        <ele>161.60000610352</ele>
        <time>2016-10-28T13:07:02.000Z</time>
      </trkpt>
      <trkpt lat="43.19318" lon="5.81847">
        <ele>162.80000305176</ele>
        <time>2016-10-28T13:07:09.000Z</time>
      </trkpt>
      <trkpt lat="43.1931" lon="5.81873">
        <ele>163.80000305176</ele>
        <time>2016-10-28T13:07:15.000Z</time>
      </trkpt>
      <trkpt lat="43.19297" lon="5.81904">
        <ele>164.80000305176</ele>
        <time>2016-10-28T13:07:23.000Z</time>
      </trkpt>
      <trkpt lat="43.19285" lon="5.81928">
        <ele>165</ele>
        <time>2016-10-28T13:07:29.000Z</time>
      </trkpt>
      <trkpt lat="43.19267" lon="5.81956">
        <ele>165</ele>
        <time>2016-10-28T13:07:36.000Z</time>
      </trkpt>
      <trkpt lat="43.1925" lon="5.81973">
        <ele>164.80000305176</ele>
        <time>2016-10-28T13:07:42.000Z</time>
      </trkpt>
      <trkpt lat="43.19233" lon="5.81985">
        <ele>164.60000610352</ele>
        <time>2016-10-28T13:07:47.000Z</time>
      </trkpt>
      <trkpt lat="43.19226" lon="5.81989">
        <ele>164.39999389648</ele>
        <time>2016-10-28T13:07:49.000Z</time>
      </trkpt>
      <trkpt lat="43.19191" lon="5.82012">
        <ele>164</ele>
        <time>2016-10-28T13:07:59.000Z</time>
      </trkpt>
      <trkpt lat="43.1917" lon="5.82031">
        <ele>164.19999694824</ele>
        <time>2016-10-28T13:08:06.000Z</time>
      </trkpt>
      <trkpt lat="43.19149" lon="5.82053">
        <ele>164</ele>
        <time>2016-10-28T13:08:14.000Z</time>
      </trkpt>
      <trkpt lat="43.1913" lon="5.82056">
        <ele>164</ele>
        <time>2016-10-28T13:08:20.000Z</time>
      </trkpt>
      <trkpt lat="43.19105" lon="5.82062">
        <ele>164.19999694824</ele>
        <time>2016-10-28T13:08:28.000Z</time>
      </trkpt>
      <trkpt lat="43.19078" lon="5.82079">
        <ele>165.39999389648</ele>
        <time>2016-10-28T13:08:36.000Z</time>
      </trkpt>
      <trkpt lat="43.19043" lon="5.82101">
        <ele>167</ele>
        <time>2016-10-28T13:08:46.000Z</time>
      </trkpt>
      <trkpt lat="43.19012" lon="5.82112">
        <ele>166.60000610352</ele>
        <time>2016-10-28T13:08:54.000Z</time>
      </trkpt>
      <trkpt lat="43.1898" lon="5.82116">
        <ele>166.39999389648</ele>
        <time>2016-10-28T13:09:02.000Z</time>
      </trkpt>
      <trkpt lat="43.1895" lon="5.82115">
        <ele>166.80000305176</ele>
        <time>2016-10-28T13:09:10.000Z</time>
      </trkpt>
      <trkpt lat="43.18923" lon="5.82109">
        <ele>167</ele>
        <time>2016-10-28T13:09:17.000Z</time>
      </trkpt>
      <trkpt lat="43.18914" lon="5.82107">
        <ele>167</ele>
        <time>2016-10-28T13:09:19.000Z</time>
      </trkpt>
      <trkpt lat="43.18879" lon="5.82099">
        <ele>166.80000305176</ele>
        <time>2016-10-28T13:09:27.000Z</time>
      </trkpt>
      <trkpt lat="43.18853" lon="5.8209">
        <ele>166.60000610352</ele>
        <time>2016-10-28T13:09:33.000Z</time>
      </trkpt>
      <trkpt lat="43.18849" lon="5.82088">
        <ele>166.60000610352</ele>
        <time>2016-10-28T13:09:34.000Z</time>
      </trkpt>
      <trkpt lat="43.18825" lon="5.82072">
        <ele>167.19999694824</ele>
        <time>2016-10-28T13:09:40.000Z</time>
      </trkpt>
      <trkpt lat="43.18822" lon="5.82069">
        <ele>167.39999389648</ele>
        <time>2016-10-28T13:09:41.000Z</time>
      </trkpt>
      <trkpt lat="43.18794" lon="5.82038">
        <ele>168.60000610352</ele>
        <time>2016-10-28T13:09:50.000Z</time>
      </trkpt>
      <trkpt lat="43.18791" lon="5.82035">
        <ele>168.80000305176</ele>
        <time>2016-10-28T13:09:51.000Z</time>
      </trkpt>
      <trkpt lat="43.18772" lon="5.82013">
        <ele>169.80000305176</ele>
        <time>2016-10-28T13:09:58.000Z</time>
      </trkpt>
      <trkpt lat="43.18766" lon="5.82007">
        <ele>170</ele>
        <time>2016-10-28T13:10:00.000Z</time>
      </trkpt>
      <trkpt lat="43.1875" lon="5.8199">
        <ele>171.19999694824</ele>
        <time>2016-10-28T13:10:06.000Z</time>
      </trkpt>
      <trkpt lat="43.18745" lon="5.81985">
        <ele>171.60000610352</ele>
        <time>2016-10-28T13:10:08.000Z</time>
      </trkpt>
      <trkpt lat="43.18739" lon="5.81982">
        <ele>172</ele>
        <time>2016-10-28T13:10:10.000Z</time>
      </trkpt>
      <trkpt lat="43.18736" lon="5.81983">
        <ele>172.19999694824</ele>
        <time>2016-10-28T13:10:11.000Z</time>
      </trkpt>
      <trkpt lat="43.18727" lon="5.81992">
        <ele>172.60000610352</ele>
        <time>2016-10-28T13:10:14.000Z</time>
      </trkpt>
      <trkpt lat="43.18724" lon="5.81995">
        <ele>172.60000610352</ele>
        <time>2016-10-28T13:10:15.000Z</time>
      </trkpt>
      <trkpt lat="43.18699" lon="5.82022">
        <ele>173.19999694824</ele>
        <time>2016-10-28T13:10:23.000Z</time>
      </trkpt>
      <trkpt lat="43.1867" lon="5.82049">
        <ele>173.39999389648</ele>
        <time>2016-10-28T13:10:31.000Z</time>
      </trkpt>
      <trkpt lat="43.18639" lon="5.82078">
        <ele>173.39999389648</ele>
        <time>2016-10-28T13:10:40.000Z</time>
      </trkpt>
      <trkpt lat="43.18632" lon="5.8208">
        <ele>173.60000610352</ele>
        <time>2016-10-28T13:10:43.000Z</time>
      </trkpt>
      <trkpt lat="43.1863" lon="5.82077">
        <ele>173.60000610352</ele>
        <time>2016-10-28T13:10:44.000Z</time>
      </trkpt>
      <trkpt lat="43.18627" lon="5.82066">
        <ele>174</ele>
        <time>2016-10-28T13:10:47.000Z</time>
      </trkpt>
      <trkpt lat="43.18625" lon="5.82057">
        <ele>174.19999694824</ele>
        <time>2016-10-28T13:10:49.000Z</time>
      </trkpt>
      <trkpt lat="43.18625" lon="5.82052">
        <ele>174.39999389648</ele>
        <time>2016-10-28T13:10:50.000Z</time>
      </trkpt>
      <trkpt lat="43.1862" lon="5.82025">
        <ele>175.39999389648</ele>
        <time>2016-10-28T13:10:56.000Z</time>
      </trkpt>
      <trkpt lat="43.18612" lon="5.81994">
        <ele>176.80000305176</ele>
        <time>2016-10-28T13:11:03.000Z</time>
      </trkpt>
      <trkpt lat="43.1861" lon="5.81985">
        <ele>177.19999694824</ele>
        <time>2016-10-28T13:11:05.000Z</time>
      </trkpt>
      <trkpt lat="43.186" lon="5.81959">
        <ele>178.39999389648</ele>
        <time>2016-10-28T13:11:11.000Z</time>
      </trkpt>
      <trkpt lat="43.18594" lon="5.81939">
        <ele>179.19999694824</ele>
        <time>2016-10-28T13:11:16.000Z</time>
      </trkpt>
      <trkpt lat="43.18591" lon="5.81932">
        <ele>179.60000610352</ele>
        <time>2016-10-28T13:11:18.000Z</time>
      </trkpt>
      <trkpt lat="43.18589" lon="5.81924">
        <ele>179.80000305176</ele>
        <time>2016-10-28T13:11:20.000Z</time>
      </trkpt>
      <trkpt lat="43.18584" lon="5.81912">
        <ele>180.39999389648</ele>
        <time>2016-10-28T13:11:24.000Z</time>
      </trkpt>
      <trkpt lat="43.18583" lon="5.81909">
        <ele>180.60000610352</ele>
        <time>2016-10-28T13:11:25.000Z</time>
      </trkpt>
      <trkpt lat="43.18583" lon="5.81901">
        <ele>180.80000305176</ele>
        <time>2016-10-28T13:11:28.000Z</time>
      </trkpt>
      <trkpt lat="43.18584" lon="5.81899">
        <ele>180.80000305176</ele>
        <time>2016-10-28T13:11:29.000Z</time>
      </trkpt>
      <trkpt lat="43.18585" lon="5.81898">
        <ele>181</ele>
        <time>2016-10-28T13:11:30.000Z</time>
      </trkpt>
      <trkpt lat="43.18585" lon="5.81896">
        <ele>181</ele>
        <time>2016-10-28T13:11:31.000Z</time>
      </trkpt>
      <trkpt lat="43.18583" lon="5.81892">
        <ele>181.19999694824</ele>
        <time>2016-10-28T13:11:56.000Z</time>
      </trkpt>
      <trkpt lat="43.18577" lon="5.81881">
        <ele>182</ele>
        <time>2016-10-28T13:12:01.000Z</time>
      </trkpt>
      <trkpt lat="43.18569" lon="5.8186">
        <ele>183.60000610352</ele>
        <time>2016-10-28T13:12:08.000Z</time>
      </trkpt>
      <trkpt lat="43.18565" lon="5.81845">
        <ele>184</ele>
        <time>2016-10-28T13:12:16.000Z</time>
      </trkpt>
      <trkpt lat="43.18565" lon="5.81843">
        <ele>184</ele>
        <time>2016-10-28T13:12:17.000Z</time>
      </trkpt>
      <trkpt lat="43.18561" lon="5.81827">
        <ele>184.60000610352</ele>
        <time>2016-10-28T13:12:23.000Z</time>
      </trkpt>
      <trkpt lat="43.18557" lon="5.8181">
        <ele>185</ele>
        <time>2016-10-28T13:12:28.000Z</time>
      </trkpt>
      <trkpt lat="43.18554" lon="5.81801">
        <ele>185.39999389648</ele>
        <time>2016-10-28T13:12:31.000Z</time>
      </trkpt>
      <trkpt lat="43.18548" lon="5.81788">
        <ele>186</ele>
        <time>2016-10-28T13:12:35.000Z</time>
      </trkpt>
      <trkpt lat="43.18544" lon="5.81782">
        <ele>186.19999694824</ele>
        <time>2016-10-28T13:12:37.000Z</time>
      </trkpt>
      <trkpt lat="43.18536" lon="5.8177">
        <ele>187</ele>
        <time>2016-10-28T13:12:42.000Z</time>
      </trkpt>
      <trkpt lat="43.18532" lon="5.81765">
        <ele>187.19999694824</ele>
        <time>2016-10-28T13:12:44.000Z</time>
      </trkpt>
      <trkpt lat="43.18521" lon="5.81749">
        <ele>188.19999694824</ele>
        <time>2016-10-28T13:12:50.000Z</time>
      </trkpt>
      <trkpt lat="43.18518" lon="5.81744">
        <ele>188.39999389648</ele>
        <time>2016-10-28T13:12:52.000Z</time>
      </trkpt>
      <trkpt lat="43.18512" lon="5.81728">
        <ele>189</ele>
        <time>2016-10-28T13:12:57.000Z</time>
      </trkpt>
      <trkpt lat="43.1851" lon="5.81721">
        <ele>189</ele>
        <time>2016-10-28T13:12:59.000Z</time>
      </trkpt>
      <trkpt lat="43.18507" lon="5.81701">
        <ele>189.60000610352</ele>
        <time>2016-10-28T13:13:06.000Z</time>
      </trkpt>
      <trkpt lat="43.18506" lon="5.81697">
        <ele>189.60000610352</ele>
        <time>2016-10-28T13:13:07.000Z</time>
      </trkpt>
      <trkpt lat="43.18498" lon="5.81679">
        <ele>190.39999389648</ele>
        <time>2016-10-28T13:13:13.000Z</time>
      </trkpt>
      <trkpt lat="43.1849" lon="5.81668">
        <ele>191</ele>
        <time>2016-10-28T13:13:17.000Z</time>
      </trkpt>
      <trkpt lat="43.18478" lon="5.8165">
        <ele>191.80000305176</ele>
        <time>2016-10-28T13:13:23.000Z</time>
      </trkpt>
      <trkpt lat="43.18469" lon="5.81637">
        <ele>192.60000610352</ele>
        <time>2016-10-28T13:13:28.000Z</time>
      </trkpt>
      <trkpt lat="43.18458" lon="5.81626">
        <ele>193.80000305176</ele>
        <time>2016-10-28T13:13:33.000Z</time>
      </trkpt>
      <trkpt lat="43.18456" lon="5.81624">
        <ele>194</ele>
        <time>2016-10-28T13:13:34.000Z</time>
      </trkpt>
      <trkpt lat="43.18445" lon="5.8162">
        <ele>194.80000305176</ele>
        <time>2016-10-28T13:13:38.000Z</time>
      </trkpt>
      <trkpt lat="43.18439" lon="5.81614">
        <ele>195.60000610352</ele>
        <time>2016-10-28T13:13:41.000Z</time>
      </trkpt>
      <trkpt lat="43.18435" lon="5.81605">
        <ele>196.19999694824</ele>
        <time>2016-10-28T13:13:44.000Z</time>
      </trkpt>
      <trkpt lat="43.1843" lon="5.81591">
        <ele>197.19999694824</ele>
        <time>2016-10-28T13:13:48.000Z</time>
      </trkpt>
      <trkpt lat="43.18428" lon="5.81588">
        <ele>197.39999389648</ele>
        <time>2016-10-28T13:13:49.000Z</time>
      </trkpt>
      <trkpt lat="43.18424" lon="5.81574">
        <ele>198.39999389648</ele>
        <time>2016-10-28T13:13:53.000Z</time>
      </trkpt>
      <trkpt lat="43.18419" lon="5.81561">
        <ele>199.60000610352</ele>
        <time>2016-10-28T13:13:57.000Z</time>
      </trkpt>
      <trkpt lat="43.18419" lon="5.81558">
        <ele>199.80000305176</ele>
        <time>2016-10-28T13:13:58.000Z</time>
      </trkpt>
      <trkpt lat="43.18416" lon="5.81544">
        <ele>200.80000305176</ele>
        <time>2016-10-28T13:14:02.000Z</time>
      </trkpt>
      <trkpt lat="43.18415" lon="5.81536">
        <ele>201.60000610352</ele>
        <time>2016-10-28T13:14:04.000Z</time>
      </trkpt>
      <trkpt lat="43.18412" lon="5.81516">
        <ele>203.80000305176</ele>
        <time>2016-10-28T13:14:09.000Z</time>
      </trkpt>
      <trkpt lat="43.1841" lon="5.81501">
        <ele>205.39999389648</ele>
        <time>2016-10-28T13:14:13.000Z</time>
      </trkpt>
      <trkpt lat="43.18409" lon="5.81497">
        <ele>205.80000305176</ele>
        <time>2016-10-28T13:14:14.000Z</time>
      </trkpt>
      <trkpt lat="43.18408" lon="5.81472">
        <ele>208.19999694824</ele>
        <time>2016-10-28T13:14:21.000Z</time>
      </trkpt>
      <trkpt lat="43.18408" lon="5.81468">
        <ele>208.60000610352</ele>
        <time>2016-10-28T13:14:22.000Z</time>
      </trkpt>
      <trkpt lat="43.18404" lon="5.81455">
        <ele>210</ele>
        <time>2016-10-28T13:14:25.000Z</time>
      </trkpt>
      <trkpt lat="43.18401" lon="5.81453">
        <ele>210.39999389648</ele>
        <time>2016-10-28T13:14:26.000Z</time>
      </trkpt>
      <trkpt lat="43.18391" lon="5.81459">
        <ele>210.39999389648</ele>
        <time>2016-10-28T13:14:29.000Z</time>
      </trkpt>
      <trkpt lat="43.18388" lon="5.81462">
        <ele>210.39999389648</ele>
        <time>2016-10-28T13:14:30.000Z</time>
      </trkpt>
      <trkpt lat="43.18385" lon="5.81465">
        <ele>210.19999694824</ele>
        <time>2016-10-28T13:14:31.000Z</time>
      </trkpt>
      <trkpt lat="43.18378" lon="5.81471">
        <ele>210.19999694824</ele>
        <time>2016-10-28T13:14:33.000Z</time>
      </trkpt>
      <trkpt lat="43.18369" lon="5.8148">
        <ele>209.80000305176</ele>
        <time>2016-10-28T13:14:36.000Z</time>
      </trkpt>
      <trkpt lat="43.18362" lon="5.81487">
        <ele>209.60000610352</ele>
        <time>2016-10-28T13:14:38.000Z</time>
      </trkpt>
      <trkpt lat="43.18355" lon="5.81493">
        <ele>209.80000305176</ele>
        <time>2016-10-28T13:14:40.000Z</time>
      </trkpt>
      <trkpt lat="43.18344" lon="5.81502">
        <ele>210.39999389648</ele>
        <time>2016-10-28T13:14:43.000Z</time>
      </trkpt>
      <trkpt lat="43.18333" lon="5.81507">
        <ele>211.39999389648</ele>
        <time>2016-10-28T13:14:46.000Z</time>
      </trkpt>
      <trkpt lat="43.18317" lon="5.81515">
        <ele>213</ele>
        <time>2016-10-28T13:14:50.000Z</time>
      </trkpt>
      <trkpt lat="43.18292" lon="5.81525">
        <ele>214.60000610352</ele>
        <time>2016-10-28T13:14:56.000Z</time>
      </trkpt>
      <trkpt lat="43.18263" lon="5.81532">
        <ele>216.39999389648</ele>
        <time>2016-10-28T13:15:03.000Z</time>
      </trkpt>
      <trkpt lat="43.18243" lon="5.81535">
        <ele>218.39999389648</ele>
        <time>2016-10-28T13:15:08.000Z</time>
      </trkpt>
      <trkpt lat="43.18232" lon="5.81538">
        <ele>219.39999389648</ele>
        <time>2016-10-28T13:15:11.000Z</time>
      </trkpt>
      <trkpt lat="43.18228" lon="5.8154">
        <ele>219.80000305176</ele>
        <time>2016-10-28T13:15:12.000Z</time>
      </trkpt>
      <trkpt lat="43.18209" lon="5.81548">
        <ele>221</ele>
        <time>2016-10-28T13:15:17.000Z</time>
      </trkpt>
      <trkpt lat="43.18194" lon="5.81555">
        <ele>222</ele>
        <time>2016-10-28T13:15:21.000Z</time>
      </trkpt>
      <trkpt lat="43.18184" lon="5.81562">
        <ele>222.39999389648</ele>
        <time>2016-10-28T13:15:24.000Z</time>
      </trkpt>
      <trkpt lat="43.18173" lon="5.8157">
        <ele>222.60000610352</ele>
        <time>2016-10-28T13:15:27.000Z</time>
      </trkpt>
      <trkpt lat="43.18165" lon="5.81575">
        <ele>222.80000305176</ele>
        <time>2016-10-28T13:15:29.000Z</time>
      </trkpt>
      <trkpt lat="43.18161" lon="5.81577">
        <ele>223</ele>
        <time>2016-10-28T13:15:30.000Z</time>
      </trkpt>
      <trkpt lat="43.18149" lon="5.81579">
        <ele>224</ele>
        <time>2016-10-28T13:15:33.000Z</time>
      </trkpt>
      <trkpt lat="43.1814" lon="5.81579">
        <ele>225</ele>
        <time>2016-10-28T13:15:35.000Z</time>
      </trkpt>
      <trkpt lat="43.18136" lon="5.81579">
        <ele>225.39999389648</ele>
        <time>2016-10-28T13:15:36.000Z</time>
      </trkpt>
      <trkpt lat="43.1812" lon="5.81579">
        <ele>227.19999694824</ele>
        <time>2016-10-28T13:15:40.000Z</time>
      </trkpt>
      <trkpt lat="43.18108" lon="5.81579">
        <ele>228.39999389648</ele>
        <time>2016-10-28T13:15:43.000Z</time>
      </trkpt>
      <trkpt lat="43.18101" lon="5.81576">
        <ele>229.60000610352</ele>
        <time>2016-10-28T13:15:45.000Z</time>
      </trkpt>
      <trkpt lat="43.18094" lon="5.81571">
        <ele>231</ele>
        <time>2016-10-28T13:15:47.000Z</time>
      </trkpt>
      <trkpt lat="43.1809" lon="5.81559">
        <ele>232.80000305176</ele>
        <time>2016-10-28T13:15:50.000Z</time>
      </trkpt>
      <trkpt lat="43.18088" lon="5.81555">
        <ele>233.39999389648</ele>
        <time>2016-10-28T13:15:51.000Z</time>
      </trkpt>
      <trkpt lat="43.18085" lon="5.81552">
        <ele>234.39999389648</ele>
        <time>2016-10-28T13:15:52.000Z</time>
      </trkpt>
      <trkpt lat="43.18082" lon="5.81552">
        <ele>234.80000305176</ele>
        <time>2016-10-28T13:15:53.000Z</time>
      </trkpt>
      <trkpt lat="43.18078" lon="5.81552">
        <ele>234.80000305176</ele>
        <time>2016-10-28T13:15:54.000Z</time>
      </trkpt>
      <trkpt lat="43.18071" lon="5.81555">
        <ele>234.60000610352</ele>
        <time>2016-10-28T13:15:56.000Z</time>
      </trkpt>
      <trkpt lat="43.18068" lon="5.81557">
        <ele>234.39999389648</ele>
        <time>2016-10-28T13:15:57.000Z</time>
      </trkpt>
      <trkpt lat="43.18065" lon="5.81558">
        <ele>234.39999389648</ele>
        <time>2016-10-28T13:15:58.000Z</time>
      </trkpt>
      <trkpt lat="43.18061" lon="5.8156">
        <ele>234.39999389648</ele>
        <time>2016-10-28T13:15:59.000Z</time>
      </trkpt>
      <trkpt lat="43.18054" lon="5.81563">
        <ele>234.39999389648</ele>
        <time>2016-10-28T13:16:01.000Z</time>
      </trkpt>
      <trkpt lat="43.1804" lon="5.8157">
        <ele>234.19999694824</ele>
        <time>2016-10-28T13:16:05.000Z</time>
      </trkpt>
      <trkpt lat="43.18026" lon="5.81574">
        <ele>234.60000610352</ele>
        <time>2016-10-28T13:16:09.000Z</time>
      </trkpt>
      <trkpt lat="43.18022" lon="5.81573">
        <ele>234.80000305176</ele>
        <time>2016-10-28T13:16:10.000Z</time>
      </trkpt>
      <trkpt lat="43.18003" lon="5.81566">
        <ele>236.60000610352</ele>
        <time>2016-10-28T13:16:15.000Z</time>
      </trkpt>
      <trkpt lat="43.17992" lon="5.81563">
        <ele>237.19999694824</ele>
        <time>2016-10-28T13:16:18.000Z</time>
      </trkpt>
      <trkpt lat="43.17981" lon="5.8156">
        <ele>238</ele>
        <time>2016-10-28T13:16:21.000Z</time>
      </trkpt>
      <trkpt lat="43.1797" lon="5.81557">
        <ele>238.80000305176</ele>
        <time>2016-10-28T13:16:24.000Z</time>
      </trkpt>
      <trkpt lat="43.17967" lon="5.81556">
        <ele>239</ele>
        <time>2016-10-28T13:16:25.000Z</time>
      </trkpt>
      <trkpt lat="43.17949" lon="5.81552">
        <ele>240</ele>
        <time>2016-10-28T13:16:30.000Z</time>
      </trkpt>
      <trkpt lat="43.17941" lon="5.81552">
        <ele>240.19999694824</ele>
        <time>2016-10-28T13:16:32.000Z</time>
      </trkpt>
      <trkpt lat="43.17935" lon="5.81552">
        <ele>240.39999389648</ele>
        <time>2016-10-28T13:16:34.000Z</time>
      </trkpt>
      <trkpt lat="43.17923" lon="5.81546">
        <ele>241</ele>
        <time>2016-10-28T13:16:38.000Z</time>
      </trkpt>
      <trkpt lat="43.17916" lon="5.81532">
        <ele>242.80000305176</ele>
        <time>2016-10-28T13:16:42.000Z</time>
      </trkpt>
      <trkpt lat="43.17915" lon="5.81528">
        <ele>243.39999389648</ele>
        <time>2016-10-28T13:16:43.000Z</time>
      </trkpt>
      <trkpt lat="43.17913" lon="5.81519">
        <ele>244.80000305176</ele>
        <time>2016-10-28T13:16:45.000Z</time>
      </trkpt>
      <trkpt lat="43.17907" lon="5.81508">
        <ele>246</ele>
        <time>2016-10-28T13:16:48.000Z</time>
      </trkpt>
      <trkpt lat="43.17896" lon="5.81495">
        <ele>247</ele>
        <time>2016-10-28T13:16:52.000Z</time>
      </trkpt>
      <trkpt lat="43.17885" lon="5.81483">
        <ele>247.80000305176</ele>
        <time>2016-10-28T13:16:56.000Z</time>
      </trkpt>
      <trkpt lat="43.17877" lon="5.81474">
        <ele>248.60000610352</ele>
        <time>2016-10-28T13:16:59.000Z</time>
      </trkpt>
      <trkpt lat="43.17875" lon="5.81465">
        <ele>250</ele>
        <time>2016-10-28T13:17:01.000Z</time>
      </trkpt>
      <trkpt lat="43.1788" lon="5.81445">
        <ele>254</ele>
        <time>2016-10-28T13:17:05.000Z</time>
      </trkpt>
      <trkpt lat="43.17892" lon="5.81413">
        <ele>260</ele>
        <time>2016-10-28T13:17:10.000Z</time>
      </trkpt>
      <trkpt lat="43.17894" lon="5.81406">
        <ele>260.79998779297</ele>
        <time>2016-10-28T13:17:11.000Z</time>
      </trkpt>
      <trkpt lat="43.17894" lon="5.8139">
        <ele>262.79998779297</ele>
        <time>2016-10-28T13:17:14.000Z</time>
      </trkpt>
      <trkpt lat="43.17893" lon="5.81383">
        <ele>264.39999389648</ele>
        <time>2016-10-28T13:17:16.000Z</time>
      </trkpt>
      <trkpt lat="43.17892" lon="5.81377">
        <ele>265.79998779297</ele>
        <time>2016-10-28T13:17:18.000Z</time>
      </trkpt>
      <trkpt lat="43.17891" lon="5.81371">
        <ele>267.20001220703</ele>
        <time>2016-10-28T13:17:20.000Z</time>
      </trkpt>
      <trkpt lat="43.17891" lon="5.81367">
        <ele>268.20001220703</ele>
        <time>2016-10-28T13:17:21.000Z</time>
      </trkpt>
      <trkpt lat="43.1789" lon="5.81354">
        <ele>271.20001220703</ele>
        <time>2016-10-28T13:17:25.000Z</time>
      </trkpt>
      <trkpt lat="43.17881" lon="5.8135">
        <ele>272</ele>
        <time>2016-10-28T13:17:28.000Z</time>
      </trkpt>
      <trkpt lat="43.17875" lon="5.8136">
        <ele>269</ele>
        <time>2016-10-28T13:17:31.000Z</time>
      </trkpt>
      <trkpt lat="43.17873" lon="5.81365">
        <ele>267.60000610352</ele>
        <time>2016-10-28T13:17:32.000Z</time>
      </trkpt>
      <trkpt lat="43.17867" lon="5.81377">
        <ele>264.20001220703</ele>
        <time>2016-10-28T13:17:35.000Z</time>
      </trkpt>
      <trkpt lat="43.17865" lon="5.8138">
        <ele>263.39999389648</ele>
        <time>2016-10-28T13:17:36.000Z</time>
      </trkpt>
      <trkpt lat="43.17862" lon="5.8138">
        <ele>263.20001220703</ele>
        <time>2016-10-28T13:17:37.000Z</time>
      </trkpt>
      <trkpt lat="43.17861" lon="5.81375">
        <ele>264.39999389648</ele>
        <time>2016-10-28T13:17:39.000Z</time>
      </trkpt>
      <trkpt lat="43.17861" lon="5.81372">
        <ele>265.20001220703</ele>
        <time>2016-10-28T13:17:40.000Z</time>
      </trkpt>
      <trkpt lat="43.17863" lon="5.81366">
        <ele>267</ele>
        <time>2016-10-28T13:17:42.000Z</time>
      </trkpt>
      <trkpt lat="43.17864" lon="5.81362">
        <ele>267.79998779297</ele>
        <time>2016-10-28T13:17:43.000Z</time>
      </trkpt>
      <trkpt lat="43.17866" lon="5.81359">
        <ele>268.79998779297</ele>
        <time>2016-10-28T13:17:44.000Z</time>
      </trkpt>
      <trkpt lat="43.17868" lon="5.81351">
        <ele>270.79998779297</ele>
        <time>2016-10-28T13:17:46.000Z</time>
      </trkpt>
      <trkpt lat="43.17872" lon="5.81338">
        <ele>274.39999389648</ele>
        <time>2016-10-28T13:17:49.000Z</time>
      </trkpt>
      <trkpt lat="43.17873" lon="5.81329">
        <ele>276</ele>
        <time>2016-10-28T13:17:51.000Z</time>
      </trkpt>
      <trkpt lat="43.17873" lon="5.81325">
        <ele>276.39999389648</ele>
        <time>2016-10-28T13:17:52.000Z</time>
      </trkpt>
      <trkpt lat="43.17873" lon="5.81317">
        <ele>277.39999389648</ele>
        <time>2016-10-28T13:17:54.000Z</time>
      </trkpt>
      <trkpt lat="43.17873" lon="5.81309">
        <ele>278.20001220703</ele>
        <time>2016-10-28T13:17:56.000Z</time>
      </trkpt>
      <trkpt lat="43.17872" lon="5.81306">
        <ele>278.60000610352</ele>
        <time>2016-10-28T13:17:57.000Z</time>
      </trkpt>
      <trkpt lat="43.17871" lon="5.81301">
        <ele>279.60000610352</ele>
        <time>2016-10-28T13:17:58.000Z</time>
      </trkpt>
      <trkpt lat="43.1787" lon="5.81288">
        <ele>282.20001220703</ele>
        <time>2016-10-28T13:18:01.000Z</time>
      </trkpt>
      <trkpt lat="43.17868" lon="5.81276">
        <ele>284.60000610352</ele>
        <time>2016-10-28T13:18:04.000Z</time>
      </trkpt>
      <trkpt lat="43.17867" lon="5.81264">
        <ele>287</ele>
        <time>2016-10-28T13:18:07.000Z</time>
      </trkpt>
      <trkpt lat="43.17866" lon="5.81257">
        <ele>288.39999389648</ele>
        <time>2016-10-28T13:18:09.000Z</time>
      </trkpt>
      <trkpt lat="43.17866" lon="5.8125">
        <ele>289.79998779297</ele>
        <time>2016-10-28T13:18:11.000Z</time>
      </trkpt>
      <trkpt lat="43.17868" lon="5.81244">
        <ele>290.79998779297</ele>
        <time>2016-10-28T13:18:13.000Z</time>
      </trkpt>
      <trkpt lat="43.1787" lon="5.81232">
        <ele>292.60000610352</ele>
        <time>2016-10-28T13:18:16.000Z</time>
      </trkpt>
      <trkpt lat="43.17871" lon="5.81224">
        <ele>293.79998779297</ele>
        <time>2016-10-28T13:18:18.000Z</time>
      </trkpt>
      <trkpt lat="43.17872" lon="5.8122">
        <ele>294.39999389648</ele>
        <time>2016-10-28T13:18:19.000Z</time>
      </trkpt>
      <trkpt lat="43.17875" lon="5.81208">
        <ele>296.39999389648</ele>
        <time>2016-10-28T13:18:22.000Z</time>
      </trkpt>
      <trkpt lat="43.17877" lon="5.81201">
        <ele>297.39999389648</ele>
        <time>2016-10-28T13:18:24.000Z</time>
      </trkpt>
      <trkpt lat="43.17878" lon="5.81197">
        <ele>298.20001220703</ele>
        <time>2016-10-28T13:18:25.000Z</time>
      </trkpt>
      <trkpt lat="43.17881" lon="5.81184">
        <ele>300.39999389648</ele>
        <time>2016-10-28T13:18:28.000Z</time>
      </trkpt>
      <trkpt lat="43.17883" lon="5.81167">
        <ele>303</ele>
        <time>2016-10-28T13:18:32.000Z</time>
      </trkpt>
      <trkpt lat="43.17882" lon="5.81149">
        <ele>305.79998779297</ele>
        <time>2016-10-28T13:18:36.000Z</time>
      </trkpt>
      <trkpt lat="43.17882" lon="5.81144">
        <ele>306.39999389648</ele>
        <time>2016-10-28T13:18:37.000Z</time>
      </trkpt>
      <trkpt lat="43.17886" lon="5.81116">
        <ele>307.60000610352</ele>
        <time>2016-10-28T13:18:43.000Z</time>
      </trkpt>
      <trkpt lat="43.17892" lon="5.8109">
        <ele>307.60000610352</ele>
        <time>2016-10-28T13:18:49.000Z</time>
      </trkpt>
      <trkpt lat="43.17892" lon="5.81085">
        <ele>307.60000610352</ele>
        <time>2016-10-28T13:18:50.000Z</time>
      </trkpt>
      <trkpt lat="43.17892" lon="5.81079">
        <ele>307.79998779297</ele>
        <time>2016-10-28T13:18:51.000Z</time>
      </trkpt>
      <trkpt lat="43.17892" lon="5.81073">
        <ele>308</ele>
        <time>2016-10-28T13:18:52.000Z</time>
      </trkpt>
      <trkpt lat="43.17892" lon="5.81058">
        <ele>308.39999389648</ele>
        <time>2016-10-28T13:18:55.000Z</time>
      </trkpt>
      <trkpt lat="43.1789" lon="5.81045">
        <ele>307.39999389648</ele>
        <time>2016-10-28T13:18:58.000Z</time>
      </trkpt>
      <trkpt lat="43.1788" lon="5.81028">
        <ele>307</ele>
        <time>2016-10-28T13:19:03.000Z</time>
      </trkpt>
      <trkpt lat="43.17871" lon="5.81014">
        <ele>306.79998779297</ele>
        <time>2016-10-28T13:19:07.000Z</time>
      </trkpt>
      <trkpt lat="43.1786" lon="5.81001">
        <ele>307.20001220703</ele>
        <time>2016-10-28T13:19:11.000Z</time>
      </trkpt>
      <trkpt lat="43.17848" lon="5.80989">
        <ele>307.60000610352</ele>
        <time>2016-10-28T13:19:15.000Z</time>
      </trkpt>
      <trkpt lat="43.17837" lon="5.80978">
        <ele>308</ele>
        <time>2016-10-28T13:19:19.000Z</time>
      </trkpt>
      <trkpt lat="43.17834" lon="5.80976">
        <ele>308</ele>
        <time>2016-10-28T13:19:20.000Z</time>
      </trkpt>
      <trkpt lat="43.1783" lon="5.80964">
        <ele>308</ele>
        <time>2016-10-28T13:19:23.000Z</time>
      </trkpt>
      <trkpt lat="43.1783" lon="5.8096">
        <ele>307.79998779297</ele>
        <time>2016-10-28T13:19:24.000Z</time>
      </trkpt>
      <trkpt lat="43.17832" lon="5.80955">
        <ele>307.79998779297</ele>
        <time>2016-10-28T13:19:25.000Z</time>
      </trkpt>
      <trkpt lat="43.17837" lon="5.80943">
        <ele>307</ele>
        <time>2016-10-28T13:19:28.000Z</time>
      </trkpt>
      <trkpt lat="43.1784" lon="5.80939">
        <ele>306.60000610352</ele>
        <time>2016-10-28T13:19:29.000Z</time>
      </trkpt>
      <trkpt lat="43.17847" lon="5.80928">
        <ele>305.79998779297</ele>
        <time>2016-10-28T13:19:32.000Z</time>
      </trkpt>
      <trkpt lat="43.17855" lon="5.80908">
        <ele>305.20001220703</ele>
        <time>2016-10-28T13:19:37.000Z</time>
      </trkpt>
      <trkpt lat="43.17854" lon="5.809">
        <ele>305.20001220703</ele>
        <time>2016-10-28T13:19:39.000Z</time>
      </trkpt>
      <trkpt lat="43.17851" lon="5.80896">
        <ele>305.39999389648</ele>
        <time>2016-10-28T13:19:40.000Z</time>
      </trkpt>
      <trkpt lat="43.17842" lon="5.8089">
        <ele>306.39999389648</ele>
        <time>2016-10-28T13:19:43.000Z</time>
      </trkpt>
      <trkpt lat="43.17838" lon="5.80888">
        <ele>306.79998779297</ele>
        <time>2016-10-28T13:19:44.000Z</time>
      </trkpt>
      <trkpt lat="43.17835" lon="5.80886">
        <ele>307.20001220703</ele>
        <time>2016-10-28T13:19:45.000Z</time>
      </trkpt>
      <trkpt lat="43.17825" lon="5.80872">
        <ele>308</ele>
        <time>2016-10-28T13:19:49.000Z</time>
      </trkpt>
      <trkpt lat="43.17822" lon="5.80859">
        <ele>309.20001220703</ele>
        <time>2016-10-28T13:19:52.000Z</time>
      </trkpt>
      <trkpt lat="43.17818" lon="5.80845">
        <ele>310.79998779297</ele>
        <time>2016-10-28T13:19:55.000Z</time>
      </trkpt>
      <trkpt lat="43.17817" lon="5.80841">
        <ele>311.39999389648</ele>
        <time>2016-10-28T13:19:56.000Z</time>
      </trkpt>
      <trkpt lat="43.17812" lon="5.80832">
        <ele>312.20001220703</ele>
        <time>2016-10-28T13:19:58.000Z</time>
      </trkpt>
      <trkpt lat="43.17805" lon="5.80821">
        <ele>313.39999389648</ele>
        <time>2016-10-28T13:20:01.000Z</time>
      </trkpt>
      <trkpt lat="43.17802" lon="5.80818">
        <ele>313.79998779297</ele>
        <time>2016-10-28T13:20:02.000Z</time>
      </trkpt>
      <trkpt lat="43.17797" lon="5.80811">
        <ele>314.60000610352</ele>
        <time>2016-10-28T13:20:04.000Z</time>
      </trkpt>
      <trkpt lat="43.17789" lon="5.808">
        <ele>315.79998779297</ele>
        <time>2016-10-28T13:20:07.000Z</time>
      </trkpt>
      <trkpt lat="43.17785" lon="5.80792">
        <ele>316.79998779297</ele>
        <time>2016-10-28T13:20:09.000Z</time>
      </trkpt>
      <trkpt lat="43.17776" lon="5.80775">
        <ele>319</ele>
        <time>2016-10-28T13:20:13.000Z</time>
      </trkpt>
      <trkpt lat="43.17768" lon="5.80759">
        <ele>320.79998779297</ele>
        <time>2016-10-28T13:20:17.000Z</time>
      </trkpt>
      <trkpt lat="43.1776" lon="5.80745">
        <ele>322.60000610352</ele>
        <time>2016-10-28T13:20:21.000Z</time>
      </trkpt>
      <trkpt lat="43.17755" lon="5.80736">
        <ele>323.60000610352</ele>
        <time>2016-10-28T13:20:24.000Z</time>
      </trkpt>
      <trkpt lat="43.17752" lon="5.80732">
        <ele>324</ele>
        <time>2016-10-28T13:20:26.000Z</time>
      </trkpt>
      <trkpt lat="43.1775" lon="5.80729">
        <ele>324.39999389648</ele>
        <time>2016-10-28T13:20:28.000Z</time>
      </trkpt>
      <trkpt lat="43.17748" lon="5.80725">
        <ele>324.60000610352</ele>
        <time>2016-10-28T13:20:30.000Z</time>
      </trkpt>
      <trkpt lat="43.17747" lon="5.80724">
        <ele>324.79998779297</ele>
        <time>2016-10-28T13:20:31.000Z</time>
      </trkpt>
      <trkpt lat="43.17745" lon="5.80724">
        <ele>324.60000610352</ele>
        <time>2016-10-28T13:21:38.000Z</time>
      </trkpt>
      <trkpt lat="43.17741" lon="5.80727">
        <ele>324</ele>
        <time>2016-10-28T13:21:40.000Z</time>
      </trkpt>
      <trkpt lat="43.17724" lon="5.80736">
        <ele>321.79998779297</ele>
        <time>2016-10-28T13:21:45.000Z</time>
      </trkpt>
      <trkpt lat="43.17717" lon="5.80742">
        <ele>320.39999389648</ele>
        <time>2016-10-28T13:21:47.000Z</time>
      </trkpt>
      <trkpt lat="43.17698" lon="5.80759">
        <ele>319.79998779297</ele>
        <time>2016-10-28T13:21:52.000Z</time>
      </trkpt>
      <trkpt lat="43.17695" lon="5.80763">
        <ele>320.20001220703</ele>
        <time>2016-10-28T13:21:53.000Z</time>
      </trkpt>
      <trkpt lat="43.17681" lon="5.8078">
        <ele>322</ele>
        <time>2016-10-28T13:21:59.000Z</time>
      </trkpt>
      <trkpt lat="43.17679" lon="5.80787">
        <ele>322.39999389648</ele>
        <time>2016-10-28T13:22:01.000Z</time>
      </trkpt>
      <trkpt lat="43.17676" lon="5.808">
        <ele>322.60000610352</ele>
        <time>2016-10-28T13:22:04.000Z</time>
      </trkpt>
      <trkpt lat="43.17669" lon="5.80826">
        <ele>323.60000610352</ele>
        <time>2016-10-28T13:22:10.000Z</time>
      </trkpt>
      <trkpt lat="43.17663" lon="5.8084">
        <ele>324</ele>
        <time>2016-10-28T13:22:14.000Z</time>
      </trkpt>
      <trkpt lat="43.17657" lon="5.80845">
        <ele>323.60000610352</ele>
        <time>2016-10-28T13:22:17.000Z</time>
      </trkpt>
      <trkpt lat="43.17652" lon="5.80846">
        <ele>323</ele>
        <time>2016-10-28T13:22:19.000Z</time>
      </trkpt>
      <trkpt lat="43.17642" lon="5.80846">
        <ele>321.60000610352</ele>
        <time>2016-10-28T13:22:22.000Z</time>
      </trkpt>
      <trkpt lat="43.17634" lon="5.80848">
        <ele>321</ele>
        <time>2016-10-28T13:22:24.000Z</time>
      </trkpt>
      <trkpt lat="43.1763" lon="5.80849">
        <ele>321.20001220703</ele>
        <time>2016-10-28T13:22:25.000Z</time>
      </trkpt>
      <trkpt lat="43.17613" lon="5.80857">
        <ele>321.60000610352</ele>
        <time>2016-10-28T13:22:29.000Z</time>
      </trkpt>
      <trkpt lat="43.17608" lon="5.80857">
        <ele>321.39999389648</ele>
        <time>2016-10-28T13:22:30.000Z</time>
      </trkpt>
      <trkpt lat="43.17595" lon="5.80857">
        <ele>320.60000610352</ele>
        <time>2016-10-28T13:22:32.000Z</time>
      </trkpt>
      <trkpt lat="43.17588" lon="5.80861">
        <ele>320.60000610352</ele>
        <time>2016-10-28T13:22:33.000Z</time>
      </trkpt>
      <trkpt lat="43.17575" lon="5.8087">
        <ele>320.79998779297</ele>
        <time>2016-10-28T13:22:35.000Z</time>
      </trkpt>
      <trkpt lat="43.17564" lon="5.80878">
        <ele>320.79998779297</ele>
        <time>2016-10-28T13:22:37.000Z</time>
      </trkpt>
      <trkpt lat="43.17524" lon="5.80909">
        <ele>318.20001220703</ele>
        <time>2016-10-28T13:22:45.000Z</time>
      </trkpt>
      <trkpt lat="43.17503" lon="5.80933">
        <ele>317.39999389648</ele>
        <time>2016-10-28T13:22:51.000Z</time>
      </trkpt>
      <trkpt lat="43.17491" lon="5.80945">
        <ele>316.60000610352</ele>
        <time>2016-10-28T13:22:54.000Z</time>
      </trkpt>
      <trkpt lat="43.17476" lon="5.80954">
        <ele>314.79998779297</ele>
        <time>2016-10-28T13:22:57.000Z</time>
      </trkpt>
      <trkpt lat="43.17461" lon="5.80962">
        <ele>312.60000610352</ele>
        <time>2016-10-28T13:23:00.000Z</time>
      </trkpt>
      <trkpt lat="43.17448" lon="5.80968">
        <ele>310.79998779297</ele>
        <time>2016-10-28T13:23:03.000Z</time>
      </trkpt>
      <trkpt lat="43.17443" lon="5.80971">
        <ele>310</ele>
        <time>2016-10-28T13:23:04.000Z</time>
      </trkpt>
      <trkpt lat="43.17435" lon="5.8098">
        <ele>308.20001220703</ele>
        <time>2016-10-28T13:23:06.000Z</time>
      </trkpt>
      <trkpt lat="43.17427" lon="5.80991">
        <ele>307.79998779297</ele>
        <time>2016-10-28T13:23:08.000Z</time>
      </trkpt>
      <trkpt lat="43.17424" lon="5.80995">
        <ele>307.20001220703</ele>
        <time>2016-10-28T13:23:09.000Z</time>
      </trkpt>
      <trkpt lat="43.17418" lon="5.81003">
        <ele>305.79998779297</ele>
        <time>2016-10-28T13:23:11.000Z</time>
      </trkpt>
      <trkpt lat="43.17411" lon="5.81008">
        <ele>304.39999389648</ele>
        <time>2016-10-28T13:23:13.000Z</time>
      </trkpt>
      <trkpt lat="43.17403" lon="5.81003">
        <ele>302.60000610352</ele>
        <time>2016-10-28T13:23:15.000Z</time>
      </trkpt>
      <trkpt lat="43.17398" lon="5.80999">
        <ele>301.60000610352</ele>
        <time>2016-10-28T13:23:16.000Z</time>
      </trkpt>
      <trkpt lat="43.17393" lon="5.80995">
        <ele>300.39999389648</ele>
        <time>2016-10-28T13:23:17.000Z</time>
      </trkpt>
      <trkpt lat="43.17382" lon="5.80985">
        <ele>298</ele>
        <time>2016-10-28T13:23:19.000Z</time>
      </trkpt>
      <trkpt lat="43.17376" lon="5.8098">
        <ele>296.79998779297</ele>
        <time>2016-10-28T13:23:20.000Z</time>
      </trkpt>
      <trkpt lat="43.17371" lon="5.80975">
        <ele>295.60000610352</ele>
        <time>2016-10-28T13:23:21.000Z</time>
      </trkpt>
      <trkpt lat="43.17365" lon="5.8097">
        <ele>294.39999389648</ele>
        <time>2016-10-28T13:23:22.000Z</time>
      </trkpt>
      <trkpt lat="43.1736" lon="5.80965">
        <ele>293.20001220703</ele>
        <time>2016-10-28T13:23:23.000Z</time>
      </trkpt>
      <trkpt lat="43.17355" lon="5.80959">
        <ele>292</ele>
        <time>2016-10-28T13:23:24.000Z</time>
      </trkpt>
      <trkpt lat="43.1735" lon="5.80953">
        <ele>291</ele>
        <time>2016-10-28T13:23:25.000Z</time>
      </trkpt>
      <trkpt lat="43.17346" lon="5.80946">
        <ele>290</ele>
        <time>2016-10-28T13:23:26.000Z</time>
      </trkpt>
      <trkpt lat="43.17342" lon="5.80938">
        <ele>289.79998779297</ele>
        <time>2016-10-28T13:23:27.000Z</time>
      </trkpt>
      <trkpt lat="43.17335" lon="5.80919">
        <ele>289.79998779297</ele>
        <time>2016-10-28T13:23:29.000Z</time>
      </trkpt>
      <trkpt lat="43.17331" lon="5.8091">
        <ele>290</ele>
        <time>2016-10-28T13:23:30.000Z</time>
      </trkpt>
      <trkpt lat="43.17327" lon="5.809">
        <ele>290</ele>
        <time>2016-10-28T13:23:31.000Z</time>
      </trkpt>
      <trkpt lat="43.17322" lon="5.8089">
        <ele>290</ele>
        <time>2016-10-28T13:23:32.000Z</time>
      </trkpt>
      <trkpt lat="43.17318" lon="5.80881">
        <ele>289</ele>
        <time>2016-10-28T13:23:33.000Z</time>
      </trkpt>
      <trkpt lat="43.17315" lon="5.80872">
        <ele>288</ele>
        <time>2016-10-28T13:23:34.000Z</time>
      </trkpt>
      <trkpt lat="43.17311" lon="5.80864">
        <ele>286.79998779297</ele>
        <time>2016-10-28T13:23:35.000Z</time>
      </trkpt>
      <trkpt lat="43.17306" lon="5.80855">
        <ele>285.60000610352</ele>
        <time>2016-10-28T13:23:36.000Z</time>
      </trkpt>
      <trkpt lat="43.17301" lon="5.80847">
        <ele>284.60000610352</ele>
        <time>2016-10-28T13:23:37.000Z</time>
      </trkpt>
      <trkpt lat="43.17294" lon="5.80838">
        <ele>283.60000610352</ele>
        <time>2016-10-28T13:23:38.000Z</time>
      </trkpt>
      <trkpt lat="43.17288" lon="5.80831">
        <ele>282.79998779297</ele>
        <time>2016-10-28T13:23:39.000Z</time>
      </trkpt>
      <trkpt lat="43.17274" lon="5.80818">
        <ele>281.39999389648</ele>
        <time>2016-10-28T13:23:41.000Z</time>
      </trkpt>
      <trkpt lat="43.17267" lon="5.80811">
        <ele>280.60000610352</ele>
        <time>2016-10-28T13:23:42.000Z</time>
      </trkpt>
      <trkpt lat="43.17261" lon="5.80805">
        <ele>280</ele>
        <time>2016-10-28T13:23:43.000Z</time>
      </trkpt>
      <trkpt lat="43.17255" lon="5.80799">
        <ele>278.60000610352</ele>
        <time>2016-10-28T13:23:44.000Z</time>
      </trkpt>
      <trkpt lat="43.17249" lon="5.80793">
        <ele>277.20001220703</ele>
        <time>2016-10-28T13:23:45.000Z</time>
      </trkpt>
      <trkpt lat="43.17243" lon="5.80786">
        <ele>275.79998779297</ele>
        <time>2016-10-28T13:23:46.000Z</time>
      </trkpt>
      <trkpt lat="43.17231" lon="5.80774">
        <ele>273.20001220703</ele>
        <time>2016-10-28T13:23:48.000Z</time>
      </trkpt>
      <trkpt lat="43.17225" lon="5.80768">
        <ele>271.79998779297</ele>
        <time>2016-10-28T13:23:49.000Z</time>
      </trkpt>
      <trkpt lat="43.1722" lon="5.80762">
        <ele>270.39999389648</ele>
        <time>2016-10-28T13:23:50.000Z</time>
      </trkpt>
      <trkpt lat="43.17214" lon="5.80756">
        <ele>269.20001220703</ele>
        <time>2016-10-28T13:23:51.000Z</time>
      </trkpt>
      <trkpt lat="43.17209" lon="5.8075">
        <ele>268</ele>
        <time>2016-10-28T13:23:52.000Z</time>
      </trkpt>
      <trkpt lat="43.17204" lon="5.80744">
        <ele>266.79998779297</ele>
        <time>2016-10-28T13:23:53.000Z</time>
      </trkpt>
      <trkpt lat="43.17194" lon="5.80733">
        <ele>264.39999389648</ele>
        <time>2016-10-28T13:23:55.000Z</time>
      </trkpt>
      <trkpt lat="43.17185" lon="5.80725">
        <ele>262.39999389648</ele>
        <time>2016-10-28T13:23:57.000Z</time>
      </trkpt>
      <trkpt lat="43.17181" lon="5.80723">
        <ele>261.60000610352</ele>
        <time>2016-10-28T13:23:58.000Z</time>
      </trkpt>
      <trkpt lat="43.17177" lon="5.80722">
        <ele>260.79998779297</ele>
        <time>2016-10-28T13:23:59.000Z</time>
      </trkpt>
      <trkpt lat="43.17169" lon="5.80719">
        <ele>259.20001220703</ele>
        <time>2016-10-28T13:24:01.000Z</time>
      </trkpt>
      <trkpt lat="43.17161" lon="5.80715">
        <ele>257.60000610352</ele>
        <time>2016-10-28T13:24:03.000Z</time>
      </trkpt>
      <trkpt lat="43.17156" lon="5.80708">
        <ele>256.20001220703</ele>
        <time>2016-10-28T13:24:05.000Z</time>
      </trkpt>
      <trkpt lat="43.17151" lon="5.80699">
        <ele>255</ele>
        <time>2016-10-28T13:24:07.000Z</time>
      </trkpt>
      <trkpt lat="43.17149" lon="5.80692">
        <ele>254.39999389648</ele>
        <time>2016-10-28T13:24:08.000Z</time>
      </trkpt>
      <trkpt lat="43.17144" lon="5.80681">
        <ele>253.19999694824</ele>
        <time>2016-10-28T13:24:10.000Z</time>
      </trkpt>
      <trkpt lat="43.1714" lon="5.80675">
        <ele>252.39999389648</ele>
        <time>2016-10-28T13:24:11.000Z</time>
      </trkpt>
      <trkpt lat="43.17132" lon="5.80666">
        <ele>250.39999389648</ele>
        <time>2016-10-28T13:24:13.000Z</time>
      </trkpt>
      <trkpt lat="43.17122" lon="5.80658">
        <ele>248.19999694824</ele>
        <time>2016-10-28T13:24:15.000Z</time>
      </trkpt>
      <trkpt lat="43.17113" lon="5.80651">
        <ele>246</ele>
        <time>2016-10-28T13:24:17.000Z</time>
      </trkpt>
      <trkpt lat="43.17107" lon="5.80648">
        <ele>244.80000305176</ele>
        <time>2016-10-28T13:24:18.000Z</time>
      </trkpt>
      <trkpt lat="43.17101" lon="5.80644">
        <ele>243.39999389648</ele>
        <time>2016-10-28T13:24:19.000Z</time>
      </trkpt>
      <trkpt lat="43.17095" lon="5.80641">
        <ele>242.19999694824</ele>
        <time>2016-10-28T13:24:20.000Z</time>
      </trkpt>
      <trkpt lat="43.1709" lon="5.80638">
        <ele>241</ele>
        <time>2016-10-28T13:24:21.000Z</time>
      </trkpt>
      <trkpt lat="43.17076" lon="5.80629">
        <ele>238.39999389648</ele>
        <time>2016-10-28T13:24:24.000Z</time>
      </trkpt>
      <trkpt lat="43.17071" lon="5.80626">
        <ele>237.39999389648</ele>
        <time>2016-10-28T13:24:25.000Z</time>
      </trkpt>
      <trkpt lat="43.17048" lon="5.80608">
        <ele>233.60000610352</ele>
        <time>2016-10-28T13:24:30.000Z</time>
      </trkpt>
      <trkpt lat="43.17041" lon="5.80602">
        <ele>232.39999389648</ele>
        <time>2016-10-28T13:24:32.000Z</time>
      </trkpt>
      <trkpt lat="43.17037" lon="5.80598">
        <ele>231.80000305176</ele>
        <time>2016-10-28T13:24:33.000Z</time>
      </trkpt>
      <trkpt lat="43.17034" lon="5.80595">
        <ele>231.19999694824</ele>
        <time>2016-10-28T13:24:34.000Z</time>
      </trkpt>
      <trkpt lat="43.17026" lon="5.80588">
        <ele>230</ele>
        <time>2016-10-28T13:24:36.000Z</time>
      </trkpt>
      <trkpt lat="43.17019" lon="5.80582">
        <ele>228.80000305176</ele>
        <time>2016-10-28T13:24:38.000Z</time>
      </trkpt>
      <trkpt lat="43.17015" lon="5.80578">
        <ele>228.19999694824</ele>
        <time>2016-10-28T13:24:39.000Z</time>
      </trkpt>
      <trkpt lat="43.17012" lon="5.80574">
        <ele>227.80000305176</ele>
        <time>2016-10-28T13:24:40.000Z</time>
      </trkpt>
      <trkpt lat="43.17008" lon="5.8057">
        <ele>226.80000305176</ele>
        <time>2016-10-28T13:24:41.000Z</time>
      </trkpt>
      <trkpt lat="43.17004" lon="5.80566">
        <ele>226</ele>
        <time>2016-10-28T13:24:42.000Z</time>
      </trkpt>
      <trkpt lat="43.16996" lon="5.80556">
        <ele>223.80000305176</ele>
        <time>2016-10-28T13:24:44.000Z</time>
      </trkpt>
      <trkpt lat="43.16987" lon="5.80545">
        <ele>221.19999694824</ele>
        <time>2016-10-28T13:24:46.000Z</time>
      </trkpt>
      <trkpt lat="43.16982" lon="5.8054">
        <ele>219.80000305176</ele>
        <time>2016-10-28T13:24:47.000Z</time>
      </trkpt>
      <trkpt lat="43.16978" lon="5.80534">
        <ele>218.60000610352</ele>
        <time>2016-10-28T13:24:48.000Z</time>
      </trkpt>
      <trkpt lat="43.16974" lon="5.80528">
        <ele>217.39999389648</ele>
        <time>2016-10-28T13:24:49.000Z</time>
      </trkpt>
      <trkpt lat="43.1697" lon="5.80522">
        <ele>216.39999389648</ele>
        <time>2016-10-28T13:24:50.000Z</time>
      </trkpt>
      <trkpt lat="43.16966" lon="5.80517">
        <ele>215.19999694824</ele>
        <time>2016-10-28T13:24:51.000Z</time>
      </trkpt>
      <trkpt lat="43.16962" lon="5.80512">
        <ele>214</ele>
        <time>2016-10-28T13:24:52.000Z</time>
      </trkpt>
      <trkpt lat="43.16959" lon="5.80507">
        <ele>213</ele>
        <time>2016-10-28T13:24:53.000Z</time>
      </trkpt>
      <trkpt lat="43.16955" lon="5.80502">
        <ele>212.19999694824</ele>
        <time>2016-10-28T13:24:54.000Z</time>
      </trkpt>
      <trkpt lat="43.16953" lon="5.80495">
        <ele>211.60000610352</ele>
        <time>2016-10-28T13:24:55.000Z</time>
      </trkpt>
      <trkpt lat="43.1695" lon="5.80488">
        <ele>211.19999694824</ele>
        <time>2016-10-28T13:24:56.000Z</time>
      </trkpt>
      <trkpt lat="43.16948" lon="5.8048">
        <ele>211</ele>
        <time>2016-10-28T13:24:57.000Z</time>
      </trkpt>
      <trkpt lat="43.16947" lon="5.80471">
        <ele>211.19999694824</ele>
        <time>2016-10-28T13:24:58.000Z</time>
      </trkpt>
      <trkpt lat="43.16945" lon="5.80451">
        <ele>211.19999694824</ele>
        <time>2016-10-28T13:25:00.000Z</time>
      </trkpt>
      <trkpt lat="43.16944" lon="5.80442">
        <ele>211.19999694824</ele>
        <time>2016-10-28T13:25:01.000Z</time>
      </trkpt>
      <trkpt lat="43.16944" lon="5.80433">
        <ele>211.39999389648</ele>
        <time>2016-10-28T13:25:02.000Z</time>
      </trkpt>
      <trkpt lat="43.16942" lon="5.80416">
        <ele>211.19999694824</ele>
        <time>2016-10-28T13:25:04.000Z</time>
      </trkpt>
      <trkpt lat="43.16939" lon="5.80401">
        <ele>210.60000610352</ele>
        <time>2016-10-28T13:25:06.000Z</time>
      </trkpt>
      <trkpt lat="43.16934" lon="5.80386">
        <ele>208.80000305176</ele>
        <time>2016-10-28T13:25:08.000Z</time>
      </trkpt>
      <trkpt lat="43.16927" lon="5.80368">
        <ele>206.60000610352</ele>
        <time>2016-10-28T13:25:11.000Z</time>
      </trkpt>
      <trkpt lat="43.16923" lon="5.80357">
        <ele>205.80000305176</ele>
        <time>2016-10-28T13:25:13.000Z</time>
      </trkpt>
      <trkpt lat="43.16919" lon="5.8035">
        <ele>205</ele>
        <time>2016-10-28T13:25:15.000Z</time>
      </trkpt>
      <trkpt lat="43.16916" lon="5.80348">
        <ele>204.60000610352</ele>
        <time>2016-10-28T13:25:16.000Z</time>
      </trkpt>
      <trkpt lat="43.1691" lon="5.80351">
        <ele>203.60000610352</ele>
        <time>2016-10-28T13:25:18.000Z</time>
      </trkpt>
      <trkpt lat="43.16907" lon="5.80352">
        <ele>203</ele>
        <time>2016-10-28T13:25:19.000Z</time>
      </trkpt>
      <trkpt lat="43.169" lon="5.8035">
        <ele>202</ele>
        <time>2016-10-28T13:25:21.000Z</time>
      </trkpt>
      <trkpt lat="43.16897" lon="5.80344">
        <ele>201.39999389648</ele>
        <time>2016-10-28T13:25:23.000Z</time>
      </trkpt>
      <trkpt lat="43.16899" lon="5.80333">
        <ele>201.39999389648</ele>
        <time>2016-10-28T13:25:26.000Z</time>
      </trkpt>
      <trkpt lat="43.16901" lon="5.80323">
        <ele>201.80000305176</ele>
        <time>2016-10-28T13:25:28.000Z</time>
      </trkpt>
      <trkpt lat="43.16903" lon="5.80317">
        <ele>202</ele>
        <time>2016-10-28T13:25:29.000Z</time>
      </trkpt>
      <trkpt lat="43.16908" lon="5.80306">
        <ele>202.60000610352</ele>
        <time>2016-10-28T13:25:31.000Z</time>
      </trkpt>
      <trkpt lat="43.1691" lon="5.80301">
        <ele>202.80000305176</ele>
        <time>2016-10-28T13:25:32.000Z</time>
      </trkpt>
      <trkpt lat="43.16919" lon="5.80285">
        <ele>202.39999389648</ele>
        <time>2016-10-28T13:25:35.000Z</time>
      </trkpt>
      <trkpt lat="43.16921" lon="5.80279">
        <ele>201.80000305176</ele>
        <time>2016-10-28T13:25:36.000Z</time>
      </trkpt>
      <trkpt lat="43.16925" lon="5.80266">
        <ele>200.60000610352</ele>
        <time>2016-10-28T13:25:38.000Z</time>
      </trkpt>
      <trkpt lat="43.16931" lon="5.80244">
        <ele>199.19999694824</ele>
        <time>2016-10-28T13:25:41.000Z</time>
      </trkpt>
      <trkpt lat="43.16938" lon="5.80223">
        <ele>198.80000305176</ele>
        <time>2016-10-28T13:25:44.000Z</time>
      </trkpt>
      <trkpt lat="43.16941" lon="5.80217">
        <ele>198.60000610352</ele>
        <time>2016-10-28T13:25:45.000Z</time>
      </trkpt>
      <trkpt lat="43.16943" lon="5.8021">
        <ele>198.19999694824</ele>
        <time>2016-10-28T13:25:46.000Z</time>
      </trkpt>
      <trkpt lat="43.16948" lon="5.8019">
        <ele>197</ele>
        <time>2016-10-28T13:25:49.000Z</time>
      </trkpt>
      <trkpt lat="43.16952" lon="5.80162">
        <ele>193.80000305176</ele>
        <time>2016-10-28T13:25:53.000Z</time>
      </trkpt>
      <trkpt lat="43.16949" lon="5.80142">
        <ele>189.39999389648</ele>
        <time>2016-10-28T13:25:56.000Z</time>
      </trkpt>
      <trkpt lat="43.16948" lon="5.80136">
        <ele>188.39999389648</ele>
        <time>2016-10-28T13:25:57.000Z</time>
      </trkpt>
      <trkpt lat="43.16951" lon="5.80123">
        <ele>188</ele>
        <time>2016-10-28T13:25:59.000Z</time>
      </trkpt>
      <trkpt lat="43.16953" lon="5.80117">
        <ele>188.39999389648</ele>
        <time>2016-10-28T13:26:00.000Z</time>
      </trkpt>
      <trkpt lat="43.16969" lon="5.80095">
        <ele>191.60000610352</ele>
        <time>2016-10-28T13:26:04.000Z</time>
      </trkpt>
      <trkpt lat="43.16978" lon="5.80083">
        <ele>190.80000305176</ele>
        <time>2016-10-28T13:26:06.000Z</time>
      </trkpt>
      <trkpt lat="43.16991" lon="5.80068">
        <ele>190</ele>
        <time>2016-10-28T13:26:09.000Z</time>
      </trkpt>
      <trkpt lat="43.16996" lon="5.80063">
        <ele>189.80000305176</ele>
        <time>2016-10-28T13:26:10.000Z</time>
      </trkpt>
      <trkpt lat="43.1701" lon="5.80053">
        <ele>190.60000610352</ele>
        <time>2016-10-28T13:26:13.000Z</time>
      </trkpt>
      <trkpt lat="43.17024" lon="5.80046">
        <ele>194.60000610352</ele>
        <time>2016-10-28T13:26:16.000Z</time>
      </trkpt>
      <trkpt lat="43.17031" lon="5.80039">
        <ele>196.39999389648</ele>
        <time>2016-10-28T13:26:18.000Z</time>
      </trkpt>
      <trkpt lat="43.17032" lon="5.80033">
        <ele>196.39999389648</ele>
        <time>2016-10-28T13:26:19.000Z</time>
      </trkpt>
      <trkpt lat="43.17029" lon="5.80022">
        <ele>194.80000305176</ele>
        <time>2016-10-28T13:26:21.000Z</time>
      </trkpt>
      <trkpt lat="43.17024" lon="5.80018">
        <ele>193.39999389648</ele>
        <time>2016-10-28T13:26:22.000Z</time>
      </trkpt>
      <trkpt lat="43.17015" lon="5.80012">
        <ele>190.19999694824</ele>
        <time>2016-10-28T13:26:24.000Z</time>
      </trkpt>
      <trkpt lat="43.17007" lon="5.80005">
        <ele>187.60000610352</ele>
        <time>2016-10-28T13:26:26.000Z</time>
      </trkpt>
      <trkpt lat="43.17002" lon="5.80002">
        <ele>186.19999694824</ele>
        <time>2016-10-28T13:26:27.000Z</time>
      </trkpt>
      <trkpt lat="43.16988" lon="5.79993">
        <ele>182.80000305176</ele>
        <time>2016-10-28T13:26:30.000Z</time>
      </trkpt>
      <trkpt lat="43.16968" lon="5.7998">
        <ele>177.60000610352</ele>
        <time>2016-10-28T13:26:34.000Z</time>
      </trkpt>
      <trkpt lat="43.16955" lon="5.79968">
        <ele>174.60000610352</ele>
        <time>2016-10-28T13:26:37.000Z</time>
      </trkpt>
      <trkpt lat="43.16952" lon="5.79963">
        <ele>174</ele>
        <time>2016-10-28T13:26:38.000Z</time>
      </trkpt>
      <trkpt lat="43.16949" lon="5.79957">
        <ele>173.60000610352</ele>
        <time>2016-10-28T13:26:39.000Z</time>
      </trkpt>
      <trkpt lat="43.16943" lon="5.79946">
        <ele>173</ele>
        <time>2016-10-28T13:26:41.000Z</time>
      </trkpt>
      <trkpt lat="43.1694" lon="5.79934">
        <ele>173</ele>
        <time>2016-10-28T13:26:43.000Z</time>
      </trkpt>
      <trkpt lat="43.16939" lon="5.79927">
        <ele>173.19999694824</ele>
        <time>2016-10-28T13:26:44.000Z</time>
      </trkpt>
      <trkpt lat="43.16939" lon="5.79901">
        <ele>174.80000305176</ele>
        <time>2016-10-28T13:26:48.000Z</time>
      </trkpt>
      <trkpt lat="43.16939" lon="5.79895">
        <ele>175.60000610352</ele>
        <time>2016-10-28T13:26:49.000Z</time>
      </trkpt>
      <trkpt lat="43.16939" lon="5.79874">
        <ele>176.60000610352</ele>
        <time>2016-10-28T13:26:52.000Z</time>
      </trkpt>
      <trkpt lat="43.16936" lon="5.79858">
        <ele>176.19999694824</ele>
        <time>2016-10-28T13:26:54.000Z</time>
      </trkpt>
      <trkpt lat="43.16932" lon="5.79842">
        <ele>175.19999694824</ele>
        <time>2016-10-28T13:26:56.000Z</time>
      </trkpt>
      <trkpt lat="43.16929" lon="5.79834">
        <ele>174.80000305176</ele>
        <time>2016-10-28T13:26:57.000Z</time>
      </trkpt>
      <trkpt lat="43.16924" lon="5.79811">
        <ele>173.80000305176</ele>
        <time>2016-10-28T13:27:00.000Z</time>
      </trkpt>
      <trkpt lat="43.16922" lon="5.79803">
        <ele>173.60000610352</ele>
        <time>2016-10-28T13:27:01.000Z</time>
      </trkpt>
      <trkpt lat="43.16916" lon="5.79765">
        <ele>173.19999694824</ele>
        <time>2016-10-28T13:27:06.000Z</time>
      </trkpt>
      <trkpt lat="43.16914" lon="5.79758">
        <ele>172.80000305176</ele>
        <time>2016-10-28T13:27:07.000Z</time>
      </trkpt>
      <trkpt lat="43.16907" lon="5.79705">
        <ele>172.19999694824</ele>
        <time>2016-10-28T13:27:14.000Z</time>
      </trkpt>
      <trkpt lat="43.16906" lon="5.79677">
        <ele>170.19999694824</ele>
        <time>2016-10-28T13:27:18.000Z</time>
      </trkpt>
      <trkpt lat="43.16907" lon="5.79671">
        <ele>169.60000610352</ele>
        <time>2016-10-28T13:27:19.000Z</time>
      </trkpt>
      <trkpt lat="43.16908" lon="5.79665">
        <ele>169.39999389648</ele>
        <time>2016-10-28T13:27:20.000Z</time>
      </trkpt>
      <trkpt lat="43.16915" lon="5.79646">
        <ele>168.80000305176</ele>
        <time>2016-10-28T13:27:24.000Z</time>
      </trkpt>
      <trkpt lat="43.16917" lon="5.79641">
        <ele>168.60000610352</ele>
        <time>2016-10-28T13:27:25.000Z</time>
      </trkpt>
      <trkpt lat="43.16928" lon="5.79617">
        <ele>167.80000305176</ele>
        <time>2016-10-28T13:27:29.000Z</time>
      </trkpt>
      <trkpt lat="43.16934" lon="5.79602">
        <ele>168.19999694824</ele>
        <time>2016-10-28T13:27:31.000Z</time>
      </trkpt>
      <trkpt lat="43.16936" lon="5.79594">
        <ele>168</ele>
        <time>2016-10-28T13:27:32.000Z</time>
      </trkpt>
      <trkpt lat="43.16944" lon="5.79571">
        <ele>168</ele>
        <time>2016-10-28T13:27:35.000Z</time>
      </trkpt>
      <trkpt lat="43.16948" lon="5.79555">
        <ele>167</ele>
        <time>2016-10-28T13:27:37.000Z</time>
      </trkpt>
      <trkpt lat="43.1695" lon="5.79548">
        <ele>166.80000305176</ele>
        <time>2016-10-28T13:27:38.000Z</time>
      </trkpt>
      <trkpt lat="43.16952" lon="5.7954">
        <ele>166.60000610352</ele>
        <time>2016-10-28T13:27:39.000Z</time>
      </trkpt>
      <trkpt lat="43.16955" lon="5.79508">
        <ele>165</ele>
        <time>2016-10-28T13:27:43.000Z</time>
      </trkpt>
      <trkpt lat="43.16956" lon="5.79501">
        <ele>164.80000305176</ele>
        <time>2016-10-28T13:27:44.000Z</time>
      </trkpt>
      <trkpt lat="43.16967" lon="5.79455">
        <ele>162</ele>
        <time>2016-10-28T13:27:50.000Z</time>
      </trkpt>
      <trkpt lat="43.16968" lon="5.79447">
        <ele>162</ele>
        <time>2016-10-28T13:27:51.000Z</time>
      </trkpt>
      <trkpt lat="43.16976" lon="5.79424">
        <ele>161.60000610352</ele>
        <time>2016-10-28T13:27:54.000Z</time>
      </trkpt>
      <trkpt lat="43.16982" lon="5.79408">
        <ele>160.80000305176</ele>
        <time>2016-10-28T13:27:56.000Z</time>
      </trkpt>
      <trkpt lat="43.16986" lon="5.794">
        <ele>160.39999389648</ele>
        <time>2016-10-28T13:27:57.000Z</time>
      </trkpt>
      <trkpt lat="43.16995" lon="5.79374">
        <ele>160</ele>
        <time>2016-10-28T13:28:00.000Z</time>
      </trkpt>
      <trkpt lat="43.16999" lon="5.7936">
        <ele>160.39999389648</ele>
        <time>2016-10-28T13:28:02.000Z</time>
      </trkpt>
      <trkpt lat="43.17002" lon="5.79348">
        <ele>160.60000610352</ele>
        <time>2016-10-28T13:28:04.000Z</time>
      </trkpt>
      <trkpt lat="43.17002" lon="5.79336">
        <ele>160</ele>
        <time>2016-10-28T13:28:06.000Z</time>
      </trkpt>
      <trkpt lat="43.16997" lon="5.79324">
        <ele>158.60000610352</ele>
        <time>2016-10-28T13:28:09.000Z</time>
      </trkpt>
      <trkpt lat="43.16995" lon="5.7932">
        <ele>158</ele>
        <time>2016-10-28T13:28:10.000Z</time>
      </trkpt>
      <trkpt lat="43.16993" lon="5.79315">
        <ele>157.39999389648</ele>
        <time>2016-10-28T13:28:11.000Z</time>
      </trkpt>
      <trkpt lat="43.16988" lon="5.79301">
        <ele>155.60000610352</ele>
        <time>2016-10-28T13:28:14.000Z</time>
      </trkpt>
      <trkpt lat="43.16987" lon="5.79295">
        <ele>155.19999694824</ele>
        <time>2016-10-28T13:28:15.000Z</time>
      </trkpt>
      <trkpt lat="43.16986" lon="5.79277">
        <ele>154</ele>
        <time>2016-10-28T13:28:18.000Z</time>
      </trkpt>
      <trkpt lat="43.16988" lon="5.79258">
        <ele>154</ele>
        <time>2016-10-28T13:28:20.000Z</time>
      </trkpt>
      <trkpt lat="43.1699" lon="5.79238">
        <ele>154.19999694824</ele>
        <time>2016-10-28T13:28:22.000Z</time>
      </trkpt>
      <trkpt lat="43.16991" lon="5.79211">
        <ele>154.39999389648</ele>
        <time>2016-10-28T13:28:25.000Z</time>
      </trkpt>
      <trkpt lat="43.16989" lon="5.79175">
        <ele>154.39999389648</ele>
        <time>2016-10-28T13:28:30.000Z</time>
      </trkpt>
      <trkpt lat="43.16988" lon="5.79138">
        <ele>154.39999389648</ele>
        <time>2016-10-28T13:28:37.000Z</time>
      </trkpt>
      <trkpt lat="43.1699" lon="5.79127">
        <ele>154.80000305176</ele>
        <time>2016-10-28T13:28:39.000Z</time>
      </trkpt>
      <trkpt lat="43.16994" lon="5.79111">
        <ele>155.39999389648</ele>
        <time>2016-10-28T13:28:42.000Z</time>
      </trkpt>
      <trkpt lat="43.16999" lon="5.79097">
        <ele>156</ele>
        <time>2016-10-28T13:28:45.000Z</time>
      </trkpt>
      <trkpt lat="43.17002" lon="5.79087">
        <ele>156.19999694824</ele>
        <time>2016-10-28T13:28:47.000Z</time>
      </trkpt>
      <trkpt lat="43.17004" lon="5.79077">
        <ele>156.19999694824</ele>
        <time>2016-10-28T13:28:49.000Z</time>
      </trkpt>
      <trkpt lat="43.17002" lon="5.79067">
        <ele>155.80000305176</ele>
        <time>2016-10-28T13:28:52.000Z</time>
      </trkpt>
      <trkpt lat="43.17" lon="5.79065">
        <ele>155.39999389648</ele>
        <time>2016-10-28T13:28:53.000Z</time>
      </trkpt>
      <trkpt lat="43.16998" lon="5.79063">
        <ele>155</ele>
        <time>2016-10-28T13:28:54.000Z</time>
      </trkpt>
      <trkpt lat="43.16987" lon="5.79056">
        <ele>153</ele>
        <time>2016-10-28T13:28:58.000Z</time>
      </trkpt>
      <trkpt lat="43.16983" lon="5.79054">
        <ele>152.39999389648</ele>
        <time>2016-10-28T13:28:59.000Z</time>
      </trkpt>
      <trkpt lat="43.16971" lon="5.79047">
        <ele>149.80000305176</ele>
        <time>2016-10-28T13:29:02.000Z</time>
      </trkpt>
      <trkpt lat="43.16967" lon="5.79044">
        <ele>149</ele>
        <time>2016-10-28T13:29:03.000Z</time>
      </trkpt>
      <trkpt lat="43.16959" lon="5.79039">
        <ele>147.19999694824</ele>
        <time>2016-10-28T13:29:05.000Z</time>
      </trkpt>
      <trkpt lat="43.16939" lon="5.79029">
        <ele>143.39999389648</ele>
        <time>2016-10-28T13:29:10.000Z</time>
      </trkpt>
      <trkpt lat="43.16936" lon="5.79027">
        <ele>142.60000610352</ele>
        <time>2016-10-28T13:29:11.000Z</time>
      </trkpt>
      <trkpt lat="43.16909" lon="5.79007">
        <ele>137.19999694824</ele>
        <time>2016-10-28T13:29:19.000Z</time>
      </trkpt>
      <trkpt lat="43.16907" lon="5.79003">
        <ele>136.60000610352</ele>
        <time>2016-10-28T13:29:20.000Z</time>
      </trkpt>
      <trkpt lat="43.16905" lon="5.78991">
        <ele>135.60000610352</ele>
        <time>2016-10-28T13:29:22.000Z</time>
      </trkpt>
      <trkpt lat="43.16905" lon="5.78978">
        <ele>134.80000305176</ele>
        <time>2016-10-28T13:29:24.000Z</time>
      </trkpt>
      <trkpt lat="43.16907" lon="5.78965">
        <ele>134.39999389648</ele>
        <time>2016-10-28T13:29:26.000Z</time>
      </trkpt>
      <trkpt lat="43.16908" lon="5.78959">
        <ele>134.19999694824</ele>
        <time>2016-10-28T13:29:27.000Z</time>
      </trkpt>
      <trkpt lat="43.16915" lon="5.78943">
        <ele>134</ele>
        <time>2016-10-28T13:29:30.000Z</time>
      </trkpt>
      <trkpt lat="43.16925" lon="5.78944">
        <ele>135.39999389648</ele>
        <time>2016-10-28T13:29:32.000Z</time>
      </trkpt>
      <trkpt lat="43.16931" lon="5.78946">
        <ele>136.19999694824</ele>
        <time>2016-10-28T13:29:33.000Z</time>
      </trkpt>
      <trkpt lat="43.16937" lon="5.78944">
        <ele>136.60000610352</ele>
        <time>2016-10-28T13:29:34.000Z</time>
      </trkpt>
      <trkpt lat="43.16943" lon="5.78938">
        <ele>136.39999389648</ele>
        <time>2016-10-28T13:29:35.000Z</time>
      </trkpt>
      <trkpt lat="43.16948" lon="5.78929">
        <ele>136.19999694824</ele>
        <time>2016-10-28T13:29:36.000Z</time>
      </trkpt>
      <trkpt lat="43.16955" lon="5.78911">
        <ele>135.19999694824</ele>
        <time>2016-10-28T13:29:38.000Z</time>
      </trkpt>
      <trkpt lat="43.16962" lon="5.78893">
        <ele>134.39999389648</ele>
        <time>2016-10-28T13:29:40.000Z</time>
      </trkpt>
      <trkpt lat="43.1697" lon="5.78875">
        <ele>133.19999694824</ele>
        <time>2016-10-28T13:29:42.000Z</time>
      </trkpt>
      <trkpt lat="43.16976" lon="5.78858">
        <ele>132.19999694824</ele>
        <time>2016-10-28T13:29:44.000Z</time>
      </trkpt>
      <trkpt lat="43.16982" lon="5.78833">
        <ele>130.60000610352</ele>
        <time>2016-10-28T13:29:47.000Z</time>
      </trkpt>
      <trkpt lat="43.16982" lon="5.78823">
        <ele>129.80000305176</ele>
        <time>2016-10-28T13:29:48.000Z</time>
      </trkpt>
      <trkpt lat="43.16978" lon="5.78795">
        <ele>127</ele>
        <time>2016-10-28T13:29:51.000Z</time>
      </trkpt>
      <trkpt lat="43.16976" lon="5.78785">
        <ele>126</ele>
        <time>2016-10-28T13:29:52.000Z</time>
      </trkpt>
      <trkpt lat="43.16972" lon="5.78766">
        <ele>124</ele>
        <time>2016-10-28T13:29:54.000Z</time>
      </trkpt>
      <trkpt lat="43.16964" lon="5.78727">
        <ele>119.59999847412</ele>
        <time>2016-10-28T13:29:58.000Z</time>
      </trkpt>
      <trkpt lat="43.16958" lon="5.78696">
        <ele>118.59999847412</ele>
        <time>2016-10-28T13:30:01.000Z</time>
      </trkpt>
      <trkpt lat="43.16954" lon="5.78676">
        <ele>118.19999694824</ele>
        <time>2016-10-28T13:30:03.000Z</time>
      </trkpt>
      <trkpt lat="43.1695" lon="5.78657">
        <ele>117.59999847412</ele>
        <time>2016-10-28T13:30:05.000Z</time>
      </trkpt>
      <trkpt lat="43.16949" lon="5.78648">
        <ele>116.59999847412</ele>
        <time>2016-10-28T13:30:06.000Z</time>
      </trkpt>
      <trkpt lat="43.16938" lon="5.78598">
        <ele>115.80000305176</ele>
        <time>2016-10-28T13:30:12.000Z</time>
      </trkpt>
      <trkpt lat="43.16924" lon="5.78582">
        <ele>115.40000152588</ele>
        <time>2016-10-28T13:30:15.000Z</time>
      </trkpt>
      <trkpt lat="43.16912" lon="5.78577">
        <ele>113.40000152588</ele>
        <time>2016-10-28T13:30:17.000Z</time>
      </trkpt>
      <trkpt lat="43.16901" lon="5.78572">
        <ele>111.80000305176</ele>
        <time>2016-10-28T13:30:19.000Z</time>
      </trkpt>
      <trkpt lat="43.16892" lon="5.78555">
        <ele>110.40000152588</ele>
        <time>2016-10-28T13:30:22.000Z</time>
      </trkpt>
      <trkpt lat="43.16888" lon="5.78524">
        <ele>108.59999847412</ele>
        <time>2016-10-28T13:30:26.000Z</time>
      </trkpt>
      <trkpt lat="43.16884" lon="5.78495">
        <ele>106.80000305176</ele>
        <time>2016-10-28T13:30:29.000Z</time>
      </trkpt>
      <trkpt lat="43.16882" lon="5.78475">
        <ele>105.59999847412</ele>
        <time>2016-10-28T13:30:31.000Z</time>
      </trkpt>
      <trkpt lat="43.16881" lon="5.78466">
        <ele>105.19999694824</ele>
        <time>2016-10-28T13:30:32.000Z</time>
      </trkpt>
      <trkpt lat="43.1688" lon="5.78456">
        <ele>104.80000305176</ele>
        <time>2016-10-28T13:30:33.000Z</time>
      </trkpt>
      <trkpt lat="43.1688" lon="5.78447">
        <ele>104.59999847412</ele>
        <time>2016-10-28T13:30:34.000Z</time>
      </trkpt>
      <trkpt lat="43.16881" lon="5.78428">
        <ele>104.19999694824</ele>
        <time>2016-10-28T13:30:36.000Z</time>
      </trkpt>
      <trkpt lat="43.16883" lon="5.78408">
        <ele>103.40000152588</ele>
        <time>2016-10-28T13:30:38.000Z</time>
      </trkpt>
      <trkpt lat="43.16886" lon="5.78385">
        <ele>102.40000152588</ele>
        <time>2016-10-28T13:30:40.000Z</time>
      </trkpt>
      <trkpt lat="43.16888" lon="5.78365">
        <ele>101.59999847412</ele>
        <time>2016-10-28T13:30:42.000Z</time>
      </trkpt>
      <trkpt lat="43.16887" lon="5.78345">
        <ele>100.59999847412</ele>
        <time>2016-10-28T13:30:44.000Z</time>
      </trkpt>
      <trkpt lat="43.16885" lon="5.78323">
        <ele>99</ele>
        <time>2016-10-28T13:30:46.000Z</time>
      </trkpt>
      <trkpt lat="43.16882" lon="5.78301">
        <ele>97.400001525879</ele>
        <time>2016-10-28T13:30:48.000Z</time>
      </trkpt>
      <trkpt lat="43.16879" lon="5.7829">
        <ele>96.800003051758</ele>
        <time>2016-10-28T13:30:49.000Z</time>
      </trkpt>
      <trkpt lat="43.16877" lon="5.78279">
        <ele>96.199996948242</ele>
        <time>2016-10-28T13:30:50.000Z</time>
      </trkpt>
      <trkpt lat="43.16873" lon="5.78256">
        <ele>95</ele>
        <time>2016-10-28T13:30:52.000Z</time>
      </trkpt>
      <trkpt lat="43.16868" lon="5.78234">
        <ele>93.400001525879</ele>
        <time>2016-10-28T13:30:54.000Z</time>
      </trkpt>
      <trkpt lat="43.16863" lon="5.78213">
        <ele>92.199996948242</ele>
        <time>2016-10-28T13:30:56.000Z</time>
      </trkpt>
      <trkpt lat="43.16858" lon="5.78192">
        <ele>91.599998474121</ele>
        <time>2016-10-28T13:30:58.000Z</time>
      </trkpt>
      <trkpt lat="43.16851" lon="5.78147">
        <ele>90.599998474121</ele>
        <time>2016-10-28T13:31:03.000Z</time>
      </trkpt>
      <trkpt lat="43.16848" lon="5.78095">
        <ele>88.599998474121</ele>
        <time>2016-10-28T13:31:09.000Z</time>
      </trkpt>
      <trkpt lat="43.16849" lon="5.78077">
        <ele>88</ele>
        <time>2016-10-28T13:31:11.000Z</time>
      </trkpt>
      <trkpt lat="43.16851" lon="5.78061">
        <ele>87.400001525879</ele>
        <time>2016-10-28T13:31:13.000Z</time>
      </trkpt>
      <trkpt lat="43.16853" lon="5.78052">
        <ele>87</ele>
        <time>2016-10-28T13:31:14.000Z</time>
      </trkpt>
      <trkpt lat="43.16857" lon="5.78037">
        <ele>86.199996948242</ele>
        <time>2016-10-28T13:31:16.000Z</time>
      </trkpt>
      <trkpt lat="43.1686" lon="5.78007">
        <ele>84.599998474121</ele>
        <time>2016-10-28T13:31:20.000Z</time>
      </trkpt>
      <trkpt lat="43.1686" lon="5.77981">
        <ele>83</ele>
        <time>2016-10-28T13:31:24.000Z</time>
      </trkpt>
      <trkpt lat="43.16862" lon="5.77977">
        <ele>82.599998474121</ele>
        <time>2016-10-28T13:31:25.000Z</time>
      </trkpt>
      <trkpt lat="43.16869" lon="5.7797">
        <ele>82.199996948242</ele>
        <time>2016-10-28T13:31:27.000Z</time>
      </trkpt>
      <trkpt lat="43.16873" lon="5.77968">
        <ele>82.199996948242</ele>
        <time>2016-10-28T13:31:28.000Z</time>
      </trkpt>
      <trkpt lat="43.16877" lon="5.77966">
        <ele>82.199996948242</ele>
        <time>2016-10-28T13:31:29.000Z</time>
      </trkpt>
      <trkpt lat="43.1688" lon="5.77963">
        <ele>82</ele>
        <time>2016-10-28T13:31:30.000Z</time>
      </trkpt>
      <trkpt lat="43.16885" lon="5.77952">
        <ele>81.599998474121</ele>
        <time>2016-10-28T13:31:32.000Z</time>
      </trkpt>
      <trkpt lat="43.16885" lon="5.77946">
        <ele>81.199996948242</ele>
        <time>2016-10-28T13:31:33.000Z</time>
      </trkpt>
      <trkpt lat="43.16885" lon="5.77932">
        <ele>80.599998474121</ele>
        <time>2016-10-28T13:31:35.000Z</time>
      </trkpt>
      <trkpt lat="43.16884" lon="5.77924">
        <ele>80.199996948242</ele>
        <time>2016-10-28T13:31:36.000Z</time>
      </trkpt>
      <trkpt lat="43.16881" lon="5.77899">
        <ele>79.199996948242</ele>
        <time>2016-10-28T13:31:39.000Z</time>
      </trkpt>
      <trkpt lat="43.16879" lon="5.77881">
        <ele>78.400001525879</ele>
        <time>2016-10-28T13:31:41.000Z</time>
      </trkpt>
      <trkpt lat="43.16877" lon="5.77873">
        <ele>77.800003051758</ele>
        <time>2016-10-28T13:31:42.000Z</time>
      </trkpt>
      <trkpt lat="43.16876" lon="5.77865">
        <ele>77.199996948242</ele>
        <time>2016-10-28T13:31:43.000Z</time>
      </trkpt>
      <trkpt lat="43.16874" lon="5.7784">
        <ele>75.199996948242</ele>
        <time>2016-10-28T13:31:46.000Z</time>
      </trkpt>
      <trkpt lat="43.16872" lon="5.77823">
        <ele>73.599998474121</ele>
        <time>2016-10-28T13:31:48.000Z</time>
      </trkpt>
      <trkpt lat="43.16869" lon="5.77795">
        <ele>71.400001525879</ele>
        <time>2016-10-28T13:31:51.000Z</time>
      </trkpt>
      <trkpt lat="43.16866" lon="5.77777">
        <ele>70.800003051758</ele>
        <time>2016-10-28T13:31:53.000Z</time>
      </trkpt>
      <trkpt lat="43.16864" lon="5.7776">
        <ele>70.199996948242</ele>
        <time>2016-10-28T13:31:55.000Z</time>
      </trkpt>
      <trkpt lat="43.16861" lon="5.77736">
        <ele>69.199996948242</ele>
        <time>2016-10-28T13:31:58.000Z</time>
      </trkpt>
      <trkpt lat="43.16858" lon="5.77707">
        <ele>68</ele>
        <time>2016-10-28T13:32:02.000Z</time>
      </trkpt>
      <trkpt lat="43.16858" lon="5.77701">
        <ele>67.800003051758</ele>
        <time>2016-10-28T13:32:03.000Z</time>
      </trkpt>
      <trkpt lat="43.1686" lon="5.77668">
        <ele>66.599998474121</ele>
        <time>2016-10-28T13:32:08.000Z</time>
      </trkpt>
      <trkpt lat="43.16861" lon="5.77654">
        <ele>66</ele>
        <time>2016-10-28T13:32:10.000Z</time>
      </trkpt>
      <trkpt lat="43.16863" lon="5.7764">
        <ele>64.599998474121</ele>
        <time>2016-10-28T13:32:12.000Z</time>
      </trkpt>
      <trkpt lat="43.16865" lon="5.77627">
        <ele>63.599998474121</ele>
        <time>2016-10-28T13:32:14.000Z</time>
      </trkpt>
      <trkpt lat="43.16867" lon="5.77616">
        <ele>62.799999237061</ele>
        <time>2016-10-28T13:32:16.000Z</time>
      </trkpt>
      <trkpt lat="43.16871" lon="5.77607">
        <ele>62</ele>
        <time>2016-10-28T13:32:18.000Z</time>
      </trkpt>
      <trkpt lat="43.16878" lon="5.77604">
        <ele>61.200000762939</ele>
        <time>2016-10-28T13:32:20.000Z</time>
      </trkpt>
      <trkpt lat="43.16882" lon="5.77606">
        <ele>60.799999237061</ele>
        <time>2016-10-28T13:32:21.000Z</time>
      </trkpt>
      <trkpt lat="43.1689" lon="5.77611">
        <ele>60.599998474121</ele>
        <time>2016-10-28T13:32:23.000Z</time>
      </trkpt>
      <trkpt lat="43.16897" lon="5.7761">
        <ele>60</ele>
        <time>2016-10-28T13:32:25.000Z</time>
      </trkpt>
      <trkpt lat="43.16899" lon="5.77608">
        <ele>59.599998474121</ele>
        <time>2016-10-28T13:32:26.000Z</time>
      </trkpt>
      <trkpt lat="43.16901" lon="5.77604">
        <ele>59.400001525879</ele>
        <time>2016-10-28T13:32:27.000Z</time>
      </trkpt>
      <trkpt lat="43.16901" lon="5.77594">
        <ele>58.799999237061</ele>
        <time>2016-10-28T13:32:29.000Z</time>
      </trkpt>
      <trkpt lat="43.16901" lon="5.77588">
        <ele>58.599998474121</ele>
        <time>2016-10-28T13:32:30.000Z</time>
      </trkpt>
      <trkpt lat="43.169" lon="5.77581">
        <ele>58.200000762939</ele>
        <time>2016-10-28T13:32:31.000Z</time>
      </trkpt>
      <trkpt lat="43.16898" lon="5.77566">
        <ele>57.799999237061</ele>
        <time>2016-10-28T13:32:33.000Z</time>
      </trkpt>
      <trkpt lat="43.16896" lon="5.77557">
        <ele>57.400001525879</ele>
        <time>2016-10-28T13:32:34.000Z</time>
      </trkpt>
      <trkpt lat="43.16895" lon="5.7754">
        <ele>55.599998474121</ele>
        <time>2016-10-28T13:32:36.000Z</time>
      </trkpt>
      <trkpt lat="43.16894" lon="5.77531">
        <ele>54.599998474121</ele>
        <time>2016-10-28T13:32:37.000Z</time>
      </trkpt>
      <trkpt lat="43.16894" lon="5.77523">
        <ele>53.799999237061</ele>
        <time>2016-10-28T13:32:38.000Z</time>
      </trkpt>
      <trkpt lat="43.16893" lon="5.77507">
        <ele>52.599998474121</ele>
        <time>2016-10-28T13:32:40.000Z</time>
      </trkpt>
      <trkpt lat="43.16893" lon="5.775">
        <ele>52.200000762939</ele>
        <time>2016-10-28T13:32:41.000Z</time>
      </trkpt>
      <trkpt lat="43.16894" lon="5.77492">
        <ele>51.599998474121</ele>
        <time>2016-10-28T13:32:42.000Z</time>
      </trkpt>
      <trkpt lat="43.16897" lon="5.77476">
        <ele>50.599998474121</ele>
        <time>2016-10-28T13:32:44.000Z</time>
      </trkpt>
      <trkpt lat="43.169" lon="5.77467">
        <ele>49.799999237061</ele>
        <time>2016-10-28T13:32:45.000Z</time>
      </trkpt>
      <trkpt lat="43.16904" lon="5.77458">
        <ele>48.799999237061</ele>
        <time>2016-10-28T13:32:46.000Z</time>
      </trkpt>
      <trkpt lat="43.16908" lon="5.77449">
        <ele>47.799999237061</ele>
        <time>2016-10-28T13:32:47.000Z</time>
      </trkpt>
      <trkpt lat="43.16912" lon="5.7744">
        <ele>47.400001525879</ele>
        <time>2016-10-28T13:32:48.000Z</time>
      </trkpt>
      <trkpt lat="43.16917" lon="5.77433">
        <ele>47</ele>
        <time>2016-10-28T13:32:49.000Z</time>
      </trkpt>
      <trkpt lat="43.16923" lon="5.77427">
        <ele>46.599998474121</ele>
        <time>2016-10-28T13:32:50.000Z</time>
      </trkpt>
      <trkpt lat="43.16939" lon="5.77413">
        <ele>46.400001525879</ele>
        <time>2016-10-28T13:32:53.000Z</time>
      </trkpt>
      <trkpt lat="43.16943" lon="5.77408">
        <ele>46.400001525879</ele>
        <time>2016-10-28T13:32:54.000Z</time>
      </trkpt>
      <trkpt lat="43.16964" lon="5.77377">
        <ele>45</ele>
        <time>2016-10-28T13:32:59.000Z</time>
      </trkpt>
      <trkpt lat="43.16987" lon="5.77347">
        <ele>44.599998474121</ele>
        <time>2016-10-28T13:33:04.000Z</time>
      </trkpt>
      <trkpt lat="43.16993" lon="5.77344">
        <ele>44.400001525879</ele>
        <time>2016-10-28T13:33:05.000Z</time>
      </trkpt>
      <trkpt lat="43.17014" lon="5.77342">
        <ele>44.200000762939</ele>
        <time>2016-10-28T13:33:09.000Z</time>
      </trkpt>
      <trkpt lat="43.17029" lon="5.77344">
        <ele>44.599998474121</ele>
        <time>2016-10-28T13:33:12.000Z</time>
      </trkpt>
      <trkpt lat="43.17039" lon="5.77346">
        <ele>44.799999237061</ele>
        <time>2016-10-28T13:33:14.000Z</time>
      </trkpt>
      <trkpt lat="43.17063" lon="5.77351">
        <ele>45.400001525879</ele>
        <time>2016-10-28T13:33:20.000Z</time>
      </trkpt>
      <trkpt lat="43.17084" lon="5.77355">
        <ele>46.200000762939</ele>
        <time>2016-10-28T13:33:26.000Z</time>
      </trkpt>
      <trkpt lat="43.17092" lon="5.77354">
        <ele>46.200000762939</ele>
        <time>2016-10-28T13:33:28.000Z</time>
      </trkpt>
      <trkpt lat="43.17111" lon="5.7735">
        <ele>47.599998474121</ele>
        <time>2016-10-28T13:33:33.000Z</time>
      </trkpt>
      <trkpt lat="43.17145" lon="5.77339">
        <ele>48.799999237061</ele>
        <time>2016-10-28T13:33:42.000Z</time>
      </trkpt>
      <trkpt lat="43.17176" lon="5.77328">
        <ele>47.799999237061</ele>
        <time>2016-10-28T13:33:50.000Z</time>
      </trkpt>
      <trkpt lat="43.17198" lon="5.77318">
        <ele>47.599998474121</ele>
        <time>2016-10-28T13:33:57.000Z</time>
      </trkpt>
      <trkpt lat="43.17216" lon="5.77306">
        <ele>47.400001525879</ele>
        <time>2016-10-28T13:34:03.000Z</time>
      </trkpt>
      <trkpt lat="43.17246" lon="5.77288">
        <ele>48.799999237061</ele>
        <time>2016-10-28T13:34:09.000Z</time>
      </trkpt>
      <trkpt lat="43.17289" lon="5.77254">
        <ele>47.599998474121</ele>
        <time>2016-10-28T13:34:19.000Z</time>
      </trkpt>
      <trkpt lat="43.17323" lon="5.77227">
        <ele>45.599998474121</ele>
        <time>2016-10-28T13:34:28.000Z</time>
      </trkpt>
      <trkpt lat="43.17355" lon="5.77203">
        <ele>45.599998474121</ele>
        <time>2016-10-28T13:34:36.000Z</time>
      </trkpt>
      <trkpt lat="43.17383" lon="5.77184">
        <ele>46.799999237061</ele>
        <time>2016-10-28T13:34:43.000Z</time>
      </trkpt>
      <trkpt lat="43.17387" lon="5.77182">
        <ele>47</ele>
        <time>2016-10-28T13:34:44.000Z</time>
      </trkpt>
      <trkpt lat="43.17413" lon="5.77167">
        <ele>47.400001525879</ele>
        <time>2016-10-28T13:34:51.000Z</time>
      </trkpt>
      <trkpt lat="43.17442" lon="5.77151">
        <ele>48.599998474121</ele>
        <time>2016-10-28T13:34:59.000Z</time>
      </trkpt>
      <trkpt lat="43.17463" lon="5.77146">
        <ele>49</ele>
        <time>2016-10-28T13:35:05.000Z</time>
      </trkpt>
      <trkpt lat="43.17475" lon="5.7715">
        <ele>49.400001525879</ele>
        <time>2016-10-28T13:35:09.000Z</time>
      </trkpt>
      <trkpt lat="43.1748" lon="5.77153">
        <ele>49.599998474121</ele>
        <time>2016-10-28T13:35:11.000Z</time>
      </trkpt>
      <trkpt lat="43.17485" lon="5.77158">
        <ele>49.799999237061</ele>
        <time>2016-10-28T13:35:14.000Z</time>
      </trkpt>
      <trkpt lat="43.1749" lon="5.77159">
        <ele>50</ele>
        <time>2016-10-28T13:35:17.000Z</time>
      </trkpt>
      <trkpt lat="43.17492" lon="5.77156">
        <ele>50</ele>
        <time>2016-10-28T13:35:52.000Z</time>
      </trkpt>
      <trkpt lat="43.17492" lon="5.77151">
        <ele>49.799999237061</ele>
        <time>2016-10-28T13:35:53.000Z</time>
      </trkpt>
      <trkpt lat="43.17485" lon="5.77138">
        <ele>49.400001525879</ele>
        <time>2016-10-28T13:35:57.000Z</time>
      </trkpt>
      <trkpt lat="43.17467" lon="5.7711">
        <ele>49.200000762939</ele>
        <time>2016-10-28T13:36:05.000Z</time>
      </trkpt>
      <trkpt lat="43.17459" lon="5.77085">
        <ele>49.400001525879</ele>
        <time>2016-10-28T13:36:11.000Z</time>
      </trkpt>
      <trkpt lat="43.17469" lon="5.77074">
        <ele>49.400001525879</ele>
        <time>2016-10-28T13:36:15.000Z</time>
      </trkpt>
      <trkpt lat="43.17474" lon="5.77072">
        <ele>49.599998474121</ele>
        <time>2016-10-28T13:36:16.000Z</time>
      </trkpt>
      <trkpt lat="43.17488" lon="5.77059">
        <ele>49.799999237061</ele>
        <time>2016-10-28T13:36:20.000Z</time>
      </trkpt>
      <trkpt lat="43.17495" lon="5.77041">
        <ele>50.200000762939</ele>
        <time>2016-10-28T13:36:24.000Z</time>
      </trkpt>
      <trkpt lat="43.17496" lon="5.77037">
        <ele>50.400001525879</ele>
        <time>2016-10-28T13:36:25.000Z</time>
      </trkpt>
      <trkpt lat="43.17498" lon="5.77026">
        <ele>50.599998474121</ele>
        <time>2016-10-28T13:36:27.000Z</time>
      </trkpt>
      <trkpt lat="43.17498" lon="5.7701">
        <ele>51</ele>
        <time>2016-10-28T13:36:30.000Z</time>
      </trkpt>
      <trkpt lat="43.17498" lon="5.77004">
        <ele>51.200000762939</ele>
        <time>2016-10-28T13:36:31.000Z</time>
      </trkpt>
      <trkpt lat="43.17497" lon="5.7699">
        <ele>51.599998474121</ele>
        <time>2016-10-28T13:36:34.000Z</time>
      </trkpt>
      <trkpt lat="43.17496" lon="5.76968">
        <ele>52.200000762939</ele>
        <time>2016-10-28T13:36:39.000Z</time>
      </trkpt>
      <trkpt lat="43.17495" lon="5.76963">
        <ele>52.599998474121</ele>
        <time>2016-10-28T13:36:40.000Z</time>
      </trkpt>
      <trkpt lat="43.17495" lon="5.76939">
        <ele>54.400001525879</ele>
        <time>2016-10-28T13:36:45.000Z</time>
      </trkpt>
      <trkpt lat="43.17494" lon="5.76935">
        <ele>54.799999237061</ele>
        <time>2016-10-28T13:36:46.000Z</time>
      </trkpt>
      <trkpt lat="43.17492" lon="5.76922">
        <ele>56</ele>
        <time>2016-10-28T13:36:50.000Z</time>
      </trkpt>
      <trkpt lat="43.17492" lon="5.76917">
        <ele>56.200000762939</ele>
        <time>2016-10-28T13:36:51.000Z</time>
      </trkpt>
      <trkpt lat="43.17486" lon="5.769">
        <ele>57.599998474121</ele>
        <time>2016-10-28T13:36:55.000Z</time>
      </trkpt>
      <trkpt lat="43.17484" lon="5.76896">
        <ele>58</ele>
        <time>2016-10-28T13:36:56.000Z</time>
      </trkpt>
      <trkpt lat="43.17471" lon="5.76874">
        <ele>60.200000762939</ele>
        <time>2016-10-28T13:37:01.000Z</time>
      </trkpt>
      <trkpt lat="43.17468" lon="5.76863">
        <ele>61.400001525879</ele>
        <time>2016-10-28T13:37:03.000Z</time>
      </trkpt>
      <trkpt lat="43.17468" lon="5.76857">
        <ele>62.200000762939</ele>
        <time>2016-10-28T13:37:04.000Z</time>
      </trkpt>
      <trkpt lat="43.17469" lon="5.76852">
        <ele>62.799999237061</ele>
        <time>2016-10-28T13:37:05.000Z</time>
      </trkpt>
      <trkpt lat="43.17474" lon="5.76836">
        <ele>64.199996948242</ele>
        <time>2016-10-28T13:37:08.000Z</time>
      </trkpt>
      <trkpt lat="43.17477" lon="5.76831">
        <ele>64.599998474121</ele>
        <time>2016-10-28T13:37:09.000Z</time>
      </trkpt>
      <trkpt lat="43.17488" lon="5.76821">
        <ele>65.199996948242</ele>
        <time>2016-10-28T13:37:12.000Z</time>
      </trkpt>
      <trkpt lat="43.17495" lon="5.76813">
        <ele>65.800003051758</ele>
        <time>2016-10-28T13:37:14.000Z</time>
      </trkpt>
      <trkpt lat="43.17499" lon="5.76809">
        <ele>66</ele>
        <time>2016-10-28T13:37:15.000Z</time>
      </trkpt>
      <trkpt lat="43.17506" lon="5.76802">
        <ele>66.599998474121</ele>
        <time>2016-10-28T13:37:17.000Z</time>
      </trkpt>
      <trkpt lat="43.17521" lon="5.76787">
        <ele>66.599998474121</ele>
        <time>2016-10-28T13:37:21.000Z</time>
      </trkpt>
      <trkpt lat="43.17527" lon="5.76779">
        <ele>67</ele>
        <time>2016-10-28T13:37:23.000Z</time>
      </trkpt>
      <trkpt lat="43.17538" lon="5.76768">
        <ele>67.199996948242</ele>
        <time>2016-10-28T13:37:26.000Z</time>
      </trkpt>
      <trkpt lat="43.17545" lon="5.76761">
        <ele>67.400001525879</ele>
        <time>2016-10-28T13:37:28.000Z</time>
      </trkpt>
      <trkpt lat="43.17548" lon="5.76757">
        <ele>67.599998474121</ele>
        <time>2016-10-28T13:37:29.000Z</time>
      </trkpt>
      <trkpt lat="43.17552" lon="5.76753">
        <ele>67.800003051758</ele>
        <time>2016-10-28T13:37:30.000Z</time>
      </trkpt>
      <trkpt lat="43.17563" lon="5.76742">
        <ele>68.199996948242</ele>
        <time>2016-10-28T13:37:33.000Z</time>
      </trkpt>
      <trkpt lat="43.17578" lon="5.7673">
        <ele>68.800003051758</ele>
        <time>2016-10-28T13:37:37.000Z</time>
      </trkpt>
      <trkpt lat="43.176" lon="5.76719">
        <ele>69</ele>
        <time>2016-10-28T13:37:42.000Z</time>
      </trkpt>
      <trkpt lat="43.17608" lon="5.76713">
        <ele>69</ele>
        <time>2016-10-28T13:37:44.000Z</time>
      </trkpt>
      <trkpt lat="43.17639" lon="5.76687">
        <ele>69.800003051758</ele>
        <time>2016-10-28T13:37:52.000Z</time>
      </trkpt>
      <trkpt lat="43.17647" lon="5.76681">
        <ele>70.400001525879</ele>
        <time>2016-10-28T13:37:54.000Z</time>
      </trkpt>
      <trkpt lat="43.17673" lon="5.76666">
        <ele>72.199996948242</ele>
        <time>2016-10-28T13:38:00.000Z</time>
      </trkpt>
      <trkpt lat="43.17681" lon="5.76662">
        <ele>72.800003051758</ele>
        <time>2016-10-28T13:38:02.000Z</time>
      </trkpt>
      <trkpt lat="43.17702" lon="5.7665">
        <ele>74.199996948242</ele>
        <time>2016-10-28T13:38:07.000Z</time>
      </trkpt>
      <trkpt lat="43.17706" lon="5.76647">
        <ele>74.400001525879</ele>
        <time>2016-10-28T13:38:08.000Z</time>
      </trkpt>
      <trkpt lat="43.17718" lon="5.76638">
        <ele>75</ele>
        <time>2016-10-28T13:38:11.000Z</time>
      </trkpt>
      <trkpt lat="43.17733" lon="5.76626">
        <ele>76</ele>
        <time>2016-10-28T13:38:15.000Z</time>
      </trkpt>
      <trkpt lat="43.17737" lon="5.76623">
        <ele>76.400001525879</ele>
        <time>2016-10-28T13:38:16.000Z</time>
      </trkpt>
      <trkpt lat="43.17769" lon="5.76607">
        <ele>76.599998474121</ele>
        <time>2016-10-28T13:38:23.000Z</time>
      </trkpt>
      <trkpt lat="43.17807" lon="5.76592">
        <ele>76.599998474121</ele>
        <time>2016-10-28T13:38:31.000Z</time>
      </trkpt>
      <trkpt lat="43.1782" lon="5.7658">
        <ele>76.599998474121</ele>
        <time>2016-10-28T13:38:34.000Z</time>
      </trkpt>
      <trkpt lat="43.17826" lon="5.7657">
        <ele>77</ele>
        <time>2016-10-28T13:38:36.000Z</time>
      </trkpt>
      <trkpt lat="43.17832" lon="5.76558">
        <ele>77.599998474121</ele>
        <time>2016-10-28T13:38:38.000Z</time>
      </trkpt>
      <trkpt lat="43.17845" lon="5.76531">
        <ele>77.800003051758</ele>
        <time>2016-10-28T13:38:43.000Z</time>
      </trkpt>
      <trkpt lat="43.17857" lon="5.76511">
        <ele>77.800003051758</ele>
        <time>2016-10-28T13:38:47.000Z</time>
      </trkpt>
      <trkpt lat="43.17869" lon="5.76501">
        <ele>77.400001525879</ele>
        <time>2016-10-28T13:38:50.000Z</time>
      </trkpt>
      <trkpt lat="43.17889" lon="5.76497">
        <ele>77.599998474121</ele>
        <time>2016-10-28T13:38:54.000Z</time>
      </trkpt>
      <trkpt lat="43.17894" lon="5.76496">
        <ele>77.599998474121</ele>
        <time>2016-10-28T13:38:55.000Z</time>
      </trkpt>
      <trkpt lat="43.17922" lon="5.76493">
        <ele>78</ele>
        <time>2016-10-28T13:39:01.000Z</time>
      </trkpt>
      <trkpt lat="43.17931" lon="5.76492">
        <ele>78.199996948242</ele>
        <time>2016-10-28T13:39:03.000Z</time>
      </trkpt>
      <trkpt lat="43.17949" lon="5.76486">
        <ele>79.800003051758</ele>
        <time>2016-10-28T13:39:07.000Z</time>
      </trkpt>
      <trkpt lat="43.17962" lon="5.76479">
        <ele>81.400001525879</ele>
        <time>2016-10-28T13:39:10.000Z</time>
      </trkpt>
      <trkpt lat="43.17979" lon="5.76468">
        <ele>83.400001525879</ele>
        <time>2016-10-28T13:39:14.000Z</time>
      </trkpt>
      <trkpt lat="43.17996" lon="5.76456">
        <ele>85.400001525879</ele>
        <time>2016-10-28T13:39:18.000Z</time>
      </trkpt>
      <trkpt lat="43.18012" lon="5.76445">
        <ele>87.599998474121</ele>
        <time>2016-10-28T13:39:22.000Z</time>
      </trkpt>
      <trkpt lat="43.1802" lon="5.7644">
        <ele>88.199996948242</ele>
        <time>2016-10-28T13:39:24.000Z</time>
      </trkpt>
      <trkpt lat="43.18033" lon="5.76433">
        <ele>89.199996948242</ele>
        <time>2016-10-28T13:39:27.000Z</time>
      </trkpt>
      <trkpt lat="43.18037" lon="5.76431">
        <ele>89.400001525879</ele>
        <time>2016-10-28T13:39:28.000Z</time>
      </trkpt>
      <trkpt lat="43.18055" lon="5.76425">
        <ele>90.400001525879</ele>
        <time>2016-10-28T13:39:32.000Z</time>
      </trkpt>
      <trkpt lat="43.18063" lon="5.7642">
        <ele>90.800003051758</ele>
        <time>2016-10-28T13:39:34.000Z</time>
      </trkpt>
      <trkpt lat="43.18067" lon="5.76417">
        <ele>91.199996948242</ele>
        <time>2016-10-28T13:39:35.000Z</time>
      </trkpt>
      <trkpt lat="43.18074" lon="5.7641">
        <ele>91.800003051758</ele>
        <time>2016-10-28T13:39:37.000Z</time>
      </trkpt>
      <trkpt lat="43.1808" lon="5.76402">
        <ele>92.599998474121</ele>
        <time>2016-10-28T13:39:39.000Z</time>
      </trkpt>
      <trkpt lat="43.18083" lon="5.76397">
        <ele>93</ele>
        <time>2016-10-28T13:39:40.000Z</time>
      </trkpt>
      <trkpt lat="43.18089" lon="5.76377">
        <ele>94.599998474121</ele>
        <time>2016-10-28T13:39:44.000Z</time>
      </trkpt>
      <trkpt lat="43.18091" lon="5.76371">
        <ele>95</ele>
        <time>2016-10-28T13:39:45.000Z</time>
      </trkpt>
      <trkpt lat="43.18094" lon="5.7636">
        <ele>96</ele>
        <time>2016-10-28T13:39:47.000Z</time>
      </trkpt>
      <trkpt lat="43.18099" lon="5.76338">
        <ele>97.400001525879</ele>
        <time>2016-10-28T13:39:51.000Z</time>
      </trkpt>
      <trkpt lat="43.18103" lon="5.76322">
        <ele>98.199996948242</ele>
        <time>2016-10-28T13:39:54.000Z</time>
      </trkpt>
      <trkpt lat="43.18105" lon="5.76306">
        <ele>98.800003051758</ele>
        <time>2016-10-28T13:39:57.000Z</time>
      </trkpt>
      <trkpt lat="43.18106" lon="5.763">
        <ele>98.800003051758</ele>
        <time>2016-10-28T13:39:58.000Z</time>
      </trkpt>
      <trkpt lat="43.18108" lon="5.76285">
        <ele>98.800003051758</ele>
        <time>2016-10-28T13:40:01.000Z</time>
      </trkpt>
      <trkpt lat="43.18108" lon="5.76276">
        <ele>99</ele>
        <time>2016-10-28T13:40:03.000Z</time>
      </trkpt>
      <trkpt lat="43.18111" lon="5.7625">
        <ele>99.400001525879</ele>
        <time>2016-10-28T13:40:09.000Z</time>
      </trkpt>
      <trkpt lat="43.18122" lon="5.76229">
        <ele>99.599998474121</ele>
        <time>2016-10-28T13:40:14.000Z</time>
      </trkpt>
      <trkpt lat="43.18126" lon="5.76226">
        <ele>99.599998474121</ele>
        <time>2016-10-28T13:40:15.000Z</time>
      </trkpt>
      <trkpt lat="43.18141" lon="5.76222">
        <ele>99.199996948242</ele>
        <time>2016-10-28T13:40:18.000Z</time>
      </trkpt>
      <trkpt lat="43.18169" lon="5.76218">
        <ele>97.800003051758</ele>
        <time>2016-10-28T13:40:23.000Z</time>
      </trkpt>
      <trkpt lat="43.18176" lon="5.76218">
        <ele>97.400001525879</ele>
        <time>2016-10-28T13:40:24.000Z</time>
      </trkpt>
      <trkpt lat="43.18203" lon="5.76218">
        <ele>96.199996948242</ele>
        <time>2016-10-28T13:40:28.000Z</time>
      </trkpt>
      <trkpt lat="43.18225" lon="5.7622">
        <ele>94.800003051758</ele>
        <time>2016-10-28T13:40:31.000Z</time>
      </trkpt>
      <trkpt lat="43.18233" lon="5.76221">
        <ele>94.400001525879</ele>
        <time>2016-10-28T13:40:32.000Z</time>
      </trkpt>
      <trkpt lat="43.18247" lon="5.76223">
        <ele>93.599998474121</ele>
        <time>2016-10-28T13:40:34.000Z</time>
      </trkpt>
      <trkpt lat="43.18269" lon="5.76222">
        <ele>92.400001525879</ele>
        <time>2016-10-28T13:40:37.000Z</time>
      </trkpt>
      <trkpt lat="43.18283" lon="5.7622">
        <ele>91.599998474121</ele>
        <time>2016-10-28T13:40:39.000Z</time>
      </trkpt>
      <trkpt lat="43.18325" lon="5.76214">
        <ele>89.199996948242</ele>
        <time>2016-10-28T13:40:45.000Z</time>
      </trkpt>
      <trkpt lat="43.18332" lon="5.76213">
        <ele>88.800003051758</ele>
        <time>2016-10-28T13:40:46.000Z</time>
      </trkpt>
      <trkpt lat="43.1837" lon="5.76213">
        <ele>86.800003051758</ele>
        <time>2016-10-28T13:40:51.000Z</time>
      </trkpt>
      <trkpt lat="43.18378" lon="5.76214">
        <ele>86.199996948242</ele>
        <time>2016-10-28T13:40:52.000Z</time>
      </trkpt>
      <trkpt lat="43.18386" lon="5.76214">
        <ele>85.800003051758</ele>
        <time>2016-10-28T13:40:53.000Z</time>
      </trkpt>
      <trkpt lat="43.18403" lon="5.76212">
        <ele>85.199996948242</ele>
        <time>2016-10-28T13:40:55.000Z</time>
      </trkpt>
      <trkpt lat="43.1842" lon="5.76207">
        <ele>84.800003051758</ele>
        <time>2016-10-28T13:40:57.000Z</time>
      </trkpt>
      <trkpt lat="43.18429" lon="5.76203">
        <ele>84.199996948242</ele>
        <time>2016-10-28T13:40:58.000Z</time>
      </trkpt>
      <trkpt lat="43.18438" lon="5.76197">
        <ele>83.800003051758</ele>
        <time>2016-10-28T13:40:59.000Z</time>
      </trkpt>
      <trkpt lat="43.18456" lon="5.76186">
        <ele>82.800003051758</ele>
        <time>2016-10-28T13:41:01.000Z</time>
      </trkpt>
      <trkpt lat="43.18474" lon="5.76175">
        <ele>82</ele>
        <time>2016-10-28T13:41:03.000Z</time>
      </trkpt>
      <trkpt lat="43.1849" lon="5.76166">
        <ele>81.400001525879</ele>
        <time>2016-10-28T13:41:05.000Z</time>
      </trkpt>
      <trkpt lat="43.18505" lon="5.76157">
        <ele>80.800003051758</ele>
        <time>2016-10-28T13:41:07.000Z</time>
      </trkpt>
      <trkpt lat="43.18527" lon="5.76143">
        <ele>81.400001525879</ele>
        <time>2016-10-28T13:41:11.000Z</time>
      </trkpt>
      <trkpt lat="43.18539" lon="5.76135">
        <ele>81.599998474121</ele>
        <time>2016-10-28T13:41:14.000Z</time>
      </trkpt>
      <trkpt lat="43.18543" lon="5.76131">
        <ele>81.800003051758</ele>
        <time>2016-10-28T13:41:15.000Z</time>
      </trkpt>
      <trkpt lat="43.18546" lon="5.76127">
        <ele>82</ele>
        <time>2016-10-28T13:41:16.000Z</time>
      </trkpt>
      <trkpt lat="43.18549" lon="5.76122">
        <ele>82.199996948242</ele>
        <time>2016-10-28T13:41:17.000Z</time>
      </trkpt>
      <trkpt lat="43.18552" lon="5.76116">
        <ele>82.599998474121</ele>
        <time>2016-10-28T13:41:18.000Z</time>
      </trkpt>
      <trkpt lat="43.18557" lon="5.76105">
        <ele>83.199996948242</ele>
        <time>2016-10-28T13:41:20.000Z</time>
      </trkpt>
      <trkpt lat="43.18559" lon="5.76099">
        <ele>83.599998474121</ele>
        <time>2016-10-28T13:41:21.000Z</time>
      </trkpt>
      <trkpt lat="43.18564" lon="5.76088">
        <ele>84.400001525879</ele>
        <time>2016-10-28T13:41:23.000Z</time>
      </trkpt>
      <trkpt lat="43.18571" lon="5.7607">
        <ele>85.400001525879</ele>
        <time>2016-10-28T13:41:26.000Z</time>
      </trkpt>
      <trkpt lat="43.1859" lon="5.76037">
        <ele>87.400001525879</ele>
        <time>2016-10-28T13:41:32.000Z</time>
      </trkpt>
      <trkpt lat="43.1861" lon="5.76009">
        <ele>88.800003051758</ele>
        <time>2016-10-28T13:41:38.000Z</time>
      </trkpt>
      <trkpt lat="43.18622" lon="5.75995">
        <ele>89.199996948242</ele>
        <time>2016-10-28T13:41:41.000Z</time>
      </trkpt>
      <trkpt lat="43.1864" lon="5.7598">
        <ele>88.800003051758</ele>
        <time>2016-10-28T13:41:45.000Z</time>
      </trkpt>
      <trkpt lat="43.18652" lon="5.75973">
        <ele>88.400001525879</ele>
        <time>2016-10-28T13:41:47.000Z</time>
      </trkpt>
      <trkpt lat="43.18675" lon="5.75961">
        <ele>87.800003051758</ele>
        <time>2016-10-28T13:41:51.000Z</time>
      </trkpt>
      <trkpt lat="43.18698" lon="5.75949">
        <ele>86.599998474121</ele>
        <time>2016-10-28T13:41:55.000Z</time>
      </trkpt>
      <trkpt lat="43.18704" lon="5.75945">
        <ele>86.400001525879</ele>
        <time>2016-10-28T13:41:56.000Z</time>
      </trkpt>
      <trkpt lat="43.18723" lon="5.75938">
        <ele>85.400001525879</ele>
        <time>2016-10-28T13:41:59.000Z</time>
      </trkpt>
      <trkpt lat="43.1873" lon="5.75938">
        <ele>85</ele>
        <time>2016-10-28T13:42:00.000Z</time>
      </trkpt>
      <trkpt lat="43.18736" lon="5.75937">
        <ele>84.400001525879</ele>
        <time>2016-10-28T13:42:01.000Z</time>
      </trkpt>
      <trkpt lat="43.18748" lon="5.75935">
        <ele>83</ele>
        <time>2016-10-28T13:42:03.000Z</time>
      </trkpt>
      <trkpt lat="43.18754" lon="5.75934">
        <ele>82.400001525879</ele>
        <time>2016-10-28T13:42:04.000Z</time>
      </trkpt>
      <trkpt lat="43.18773" lon="5.75926">
        <ele>80.599998474121</ele>
        <time>2016-10-28T13:42:07.000Z</time>
      </trkpt>
      <trkpt lat="43.18795" lon="5.75918">
        <ele>79</ele>
        <time>2016-10-28T13:42:10.000Z</time>
      </trkpt>
      <trkpt lat="43.18802" lon="5.75916">
        <ele>78.800003051758</ele>
        <time>2016-10-28T13:42:11.000Z</time>
      </trkpt>
      <trkpt lat="43.18809" lon="5.75915">
        <ele>78.400001525879</ele>
        <time>2016-10-28T13:42:12.000Z</time>
      </trkpt>
      <trkpt lat="43.18816" lon="5.75914">
        <ele>78</ele>
        <time>2016-10-28T13:42:13.000Z</time>
      </trkpt>
      <trkpt lat="43.1886" lon="5.75909">
        <ele>76.599998474121</ele>
        <time>2016-10-28T13:42:19.000Z</time>
      </trkpt>
      <trkpt lat="43.18867" lon="5.75909">
        <ele>76.599998474121</ele>
        <time>2016-10-28T13:42:20.000Z</time>
      </trkpt>
      <trkpt lat="43.18895" lon="5.75907">
        <ele>77</ele>
        <time>2016-10-28T13:42:24.000Z</time>
      </trkpt>
      <trkpt lat="43.18901" lon="5.75904">
        <ele>77</ele>
        <time>2016-10-28T13:42:25.000Z</time>
      </trkpt>
      <trkpt lat="43.18907" lon="5.759">
        <ele>77.400001525879</ele>
        <time>2016-10-28T13:42:26.000Z</time>
      </trkpt>
      <trkpt lat="43.18924" lon="5.75875">
        <ele>77.800003051758</ele>
        <time>2016-10-28T13:42:30.000Z</time>
      </trkpt>
      <trkpt lat="43.18938" lon="5.7586">
        <ele>77.599998474121</ele>
        <time>2016-10-28T13:42:33.000Z</time>
      </trkpt>
      <trkpt lat="43.18948" lon="5.75855">
        <ele>77.800003051758</ele>
        <time>2016-10-28T13:42:35.000Z</time>
      </trkpt>
      <trkpt lat="43.18959" lon="5.75852">
        <ele>77.800003051758</ele>
        <time>2016-10-28T13:42:37.000Z</time>
      </trkpt>
      <trkpt lat="43.18979" lon="5.75846">
        <ele>78.400001525879</ele>
        <time>2016-10-28T13:42:41.000Z</time>
      </trkpt>
      <trkpt lat="43.18989" lon="5.75842">
        <ele>78.599998474121</ele>
        <time>2016-10-28T13:42:43.000Z</time>
      </trkpt>
      <trkpt lat="43.19016" lon="5.75833">
        <ele>79.599998474121</ele>
        <time>2016-10-28T13:42:48.000Z</time>
      </trkpt>
      <trkpt lat="43.19026" lon="5.75829">
        <ele>80.400001525879</ele>
        <time>2016-10-28T13:42:50.000Z</time>
      </trkpt>
      <trkpt lat="43.19031" lon="5.75826">
        <ele>80.599998474121</ele>
        <time>2016-10-28T13:42:51.000Z</time>
      </trkpt>
      <trkpt lat="43.1904" lon="5.75821">
        <ele>81.599998474121</ele>
        <time>2016-10-28T13:42:53.000Z</time>
      </trkpt>
      <trkpt lat="43.1905" lon="5.75816">
        <ele>82.599998474121</ele>
        <time>2016-10-28T13:42:55.000Z</time>
      </trkpt>
      <trkpt lat="43.19054" lon="5.75814">
        <ele>83</ele>
        <time>2016-10-28T13:42:56.000Z</time>
      </trkpt>
      <trkpt lat="43.19064" lon="5.75809">
        <ele>84</ele>
        <time>2016-10-28T13:42:58.000Z</time>
      </trkpt>
      <trkpt lat="43.19073" lon="5.75806">
        <ele>85</ele>
        <time>2016-10-28T13:43:00.000Z</time>
      </trkpt>
      <trkpt lat="43.19085" lon="5.758">
        <ele>86.199996948242</ele>
        <time>2016-10-28T13:43:03.000Z</time>
      </trkpt>
      <trkpt lat="43.19095" lon="5.75793">
        <ele>87.199996948242</ele>
        <time>2016-10-28T13:43:06.000Z</time>
      </trkpt>
      <trkpt lat="43.19105" lon="5.75785">
        <ele>87.599998474121</ele>
        <time>2016-10-28T13:43:09.000Z</time>
      </trkpt>
      <trkpt lat="43.1911" lon="5.75779">
        <ele>88</ele>
        <time>2016-10-28T13:43:11.000Z</time>
      </trkpt>
      <trkpt lat="43.19116" lon="5.75773">
        <ele>88.400001525879</ele>
        <time>2016-10-28T13:43:13.000Z</time>
      </trkpt>
      <trkpt lat="43.19135" lon="5.75752">
        <ele>89.800003051758</ele>
        <time>2016-10-28T13:43:20.000Z</time>
      </trkpt>
      <trkpt lat="43.19145" lon="5.7574">
        <ele>90.800003051758</ele>
        <time>2016-10-28T13:43:24.000Z</time>
      </trkpt>
      <trkpt lat="43.19152" lon="5.75731">
        <ele>91.800003051758</ele>
        <time>2016-10-28T13:43:27.000Z</time>
      </trkpt>
      <trkpt lat="43.19154" lon="5.75729">
        <ele>92</ele>
        <time>2016-10-28T13:43:28.000Z</time>
      </trkpt>
      <trkpt lat="43.19165" lon="5.75717">
        <ele>93.199996948242</ele>
        <time>2016-10-28T13:43:32.000Z</time>
      </trkpt>
      <trkpt lat="43.19179" lon="5.75698">
        <ele>94</ele>
        <time>2016-10-28T13:43:38.000Z</time>
      </trkpt>
      <trkpt lat="43.19196" lon="5.75673">
        <ele>94</ele>
        <time>2016-10-28T13:43:46.000Z</time>
      </trkpt>
      <trkpt lat="43.19214" lon="5.75639">
        <ele>94</ele>
        <time>2016-10-28T13:43:55.000Z</time>
      </trkpt>
      <trkpt lat="43.19218" lon="5.75609">
        <ele>93.400001525879</ele>
        <time>2016-10-28T13:44:01.000Z</time>
      </trkpt>
      <trkpt lat="43.19226" lon="5.75597">
        <ele>93.400001525879</ele>
        <time>2016-10-28T13:44:05.000Z</time>
      </trkpt>
      <trkpt lat="43.1924" lon="5.75591">
        <ele>94.400001525879</ele>
        <time>2016-10-28T13:44:12.000Z</time>
      </trkpt>
      <trkpt lat="43.19246" lon="5.75593">
        <ele>94.599998474121</ele>
        <time>2016-10-28T13:44:16.000Z</time>
      </trkpt>
      <trkpt lat="43.19248" lon="5.75591">
        <ele>94.800003051758</ele>
        <time>2016-10-28T13:44:52.000Z</time>
      </trkpt>
      <trkpt lat="43.19254" lon="5.75585">
        <ele>95.400001525879</ele>
        <time>2016-10-28T13:44:54.000Z</time>
      </trkpt>
      <trkpt lat="43.19271" lon="5.75575">
        <ele>96.800003051758</ele>
        <time>2016-10-28T13:44:59.000Z</time>
      </trkpt>
      <trkpt lat="43.19288" lon="5.75581">
        <ele>97.400001525879</ele>
        <time>2016-10-28T13:45:03.000Z</time>
      </trkpt>
      <trkpt lat="43.19298" lon="5.75589">
        <ele>97.599998474121</ele>
        <time>2016-10-28T13:45:06.000Z</time>
      </trkpt>
      <trkpt lat="43.19305" lon="5.75596">
        <ele>97.599998474121</ele>
        <time>2016-10-28T13:45:08.000Z</time>
      </trkpt>
      <trkpt lat="43.19313" lon="5.75609">
        <ele>97.599998474121</ele>
        <time>2016-10-28T13:45:11.000Z</time>
      </trkpt>
      <trkpt lat="43.19325" lon="5.75627">
        <ele>97.400001525879</ele>
        <time>2016-10-28T13:45:15.000Z</time>
      </trkpt>
      <trkpt lat="43.19331" lon="5.75635">
        <ele>97.400001525879</ele>
        <time>2016-10-28T13:45:17.000Z</time>
      </trkpt>
      <trkpt lat="43.19347" lon="5.75657">
        <ele>97.599998474121</ele>
        <time>2016-10-28T13:45:22.000Z</time>
      </trkpt>
      <trkpt lat="43.19356" lon="5.75672">
        <ele>99</ele>
        <time>2016-10-28T13:45:25.000Z</time>
      </trkpt>
      <trkpt lat="43.19368" lon="5.757">
        <ele>100.40000152588</ele>
        <time>2016-10-28T13:45:30.000Z</time>
      </trkpt>
      <trkpt lat="43.19377" lon="5.75722">
        <ele>101.40000152588</ele>
        <time>2016-10-28T13:45:34.000Z</time>
      </trkpt>
      <trkpt lat="43.19389" lon="5.75739">
        <ele>103.80000305176</ele>
        <time>2016-10-28T13:45:38.000Z</time>
      </trkpt>
      <trkpt lat="43.19393" lon="5.75742">
        <ele>104.40000152588</ele>
        <time>2016-10-28T13:45:39.000Z</time>
      </trkpt>
      <trkpt lat="43.19397" lon="5.75745">
        <ele>105.40000152588</ele>
        <time>2016-10-28T13:45:40.000Z</time>
      </trkpt>
      <trkpt lat="43.19406" lon="5.7575">
        <ele>107</ele>
        <time>2016-10-28T13:45:42.000Z</time>
      </trkpt>
      <trkpt lat="43.19418" lon="5.75759">
        <ele>109.40000152588</ele>
        <time>2016-10-28T13:45:45.000Z</time>
      </trkpt>
      <trkpt lat="43.19421" lon="5.75763">
        <ele>110</ele>
        <time>2016-10-28T13:45:46.000Z</time>
      </trkpt>
      <trkpt lat="43.19426" lon="5.75787">
        <ele>110.80000305176</ele>
        <time>2016-10-28T13:45:50.000Z</time>
      </trkpt>
      <trkpt lat="43.19426" lon="5.75793">
        <ele>110.59999847412</ele>
        <time>2016-10-28T13:45:51.000Z</time>
      </trkpt>
      <trkpt lat="43.19427" lon="5.75817">
        <ele>109.59999847412</ele>
        <time>2016-10-28T13:45:55.000Z</time>
      </trkpt>
      <trkpt lat="43.19427" lon="5.75829">
        <ele>108.59999847412</ele>
        <time>2016-10-28T13:45:57.000Z</time>
      </trkpt>
      <trkpt lat="43.19427" lon="5.7584">
        <ele>107.59999847412</ele>
        <time>2016-10-28T13:45:59.000Z</time>
      </trkpt>
      <trkpt lat="43.19429" lon="5.75857">
        <ele>106.80000305176</ele>
        <time>2016-10-28T13:46:02.000Z</time>
      </trkpt>
      <trkpt lat="43.19431" lon="5.75862">
        <ele>106.80000305176</ele>
        <time>2016-10-28T13:46:03.000Z</time>
      </trkpt>
      <trkpt lat="43.19435" lon="5.75867">
        <ele>106.80000305176</ele>
        <time>2016-10-28T13:46:04.000Z</time>
      </trkpt>
      <trkpt lat="43.19445" lon="5.75879">
        <ele>107.80000305176</ele>
        <time>2016-10-28T13:46:07.000Z</time>
      </trkpt>
      <trkpt lat="43.19455" lon="5.75889">
        <ele>108.80000305176</ele>
        <time>2016-10-28T13:46:10.000Z</time>
      </trkpt>
      <trkpt lat="43.19458" lon="5.75893">
        <ele>109.40000152588</ele>
        <time>2016-10-28T13:46:11.000Z</time>
      </trkpt>
      <trkpt lat="43.19465" lon="5.75902">
        <ele>110.40000152588</ele>
        <time>2016-10-28T13:46:13.000Z</time>
      </trkpt>
      <trkpt lat="43.19469" lon="5.75906">
        <ele>111.19999694824</ele>
        <time>2016-10-28T13:46:14.000Z</time>
      </trkpt>
      <trkpt lat="43.19482" lon="5.75912">
        <ele>113.40000152588</ele>
        <time>2016-10-28T13:46:17.000Z</time>
      </trkpt>
      <trkpt lat="43.19493" lon="5.75903">
        <ele>115.59999847412</ele>
        <time>2016-10-28T13:46:20.000Z</time>
      </trkpt>
      <trkpt lat="43.19502" lon="5.75889">
        <ele>117.19999694824</ele>
        <time>2016-10-28T13:46:23.000Z</time>
      </trkpt>
      <trkpt lat="43.19507" lon="5.75879">
        <ele>118.80000305176</ele>
        <time>2016-10-28T13:46:25.000Z</time>
      </trkpt>
      <trkpt lat="43.19509" lon="5.75874">
        <ele>119.40000152588</ele>
        <time>2016-10-28T13:46:26.000Z</time>
      </trkpt>
      <trkpt lat="43.19514" lon="5.75865">
        <ele>120.59999847412</ele>
        <time>2016-10-28T13:46:28.000Z</time>
      </trkpt>
      <trkpt lat="43.19519" lon="5.75856">
        <ele>121.80000305176</ele>
        <time>2016-10-28T13:46:30.000Z</time>
      </trkpt>
      <trkpt lat="43.19525" lon="5.75847">
        <ele>122.80000305176</ele>
        <time>2016-10-28T13:46:32.000Z</time>
      </trkpt>
      <trkpt lat="43.1953" lon="5.75841">
        <ele>123.80000305176</ele>
        <time>2016-10-28T13:46:34.000Z</time>
      </trkpt>
      <trkpt lat="43.19533" lon="5.75839">
        <ele>124.19999694824</ele>
        <time>2016-10-28T13:46:35.000Z</time>
      </trkpt>
      <trkpt lat="43.19537" lon="5.75837">
        <ele>124.80000305176</ele>
        <time>2016-10-28T13:46:37.000Z</time>
      </trkpt>
      <trkpt lat="43.19539" lon="5.75834">
        <ele>125.19999694824</ele>
        <time>2016-10-28T13:46:38.000Z</time>
      </trkpt>
      <trkpt lat="43.1954" lon="5.7583">
        <ele>125.59999847412</ele>
        <time>2016-10-28T13:46:39.000Z</time>
      </trkpt>
      <trkpt lat="43.1954" lon="5.75819">
        <ele>126.19999694824</ele>
        <time>2016-10-28T13:46:41.000Z</time>
      </trkpt>
      <trkpt lat="43.19539" lon="5.75813">
        <ele>126.40000152588</ele>
        <time>2016-10-28T13:46:42.000Z</time>
      </trkpt>
      <trkpt lat="43.19539" lon="5.7579">
        <ele>127.19999694824</ele>
        <time>2016-10-28T13:46:46.000Z</time>
      </trkpt>
      <trkpt lat="43.19551" lon="5.75775">
        <ele>128.60000610352</ele>
        <time>2016-10-28T13:46:50.000Z</time>
      </trkpt>
      <trkpt lat="43.19556" lon="5.75768">
        <ele>129.19999694824</ele>
        <time>2016-10-28T13:46:52.000Z</time>
      </trkpt>
      <trkpt lat="43.19562" lon="5.75761">
        <ele>130.80000305176</ele>
        <time>2016-10-28T13:46:54.000Z</time>
      </trkpt>
      <trkpt lat="43.19567" lon="5.75755">
        <ele>132.39999389648</ele>
        <time>2016-10-28T13:46:56.000Z</time>
      </trkpt>
      <trkpt lat="43.19574" lon="5.75748">
        <ele>134.39999389648</ele>
        <time>2016-10-28T13:46:59.000Z</time>
      </trkpt>
    </trkseg>
  </trk>
</gpx>